[[{"header":{"parameterUnit":"m.s-1","parameterCategory":1,"la1":30.6,"la2":29.2853,"lo1":-89.7004,"lo2":-87.6739,"dy":0.0162,"dx":0.0183,"nx":112,"ny":82,"refTime":"2023-07-30T06:00:00:Z","depth":0,"parameterNumber":2,"parameterNumberName":"U-component_of_WINDS"},"data":[0.0,0.0,0.0,0.0,0.0,0.0,0.0,0.0,0.0,0.0,0.0,0.0,0.0,0.0,0.0,0.0,0.0,0.0,0.0,0.0,0.0,0.0,0.0,0.0,0.0,0.0,0.0,0.0,0.0,0.0,0.0,0.0,0.0,0.0,0.0,0.0,0.0,0.0,0.0,0.0,0.0,0.0,0.0,0.0,0.0,0.0,0.0,0.0,0.0,0.0,0.0,0.0,0.0,0.0,0.0,0.0,0.0,0.0,0.0,0.0,0.0,0.0,0.0,0.0,0.0,0.0,0.0,0.0,0.0,0.0,0.0,0.0,0.0,0.0,0.0,0.0,0.0,0.0,0.0,0.0,0.0,0.0,0.0,0.0,0.0,0.0,0.0,0.0,0.0,0.0,-4.2396,-4.2251,-4.2494,-4.2416,-4.1849,-4.2266,-4.236,-4.1879,0.0,0.0,0.0,0.0,0.0,0.0,0.0,0.0,0.0,0.0,0.0,0.0,0.0,0.0,0.0,0.0,0.0,0.0,0.0,0.0,0.0,0.0,0.0,0.0,0.0,0.0,0.0,0.0,0.0,0.0,0.0,0.0,0.0,0.0,0.0,0.0,0.0,0.0,0.0,0.0,0.0,0.0,0.0,0.0,0.0,0.0,0.0,0.0,0.0,0.0,0.0,0.0,0.0,0.0,0.0,0.0,0.0,0.0,0.0,0.0,0.0,0.0,0.0,0.0,0.0,0.0,0.0,0.0,0.0,0.0,0.0,0.0,0.0,0.0,0.0,0.0,0.0,0.0,0.0,0.0,0.0,0.0,0.0,0.0,0.0,0.0,0.0,0.0,0.0,0.0,0.0,0.0,0.0,0.0,0.0,0.0,0.0,0.0,0.0,0.0,0.0,0.0,0.0,0.0,-4.2818,-4.1982,-4.1923,-4.1923,-4.1812,-4.1869,-4.2153,-4.2587,0.0,0.0,0.0,0.0,0.0,0.0,0.0,0.0,0.0,0.0,0.0,0.0,0.0,0.0,0.0,0.0,0.0,0.0,0.0,0.0,0.0,0.0,0.0,0.0,0.0,0.0,0.0,0.0,0.0,0.0,0.0,0.0,0.0,0.0,0.0,0.0,0.0,0.0,0.0,0.0,0.0,0.0,0.0,0.0,0.0,0.0,0.0,0.0,0.0,0.0,0.0,0.0,0.0,0.0,0.0,0.0,0.0,0.0,0.0,0.0,0.0,0.0,0.0,0.0,0.0,0.0,0.0,0.0,0.0,0.0,0.0,0.0,0.0,0.0,0.0,0.0,0.0,0.0,0.0,0.0,0.0,0.0,0.0,0.0,0.0,0.0,0.0,0.0,0.0,0.0,0.0,0.0,0.0,0.0,0.0,0.0,0.0,0.0,0.0,0.0,0.0,0.0,0.0,-4.2541,-4.2479,-4.2001,-4.2261,-4.2324,-4.2001,-4.2241,-4.2357,-4.2319,-4.1944,0.0,0.0,0.0,0.0,0.0,0.0,0.0,0.0,0.0,0.0,0.0,0.0,0.0,0.0,0.0,0.0,0.0,0.0,0.0,0.0,0.0,0.0,0.0,0.0,0.0,0.0,0.0,0.0,0.0,0.0,0.0,0.0,0.0,0.0,0.0,0.0,0.0,0.0,0.0,0.0,0.0,0.0,0.0,0.0,0.0,0.0,0.0,0.0,0.0,0.0,0.0,0.0,0.0,0.0,0.0,0.0,0.0,0.0,0.0,0.0,0.0,0.0,0.0,0.0,0.0,0.0,0.0,0.0,0.0,0.0,0.0,0.0,0.0,0.0,0.0,0.0,0.0,0.0,0.0,0.0,0.0,0.0,0.0,0.0,0.0,0.0,0.0,0.0,0.0,0.0,0.0,0.0,0.0,0.0,0.0,0.0,0.0,0.0,0.0,0.0,0.0,0.0,-4.2216,-4.2092,-4.2092,-4.25,-4.2622,-4.2133,-4.2485,-4.2551,-4.2199,-4.1808,0.0,0.0,0.0,0.0,0.0,0.0,0.0,0.0,0.0,0.0,0.0,0.0,0.0,0.0,0.0,0.0,0.0,0.0,0.0,0.0,0.0,0.0,0.0,0.0,0.0,0.0,0.0,0.0,0.0,0.0,0.0,0.0,0.0,0.0,0.0,0.0,0.0,0.0,0.0,0.0,0.0,0.0,0.0,0.0,0.0,0.0,0.0,0.0,0.0,0.0,0.0,0.0,0.0,0.0,0.0,0.0,0.0,0.0,0.0,0.0,0.0,0.0,0.0,0.0,0.0,0.0,0.0,0.0,0.0,0.0,0.0,0.0,0.0,0.0,0.0,0.0,0.0,0.0,0.0,0.0,0.0,0.0,0.0,0.0,0.0,0.0,0.0,0.0,0.0,0.0,0.0,0.0,0.0,0.0,0.0,0.0,0.0,0.0,0.0,0.0,0.0,0.0,-4.2433,-4.2092,-4.2092,-4.2133,-4.2133,-4.2092,-4.2131,-4.2374,-4.2881,-4.181,0.0,0.0,0.0,0.0,0.0,0.0,0.0,0.0,0.0,0.0,0.0,0.0,0.0,0.0,0.0,0.0,0.0,0.0,0.0,0.0,0.0,0.0,0.0,0.0,0.0,0.0,0.0,0.0,0.0,0.0,0.0,0.0,0.0,0.0,0.0,0.0,0.0,0.0,0.0,0.0,0.0,0.0,0.0,0.0,0.0,0.0,0.0,0.0,0.0,0.0,0.0,0.0,0.0,0.0,0.0,0.0,0.0,0.0,0.0,0.0,0.0,0.0,0.0,0.0,0.0,0.0,0.0,0.0,0.0,0.0,0.0,0.0,0.0,0.0,0.0,0.0,0.0,0.0,0.0,0.0,0.0,0.0,0.0,0.0,0.0,0.0,0.0,0.0,0.0,0.0,0.0,0.0,0.0,0.0,0.0,0.0,0.0,0.0,0.0,0.0,0.0,0.0,-4.2476,-4.2092,0.0,-4.2092,-4.2092,-4.2092,-4.2092,-4.2216,-4.2433,0.0,0.0,0.0,0.0,0.0,0.0,0.0,0.0,0.0,0.0,0.0,0.0,0.0,0.0,0.0,0.0,0.0,0.0,0.0,0.0,0.0,0.0,0.0,0.0,0.0,0.0,0.0,0.0,0.0,0.0,0.0,0.0,0.0,0.0,0.0,0.0,0.0,0.0,0.0,0.0,0.0,0.0,0.0,0.0,0.0,0.0,0.0,0.0,0.0,0.0,0.0,0.0,0.0,0.0,0.0,0.0,0.0,0.0,0.0,0.0,0.0,0.0,0.0,0.0,0.0,0.0,0.0,0.0,0.0,0.0,0.0,0.0,0.0,0.0,0.0,0.0,0.0,0.0,0.0,0.0,0.0,0.0,0.0,0.0,0.0,0.0,0.0,0.0,0.0,0.0,0.0,0.0,0.0,0.0,0.0,0.0,0.0,0.0,0.0,0.0,0.0,0.0,-4.3253,-4.2948,-4.2702,0.0,-4.2513,-4.2382,-4.2382,-4.2208,-4.2092,-4.2092,0.0,0.0,0.0,0.0,0.0,0.0,0.0,0.0,0.0,0.0,0.0,0.0,0.0,0.0,0.0,0.0,0.0,0.0,0.0,0.0,0.0,0.0,0.0,0.0,0.0,0.0,0.0,0.0,0.0,0.0,0.0,0.0,0.0,0.0,0.0,0.0,0.0,0.0,0.0,0.0,0.0,0.0,0.0,0.0,0.0,0.0,0.0,0.0,0.0,0.0,0.0,0.0,0.0,0.0,0.0,0.0,0.0,0.0,0.0,0.0,0.0,0.0,0.0,0.0,0.0,0.0,0.0,0.0,0.0,0.0,0.0,0.0,0.0,0.0,0.0,0.0,0.0,0.0,0.0,0.0,0.0,0.0,0.0,0.0,0.0,0.0,0.0,0.0,0.0,0.0,0.0,0.0,0.0,0.0,0.0,0.0,0.0,0.0,0.0,0.0,0.0,0.0,-4.4008,-4.3993,-4.3993,-4.3993,-4.3398,-4.3007,-4.2992,-4.244,-4.2107,0.0,0.0,0.0,0.0,0.0,0.0,0.0,0.0,0.0,0.0,0.0,0.0,0.0,0.0,0.0,0.0,0.0,0.0,0.0,0.0,0.0,0.0,0.0,0.0,0.0,0.0,0.0,0.0,0.0,0.0,0.0,0.0,0.0,0.0,0.0,0.0,0.0,0.0,0.0,0.0,0.0,0.0,0.0,0.0,0.0,0.0,0.0,0.0,0.0,0.0,0.0,0.0,0.0,0.0,0.0,0.0,0.0,0.0,0.0,0.0,0.0,0.0,0.0,0.0,0.0,0.0,0.0,0.0,0.0,0.0,0.0,0.0,0.0,0.0,0.0,0.0,0.0,0.0,0.0,0.0,0.0,0.0,0.0,0.0,0.0,0.0,0.0,0.0,0.0,0.0,0.0,0.0,0.0,0.0,0.0,0.0,0.0,0.0,0.0,0.0,0.0,0.0,0.0,-4.4574,-4.4255,-4.3993,-4.3993,-4.3819,-4.35,-4.3036,-4.2832,-4.2542,-4.2121,0.0,0.0,0.0,0.0,0.0,0.0,0.0,0.0,0.0,0.0,0.0,0.0,0.0,0.0,0.0,0.0,0.0,0.0,0.0,0.0,0.0,0.0,0.0,0.0,0.0,0.0,0.0,0.0,0.0,0.0,0.0,0.0,0.0,0.0,0.0,0.0,0.0,0.0,0.0,0.0,0.0,0.0,0.0,0.0,0.0,0.0,0.0,0.0,0.0,0.0,0.0,0.0,0.0,0.0,0.0,0.0,0.0,0.0,0.0,0.0,0.0,0.0,0.0,0.0,0.0,0.0,0.0,0.0,0.0,0.0,0.0,0.0,0.0,0.0,0.0,0.0,0.0,0.0,0.0,0.0,0.0,0.0,0.0,0.0,0.0,0.0,0.0,0.0,0.0,0.0,0.0,0.0,0.0,0.0,0.0,0.0,0.0,0.0,0.0,0.0,0.0,0.0,-4.5242,-4.4966,-4.4748,-4.4748,-4.4501,-4.4182,-4.3776,-4.3282,-4.2832,-4.2469,0.0,0.0,0.0,0.0,0.0,0.0,0.0,0.0,0.0,0.0,0.0,0.0,0.0,0.0,0.0,0.0,0.0,0.0,0.0,0.0,0.0,0.0,0.0,0.0,0.0,0.0,0.0,0.0,0.0,0.0,0.0,0.0,0.0,0.0,0.0,0.0,0.0,0.0,0.0,0.0,0.0,0.0,0.0,0.0,0.0,0.0,0.0,0.0,0.0,0.0,0.0,0.0,0.0,0.0,0.0,0.0,0.0,0.0,0.0,0.0,0.0,0.0,0.0,0.0,0.0,0.0,0.0,0.0,0.0,0.0,0.0,0.0,0.0,0.0,0.0,0.0,0.0,0.0,0.0,0.0,0.0,0.0,0.0,0.0,0.0,0.0,0.0,0.0,0.0,0.0,0.0,0.0,0.0,0.0,0.0,0.0,0.0,0.0,0.0,0.0,0.0,0.0,-4.588,-4.588,-4.588,-4.588,-4.5343,-4.4951,-4.4893,-4.3834,-4.3123,-4.3007,0.0,0.0,0.0,0.0,0.0,0.0,0.0,0.0,0.0,0.0,0.0,0.0,0.0,0.0,0.0,0.0,0.0,0.0,0.0,0.0,0.0,0.0,0.0,0.0,0.0,0.0,0.0,0.0,0.0,0.0,0.0,0.0,0.0,0.0,0.0,0.0,0.0,0.0,0.0,0.0,0.0,0.0,0.0,0.0,0.0,0.0,0.0,0.0,0.0,0.0,0.0,0.0,0.0,0.0,0.0,0.0,0.0,0.0,0.0,0.0,-4.5245,0.0,0.0,0.0,0.0,0.0,0.0,0.0,0.0,0.0,0.0,0.0,0.0,0.0,0.0,0.0,0.0,0.0,0.0,0.0,0.0,0.0,0.0,0.0,0.0,0.0,0.0,0.0,0.0,0.0,0.0,0.0,0.0,0.0,0.0,0.0,0.0,0.0,0.0,0.0,0.0,0.0,-4.588,-4.588,-4.588,-4.588,-4.575,-4.5459,-4.4922,-4.4632,-4.4052,-4.305,-4.2876,0.0,0.0,0.0,0.0,0.0,0.0,0.0,0.0,0.0,0.0,0.0,0.0,0.0,0.0,0.0,0.0,0.0,0.0,0.0,0.0,0.0,0.0,0.0,0.0,0.0,0.0,0.0,0.0,0.0,0.0,0.0,0.0,0.0,0.0,0.0,0.0,0.0,0.0,0.0,0.0,0.0,0.0,0.0,0.0,0.0,0.0,0.0,0.0,0.0,0.0,0.0,0.0,0.0,0.0,0.0,0.0,0.0,0.0,0.0,0.0,-4.5146,0.0,0.0,0.0,0.0,0.0,0.0,0.0,0.0,0.0,0.0,0.0,0.0,0.0,0.0,0.0,0.0,0.0,0.0,0.0,0.0,0.0,0.0,0.0,0.0,0.0,0.0,0.0,0.0,0.0,0.0,0.0,0.0,0.0,0.0,0.0,0.0,0.0,0.0,0.0,0.0,-4.498,-4.498,-4.498,-4.498,-4.498,-4.4835,-4.4487,-4.4153,-4.3689,-4.3036,-4.2716,0.0,0.0,0.0,0.0,0.0,0.0,0.0,0.0,0.0,0.0,0.0,0.0,0.0,0.0,0.0,0.0,0.0,0.0,0.0,0.0,0.0,0.0,0.0,0.0,0.0,0.0,0.0,0.0,0.0,0.0,0.0,0.0,0.0,0.0,0.0,0.0,0.0,0.0,0.0,0.0,0.0,0.0,0.0,0.0,0.0,0.0,0.0,0.0,0.0,0.0,0.0,0.0,0.0,-4.6633,-4.6563,-4.6684,-4.6333,-4.6227,-4.6288,-4.5136,-4.5112,-4.585,-4.5187,0.0,0.0,0.0,0.0,0.0,0.0,0.0,0.0,0.0,0.0,0.0,0.0,0.0,0.0,0.0,0.0,0.0,0.0,0.0,0.0,0.0,0.0,0.0,0.0,-4.4371,-4.4603,0.0,0.0,0.0,0.0,0.0,0.0,0.0,0.0,0.0,0.0,0.0,0.0,-4.3993,-4.3993,-4.3993,-4.3993,-4.3993,-4.3993,-4.3993,-4.3485,-4.3108,-4.3007,-4.2528,-4.2208,0.0,0.0,0.0,0.0,0.0,0.0,0.0,0.0,0.0,0.0,0.0,0.0,0.0,0.0,0.0,0.0,0.0,0.0,0.0,0.0,0.0,0.0,0.0,0.0,0.0,0.0,0.0,0.0,0.0,0.0,0.0,0.0,-4.5588,-4.5774,0.0,0.0,0.0,0.0,0.0,0.0,0.0,0.0,0.0,0.0,0.0,0.0,0.0,-4.6947,-4.6815,-4.6689,-4.6633,-4.6633,-4.6314,-4.6096,-4.5952,-4.5735,-4.5536,-4.5373,-4.5201,0.0,-4.6224,-4.5987,0.0,0.0,0.0,0.0,0.0,0.0,0.0,0.0,0.0,0.0,0.0,0.0,0.0,0.0,0.0,0.0,0.0,0.0,0.0,0.0,0.0,0.0,-4.3433,-4.3888,-4.4052,-4.4095,0.0,-4.3993,-4.4139,-4.4661,-4.4414,0.0,0.0,0.0,0.0,0.0,0.0,0.0,-4.3993,-4.3993,-4.3993,-4.3993,-4.3993,-4.3993,-4.3993,-4.3906,-4.3616,-4.3021,-4.2919,-4.2644,-4.2121,-4.2092,0.0,0.0,0.0,0.0,0.0,0.0,0.0,0.0,0.0,0.0,0.0,0.0,0.0,0.0,0.0,0.0,0.0,0.0,0.0,0.0,0.0,0.0,0.0,0.0,0.0,0.0,0.0,0.0,0.0,-4.5814,-4.5934,-4.6257,-4.63,-4.655,0.0,0.0,0.0,0.0,0.0,0.0,0.0,0.0,0.0,-4.6963,-4.6582,-4.6423,-4.6471,-4.6136,-4.6028,-4.6136,-4.6389,-4.6107,-4.5439,-4.6253,-4.6273,-4.5703,-4.5866,-4.6159,-4.6557,-4.6128,-4.5941,-4.5897,0.0,0.0,0.0,0.0,-4.3649,-4.3386,-4.2783,-4.2587,0.0,-4.2197,0.0,0.0,0.0,0.0,0.0,0.0,0.0,0.0,0.0,0.0,-4.3094,-4.3845,-4.3993,-4.3993,-4.3993,-4.3689,-4.3616,0.0,-4.4168,-4.3993,-4.3993,0.0,0.0,0.0,0.0,-4.2919,-4.2919,-4.2919,-4.2919,-4.2919,-4.2919,-4.2919,-4.2919,-4.2919,-4.2803,-4.2513,-4.2484,-4.2382,-4.2107,-4.2092,-4.2092,0.0,0.0,0.0,0.0,0.0,0.0,0.0,0.0,0.0,0.0,0.0,0.0,0.0,0.0,0.0,0.0,0.0,0.0,0.0,0.0,0.0,0.0,0.0,0.0,0.0,0.0,0.0,0.0,-4.6036,-4.6328,-4.6779,-4.6839,-4.7059,0.0,0.0,0.0,0.0,0.0,0.0,-4.727,-4.6945,-4.6668,-4.6512,-4.6335,-4.6231,-4.6294,-4.6176,-4.6144,-4.6218,-4.6797,-4.6588,-4.5694,-4.6967,-4.7123,-4.6407,-4.6453,-4.6573,-4.6647,-4.5995,-4.5672,-4.5588,-4.5512,-4.5209,-4.478,-4.4205,-4.393,-4.3754,-4.2962,-4.2605,-4.2436,-4.2186,0.0,-4.2123,-4.2123,0.0,0.0,0.0,0.0,-4.2876,-4.3489,-4.3379,-4.326,-4.3847,-4.3993,-4.3993,-4.3993,-4.3471,-4.3137,0.0,-4.3616,-4.35,-4.35,0.0,0.0,0.0,0.0,-4.2092,-4.2092,-4.2092,-4.2092,-4.2092,-4.2092,-4.2092,-4.2092,-4.2092,-4.2092,-4.2092,-4.2092,-4.2092,-4.2092,-4.2092,-4.2092,-4.2092,0.0,0.0,0.0,0.0,0.0,0.0,0.0,0.0,0.0,0.0,0.0,0.0,0.0,0.0,0.0,0.0,0.0,0.0,0.0,0.0,0.0,0.0,0.0,0.0,0.0,0.0,0.0,0.0,0.0,-4.7721,-4.7272,0.0,0.0,0.0,0.0,-4.7186,-4.6997,-4.6927,-4.6927,-4.6547,-4.6337,-4.6337,-4.6596,-4.674,-4.674,-4.7451,-4.7669,-4.7431,-4.77,-4.7586,-4.7131,-4.7425,-4.7472,-4.7185,-4.6579,-4.6373,-4.6447,-4.5799,-4.5728,-4.6036,-4.5834,-4.5753,-4.5713,-4.5683,-4.5438,-4.5083,-4.5053,-4.4733,-4.4354,-4.4326,-4.4326,-4.4326,-4.4326,-4.4635,0.0,0.0,-4.5053,-4.4944,-4.4628,-4.4516,-4.4418,-4.4094,-4.3993,-4.3993,-4.3993,-4.3471,-4.3007,0.0,-4.2586,-4.2194,-4.2194,0.0,-4.215,-4.215,-4.2121,-4.2092,-4.2092,-4.2092,-4.2092,-4.2092,-4.2092,-4.2092,-4.2092,-4.2092,-4.2092,-4.2092,-4.2092,-4.2092,-4.2092,-4.2092,-4.2092,-4.2092,-4.2092,0.0,0.0,0.0,0.0,0.0,0.0,0.0,0.0,0.0,0.0,0.0,0.0,0.0,0.0,0.0,0.0,0.0,0.0,0.0,0.0,0.0,0.0,0.0,0.0,0.0,0.0,0.0,0.0,-4.7354,-4.6878,0.0,-4.7321,-4.7202,-4.7048,-4.6979,-4.6687,-4.6635,-4.6941,-4.6773,-4.6761,-4.7056,-4.7243,-4.7401,-4.7514,-4.7653,-4.7741,-4.7763,-4.8281,-4.8067,-4.7148,-4.7883,-4.7881,-4.7205,-4.6731,-4.6604,-4.6716,-4.6046,-4.5571,-4.5327,-4.5244,-4.4968,-4.4634,-4.4634,-4.4549,-4.4436,-4.4436,-4.4294,-4.4165,-4.4165,-4.4165,-4.4251,-4.4477,-4.4689,-4.4872,-4.5123,-4.4998,-4.4788,-4.4661,-4.4422,-4.4194,-4.4022,-4.3993,-4.3993,-4.3993,-4.3805,-4.3631,-4.3631,-4.2803,-4.2092,-4.2092,-4.2092,-4.2092,-4.2092,-4.2092,-4.2092,-4.2092,-4.2092,-4.2092,-4.2092,-4.2092,-4.2092,-4.2092,-4.2092,-4.2092,-4.2092,-4.2092,-4.2092,-4.2092,-4.2092,-4.2092,-4.2092,-4.2092,-4.2092,0.0,0.0,0.0,0.0,0.0,0.0,0.0,0.0,0.0,0.0,0.0,0.0,0.0,0.0,0.0,0.0,0.0,0.0,0.0,0.0,0.0,0.0,0.0,0.0,0.0,0.0,-4.7118,-4.7118,-4.6636,-4.6426,-4.6809,-4.6982,-4.7004,-4.6898,-4.6857,-4.6975,-4.7289,-4.7225,-4.7296,-4.7617,-4.7846,-4.801,-4.8126,-4.823,-4.8302,-4.8395,-4.8953,-4.8756,-4.7962,-4.8456,-4.849,-4.8057,-4.7119,-4.6931,-4.7163,-4.6269,-4.5639,-4.5225,-4.5225,-4.4981,-4.4632,-4.4632,-4.4632,-4.4632,-4.4442,-4.4354,-4.4354,-4.4177,-4.4221,-4.4442,-4.4662,-4.4894,-4.511,-4.5368,-4.524,-4.5024,-4.5024,-4.4821,-4.4632,-4.4632,-4.4632,-4.4632,-4.4632,-4.4443,-4.4284,-4.4284,-4.3442,-4.2731,-4.2731,-4.2731,-4.2731,-4.2731,-4.2731,-4.2658,-4.2426,-4.2397,-4.2324,-4.2121,-4.2092,-4.2092,-4.2092,-4.2092,-4.2092,-4.2092,-4.2092,-4.2092,-4.2092,-4.2092,-4.2092,-4.2092,-4.2092,-4.2092,-4.2092,0.0,0.0,0.0,0.0,0.0,0.0,0.0,0.0,0.0,0.0,0.0,0.0,0.0,0.0,0.0,0.0,0.0,0.0,0.0,0.0,0.0,0.0,0.0,-4.8145,-4.7253,-4.6722,-4.7032,-4.6633,-4.6333,-4.6349,-4.7021,-4.7255,-4.6871,-4.7498,-4.7909,-4.7925,-4.7925,-4.794,-4.7956,-4.8372,-4.864,-4.864,-4.9283,-4.9517,-4.9316,-4.9717,-4.9797,-4.9597,-4.9107,-4.9228,-4.9717,-4.7749,-4.7249,-4.7734,-4.6432,-4.588,-4.588,-4.588,-4.588,-4.588,-4.588,-4.588,-4.5835,-4.5307,-4.5124,-4.5032,-4.4583,-4.4769,-4.5124,-4.5124,-4.5504,-4.588,-4.588,-4.588,-4.588,-4.588,-4.588,-4.588,-4.588,-4.588,-4.588,-4.588,-4.5372,-4.4922,-4.4922,-4.4443,-4.4037,-4.4008,-4.3993,-4.3993,-4.3993,-4.3993,0.0,-4.3108,-4.3007,-4.2774,-4.2223,-4.2136,-4.2121,-4.2121,-4.2121,-4.2121,-4.2092,-4.2092,-4.2092,-4.2092,-4.2092,-4.2092,-4.2092,-4.2092,-4.2092,-4.2092,0.0,0.0,0.0,0.0,0.0,0.0,0.0,0.0,0.0,0.0,0.0,0.0,0.0,0.0,0.0,0.0,0.0,0.0,0.0,0.0,0.0,0.0,-4.705,-4.705,-4.6791,-4.667,-4.6861,-4.6759,-4.6856,-4.7395,-4.7632,-4.7722,-4.7593,-4.7782,-4.8038,-4.8388,-4.8419,-4.8639,-4.9111,-4.9276,-4.933,-4.933,-4.9662,-4.9637,-4.9316,-4.9717,-4.9797,-4.9557,-4.8615,-4.8282,-4.8366,-4.6814,-4.6269,-4.6432,-4.606,-4.588,-4.588,-4.588,-4.588,-4.588,-4.588,-4.588,-4.588,-4.5745,-4.57,-4.564,-4.5518,-4.5564,-4.57,-4.57,-4.579,-4.588,-4.588,-4.588,-4.588,-4.588,-4.588,-4.588,-4.588,-4.588,-4.588,-4.588,-4.575,-4.5619,-4.5619,-4.5474,-4.5068,-4.4153,-4.3993,-4.3993,-4.3993,-4.3993,0.0,-4.3732,-4.3297,-4.3108,-4.3427,-4.3036,-4.2745,-4.2745,-4.2745,-4.2557,-4.2121,-4.2092,-4.2092,-4.2092,-4.2092,-4.2092,-4.2092,-4.2092,-4.2092,0.0,0.0,0.0,0.0,0.0,0.0,0.0,0.0,0.0,0.0,0.0,0.0,0.0,0.0,0.0,0.0,0.0,0.0,0.0,0.0,0.0,0.0,-4.7557,-4.7039,-4.7129,-4.6885,-4.6841,-4.7204,-4.7261,-4.7435,-4.7861,-4.8146,-4.832,-4.832,-4.8588,-4.8842,-4.9135,-4.915,-4.9324,-4.9701,-4.9637,-4.9597,-4.9597,-4.9637,-4.9437,-4.9031,-4.9219,-4.9178,-4.8836,-4.7919,-4.7621,0.0,-4.6476,-4.606,-4.6314,-4.6015,-4.588,0.0,0.0,0.0,0.0,0.0,-4.588,-4.588,-4.588,-4.588,-4.588,-4.588,-4.588,-4.588,-4.588,-4.588,-4.588,-4.588,-4.588,-4.588,-4.588,-4.588,-4.588,-4.588,-4.588,-4.588,-4.588,-4.588,-4.588,-4.588,-4.588,0.0,-4.4908,-4.4792,-4.4792,-4.4792,-4.4792,-4.4676,-4.44,-4.4023,-4.3834,-4.3979,-4.3398,-4.2992,-4.2992,-4.276,0.0,0.0,0.0,-4.2092,-4.2092,-4.2092,0.0,0.0,0.0,-4.2092,-4.2092,0.0,0.0,0.0,-4.1337,-4.0799,0.0,0.0,0.0,0.0,0.0,0.0,0.0,0.0,0.0,0.0,0.0,0.0,0.0,0.0,0.0,0.0,-4.7977,-4.7705,-4.7985,-4.7451,-4.7277,-4.7925,-4.8004,-4.8035,-4.8114,-4.8652,-4.8999,-4.8999,-4.9568,-4.9876,-4.9876,0.0,0.0,0.0,0.0,-4.9597,-4.9597,-4.9437,-4.9113,-4.8578,-4.8604,-4.8339,-4.7819,-4.7206,-4.7206,-4.7734,-4.6432,-4.6225,-4.6741,-4.615,-4.588,-4.588,-4.588,-4.588,-4.588,-4.588,-4.588,-4.588,-4.588,0.0,0.0,-4.588,-4.588,-4.588,-4.588,-4.588,-4.588,-4.588,-4.588,-4.588,-4.588,-4.588,-4.588,-4.588,-4.588,-4.588,-4.588,-4.588,-4.588,-4.588,-4.588,-4.588,-4.588,-4.588,-4.588,-4.588,-4.588,-4.5677,-4.5082,-4.4937,-4.4705,-4.4255,0.0,0.0,-4.3108,-4.2615,-4.2252,-4.2107,-4.2092,-4.2121,-4.2194,-4.2136,-4.2121,-4.2194,-4.2121,-4.2092,-4.2092,-4.2092,-4.2092,-4.2092,-4.2092,-4.1387,0.0,0.0,0.0,0.0,0.0,0.0,0.0,0.0,0.0,0.0,0.0,0.0,0.0,0.0,0.0,-4.842,-4.8091,-4.8023,-4.8643,-4.8573,-4.8541,-4.8683,-4.8699,-4.892,-4.9473,-4.9647,-4.9726,-4.9726,-4.9852,-4.9876,-4.9876,-4.9773,-4.9717,-4.9876,-4.9717,-4.9597,-4.9597,-4.9717,-4.93,-4.837,0.0,0.0,-4.7664,-4.7119,-4.696,-4.7047,-4.6225,-4.597,-4.6105,-4.5925,-4.588,-4.588,-4.588,-4.588,-4.588,-4.588,-4.588,-4.588,-4.588,-4.588,-4.588,-4.588,-4.588,-4.588,-4.588,-4.588,0.0,-4.588,-4.588,-4.588,-4.588,-4.588,-4.588,-4.588,-4.588,-4.588,-4.588,-4.588,-4.588,-4.588,-4.588,-4.588,-4.588,-4.588,-4.588,-4.588,-4.588,-4.5837,-4.5706,-4.5213,-4.5053,-4.5474,-4.4922,-4.4327,-4.3834,-4.3689,-4.3181,-4.2165,-4.2092,-4.231,-4.2803,-4.2353,-4.2324,-4.2818,-4.2339,-4.2092,-4.2092,-4.2092,-4.2092,-4.2092,-4.2092,-4.1937,0.0,0.0,0.0,0.0,0.0,0.0,0.0,0.0,0.0,0.0,0.0,-4.9244,0.0,0.0,-4.8667,-4.8988,-4.868,-4.8636,-4.9315,-4.941,-4.941,-4.941,-4.941,-4.9536,-4.9884,-4.9876,-4.9876,-4.9876,-4.9876,-4.9876,-4.9876,-4.9797,-4.9797,-4.9876,-5.0143,-5.0292,-5.0292,-5.0623,-5.0428,-4.9635,-4.9377,-4.8905,-4.8237,-4.7628,-4.7357,-4.7297,-4.6627,-4.6359,-4.633,-4.6011,-4.588,-4.588,-4.588,-4.588,-4.588,-4.588,-4.588,-4.588,-4.588,-4.588,-4.588,-4.588,-4.588,-4.588,-4.588,-4.588,-4.588,-4.588,-4.588,-4.588,-4.588,-4.588,-4.588,-4.588,-4.588,-4.588,-4.588,-4.588,-4.588,-4.588,-4.588,-4.588,-4.588,-4.588,-4.588,-4.588,-4.588,-4.588,-4.588,-4.559,-4.5518,-4.5851,-4.5285,-4.4647,-4.4037,-4.3413,-4.2774,-4.2136,-4.2382,-4.2687,-4.2977,-4.2702,-4.2687,-4.2977,-4.2397,-4.2092,-4.2092,-4.2092,-4.2092,-4.2092,-4.2092,-4.2092,0.0,0.0,0.0,0.0,0.0,0.0,0.0,0.0,-4.9241,-4.929,-4.9398,-4.9496,-4.9496,-4.9183,-4.9073,-4.9598,-4.9369,-4.9284,-4.9797,-4.9876,-4.9876,-4.9876,-4.9876,-4.9876,-4.9876,-4.9876,-4.9876,-4.9876,-4.9876,-4.9876,-4.9876,-5.0058,-5.0121,-5.0121,-5.0816,-5.118,-5.118,-5.1568,-5.1502,-5.0979,-5.0083,-4.9389,-4.8862,-4.8141,-4.7782,-4.7753,-4.723,-4.6966,-4.6969,-4.633,-4.6069,-4.6055,-4.5938,-4.588,-4.588,-4.588,-4.588,-4.588,-4.588,-4.588,-4.588,-4.588,-4.588,-4.588,-4.588,-4.588,-4.588,-4.588,-4.588,-4.588,-4.588,-4.588,-4.588,-4.588,-4.588,-4.588,-4.588,-4.588,-4.588,-4.588,-4.588,-4.588,-4.588,-4.588,-4.588,-4.588,-4.588,-4.588,-4.588,-4.588,-4.588,-4.588,-4.5401,-4.4792,-4.4052,-4.2832,-4.2092,-4.2092,-4.2557,-4.2934,-4.3181,-4.2948,-4.2934,-4.3181,-4.2469,-4.2092,-4.2092,-4.2092,-4.2092,-4.2092,-4.2092,-4.2009,-4.9774,-4.9671,-4.9553,-4.9422,-4.9425,-4.9307,0.0,0.0,-4.9272,-4.8648,-4.9022,-4.9496,-4.9496,-4.9552,-4.9598,-4.9679,-4.9728,-4.9837,-4.9876,-4.9876,-4.9876,-4.9876,-4.9876,-4.9876,-4.9876,-4.9876,-4.9876,-4.9876,-4.9876,-4.9876,-4.9876,-5.0516,-5.0904,-5.0904,-5.1527,-5.1891,-5.1891,-5.1929,-5.1628,-5.0979,-5.0214,-4.9508,-4.8862,-4.8141,-4.7782,-4.7782,-4.7709,-4.768,-4.7622,-4.6983,-4.6676,-4.6633,-4.6113,-4.588,-4.588,-4.588,-4.588,-4.588,-4.588,-4.588,-4.588,-4.588,-4.588,-4.588,-4.588,-4.588,-4.588,-4.588,-4.588,-4.588,-4.588,-4.588,-4.588,-4.588,-4.588,-4.588,-4.588,-4.588,-4.588,-4.588,-4.588,-4.588,-4.588,-4.588,-4.588,-4.588,-4.588,-4.588,-4.588,-4.588,-4.588,-4.588,-4.5822,-4.5285,-4.4095,-4.2832,-4.2092,-4.2092,-4.2165,-4.2702,-4.3834,-4.2803,-4.2731,-4.3863,-4.2702,-4.2092,-4.2092,-4.2092,-4.2092,-4.2092,-4.2092,-4.1619,-4.9925,0.0,0.0,0.0,-4.9603,-4.9532,-4.9224,-4.9386,-4.9535,-4.9299,-4.9534,-4.9721,-4.9721,-4.977,-4.9824,0.0,-4.9883,-4.9876,-4.9876,-4.9876,-4.9876,-4.9876,-4.9876,-4.9876,-4.9876,-4.9876,-5.0089,-5.05,-5.0532,-5.0706,-5.1116,-5.1417,-5.1575,-5.1575,-5.227,-5.2649,-5.2649,-5.3028,-5.3091,-5.2777,-5.1598,-5.0925,-5.0622,-4.9427,-4.8682,-4.8333,-4.8333,-4.8116,-4.7753,-4.7491,-4.7158,-4.6749,-4.6534,-4.6214,-4.588,-4.588,-4.588,-4.588,-4.588,-4.588,-4.588,-4.588,-4.588,-4.588,-4.588,-4.588,-4.588,-4.588,-4.588,-4.588,-4.588,-4.588,-4.588,-4.588,-4.588,-4.588,-4.588,-4.588,-4.588,-4.588,-4.588,-4.588,-4.588,-4.588,-4.588,-4.588,-4.588,-4.588,-4.588,-4.588,-4.588,-4.588,-4.5532,-4.4951,-4.4066,-4.3137,-4.2469,-4.2121,-4.2426,-4.2861,-4.3398,-4.2905,-4.2861,-4.3398,-4.2542,-4.2092,-4.2092,-4.2092,-4.2092,-4.2092,-4.2092,-4.1269,-4.9937,0.0,0.0,-4.9761,-4.9764,-4.9709,-4.9517,-4.9629,-4.9738,-4.9646,-4.9789,-4.9876,-4.9876,-4.9876,-4.9876,-4.9876,-4.9876,-4.9876,-4.9876,-4.9876,-4.9876,-4.9876,-4.9876,-4.9876,-4.9876,-5.0089,-5.0421,-5.0967,-5.1148,-5.148,-5.1986,-5.2207,-5.2317,-5.2317,-5.3013,-5.3376,-5.3376,-5.3866,-5.4001,-5.3785,-5.2486,-5.1804,-5.1573,-5.0283,-4.9422,-4.8986,-4.8986,-4.8725,-4.829,-4.8116,-4.7767,-4.7271,-4.6923,-4.6548,-4.6127,-4.5953,-4.588,-4.588,-4.588,-4.588,-4.588,-4.588,-4.588,-4.588,-4.588,-4.588,-4.588,-4.588,-4.588,-4.588,-4.588,-4.588,-4.588,-4.588,-4.588,-4.588,-4.588,-4.588,-4.588,-4.588,-4.588,-4.588,-4.588,-4.588,-4.588,-4.588,-4.588,-4.588,-4.588,-4.588,-4.588,-4.588,-4.5285,-4.4705,-4.4269,-4.3471,-4.2803,-4.2382,-4.26,-4.2818,-4.2977,-4.2832,-4.2818,-4.2992,-4.2397,-4.2092,-4.2092,-4.2092,-4.2092,-4.2092,-4.2092,-4.1184,0.0,0.0,-4.9733,-4.9876,-4.9889,-4.971,-4.907,-4.9449,-4.9694,-4.9047,-4.9457,-4.9876,-4.9876,-4.9876,-4.9876,-4.9876,-4.9876,-4.9876,-4.9876,-4.9876,-4.9876,-4.9876,-4.9876,-4.9876,0.0,-5.0548,-5.0999,-5.1015,-5.1591,-5.1986,-5.2017,-5.2681,-5.3076,-5.3076,-5.3724,-5.4071,-5.4071,-5.4087,-5.3742,-5.3009,-5.226,-5.1527,-5.0807,-5.0057,-4.9717,-4.9654,-4.9654,-4.964,-4.9567,-4.8957,-4.8682,-4.8503,-4.7256,-4.6778,-4.6676,-4.6113,-4.588,-4.588,-4.588,-4.588,-4.588,-4.588,-4.588,-4.588,-4.588,-4.588,-4.588,-4.588,-4.588,-4.588,-4.588,-4.588,-4.588,-4.588,-4.588,-4.588,-4.588,-4.588,-4.588,-4.588,-4.588,-4.588,-4.588,-4.588,-4.588,-4.588,-4.588,-4.588,-4.588,-4.588,-4.588,-4.588,-4.5285,-4.4879,-4.4864,-4.3718,-4.2977,-4.2963,-4.244,-4.2382,-4.2977,-4.244,-4.2397,-4.2977,-4.2397,-4.2092,-4.2092,-4.2092,-4.2092,-4.2092,-4.2092,-4.1535,-4.9975,0.0,-4.9823,-4.9904,-4.9883,-4.9852,-4.9615,-4.9758,-4.9852,-4.9615,-4.969,-4.9783,-4.9783,-4.9783,-4.9783,-4.9783,-4.985,-4.9876,-4.9876,-4.9876,-4.9876,-4.9876,-4.9876,0.0,0.0,0.0,0.0,-5.1622,-5.2333,-5.2934,-5.3376,-5.3629,-5.3755,-5.3755,-5.3976,-5.4103,-5.4103,-5.4103,-5.3742,-5.298,-5.1773,-5.0793,-5.0057,-4.9815,-4.9717,-4.9717,-4.9717,-4.9717,-4.9654,-4.9451,-4.9103,-4.8682,-4.8213,-4.7532,-4.6763,-4.6592,-4.6243,-4.588,-4.588,-4.588,-4.588,-4.588,-4.588,-4.588,-4.588,-4.588,-4.588,-4.588,-4.588,-4.588,-4.588,-4.588,-4.588,-4.588,-4.588,-4.588,-4.588,-4.588,-4.588,-4.588,-4.588,-4.588,-4.588,-4.588,-4.588,-4.588,-4.588,-4.588,-4.588,-4.588,-4.588,-4.588,-4.5692,-4.5372,-4.4922,-4.4501,-4.3892,-4.305,-4.2803,-4.26,-4.2411,-4.2208,-4.2194,-4.2397,-4.2194,-4.2092,-4.2092,-4.2092,-4.2092,-4.2092,-4.2092,-4.1577,-4.9946,-4.9879,-4.9839,-4.9899,-4.9876,-4.9876,-4.9876,-4.9876,-4.9876,-4.9876,-4.9773,-4.9695,-4.9695,-4.9671,-4.9641,-4.9641,-4.9904,-5.0064,-4.9849,-5.0055,-5.0136,-4.9916,-4.9876,-4.9876,0.0,0.0,0.0,-5.197,-5.2918,-5.3645,-5.4071,-5.4103,-5.4103,-5.4103,-5.4103,-5.4103,-5.4103,-5.3829,-5.3186,-5.2185,-5.0981,-5.0154,-4.9717,-4.9717,-4.9717,-4.9717,-4.9717,-4.9717,-4.9717,-4.9717,-4.9436,-4.9045,-4.8812,-4.8087,-4.7143,-4.6865,-4.6432,-4.588,-4.588,-4.588,-4.588,-4.588,-4.588,-4.588,-4.588,-4.588,-4.588,-4.588,-4.588,-4.588,-4.588,-4.588,-4.588,-4.588,-4.588,-4.588,-4.588,-4.588,-4.588,-4.588,-4.588,-4.588,-4.588,-4.588,-4.588,-4.588,-4.588,-4.588,-4.588,-4.588,-4.588,-4.588,-4.588,-4.5706,-4.5271,-4.5024,-4.4545,-4.3718,-4.3239,-4.2818,-4.244,-4.2208,-4.2092,-4.2092,-4.2092,-4.2092,-4.2092,-4.2092,-4.2092,-4.2092,-4.2092,-4.1577,-4.9883,-4.9807,-4.9715,-4.9876,-4.9876,-4.9876,-4.9876,-4.9876,-4.9916,-4.9868,-4.9786,-4.9705,0.0,0.0,-4.9496,-4.9496,-5.0082,-5.0339,-4.978,-5.0305,-5.0531,0.0,0.0,0.0,0.0,0.0,0.0,-5.2017,0.0,-5.4103,-5.4103,-5.4103,-5.4103,-5.4103,-5.4044,-5.4044,-5.4044,-5.329,-5.2185,-5.0807,-5.0042,-4.9717,-4.9717,-4.9717,-4.9717,-4.9717,-4.9717,-4.9717,-4.9717,-4.9717,-4.9717,-4.9611,-4.9016,-4.8362,-4.7709,-4.71,-4.6461,-4.588,-4.588,-4.588,-4.588,-4.588,-4.588,-4.588,-4.588,-4.588,-4.588,-4.588,-4.588,-4.588,-4.588,-4.588,-4.588,-4.588,-4.588,-4.588,-4.588,-4.588,-4.588,-4.588,-4.588,-4.588,-4.588,-4.588,-4.588,-4.588,-4.588,-4.588,-4.588,-4.588,-4.588,-4.588,-4.588,-4.588,-4.588,-4.53,-4.4922,-4.4879,-4.3732,-4.3021,-4.2992,-4.2411,-4.2092,-4.2092,-4.2092,-4.2092,-4.2092,-4.2092,-4.2092,-4.2092,-4.2092,-4.1577,-4.9904,-4.9875,-4.9851,-4.9868,-4.9876,-4.9876,-4.9876,-4.9876,-4.9891,-4.9777,-4.9648,-4.9488,0.0,0.0,0.0,-4.9496,-4.9812,0.0,-4.9882,-4.9986,0.0,-4.9916,0.0,-4.9876,-4.9876,-5.118,0.0,0.0,-5.3297,-5.4103,-5.4103,-5.4103,-5.4103,-5.4103,-5.3552,-5.329,-5.329,-5.2002,-5.1169,-5.0807,-5.0042,-4.9717,-4.9717,-4.9717,-4.9717,-4.9717,-4.9717,-4.9717,-4.9717,-4.9717,-4.9717,-4.9654,-4.9494,-4.8754,-4.7753,-4.7608,-4.6838,-4.588,-4.588,-4.588,-4.588,-4.588,-4.588,-4.588,-4.588,-4.588,-4.588,-4.588,-4.588,-4.588,-4.588,-4.588,-4.588,-4.588,-4.588,-4.588,-4.588,-4.588,-4.588,-4.588,-4.588,-4.588,-4.588,-4.588,-4.588,-4.588,-4.588,-4.588,-4.588,-4.588,-4.588,-4.588,-4.588,-4.588,-4.588,-4.5721,-4.5416,-4.4922,-4.4153,-4.3515,-4.3007,-4.2411,-4.2092,-4.2092,-4.2092,-4.2092,-4.2092,-4.2092,-4.2092,-4.2092,-4.2092,-4.1953,-4.9897,-4.9912,-4.9876,-4.9876,-4.9876,-4.9876,-4.9833,-4.9792,-4.9777,-4.9632,-4.9477,0.0,-4.9211,0.0,0.0,0.0,0.0,0.0,-4.983,-5.0085,-5.0214,0.0,-4.9876,0.0,-4.9876,-5.118,-5.2017,0.0,-5.3297,-5.4103,-5.4103,-5.4103,-5.4103,-5.4103,-5.3377,-5.2697,-5.2048,-5.1216,-5.0618,-5.0283,-4.9912,-4.9717,-4.9717,-4.9717,-4.9717,-4.9717,0.0,-4.9717,-4.9717,-4.9717,-4.9717,-4.9717,-4.9717,-4.8899,-4.7782,-4.7782,-4.6969,-4.588,-4.588,-4.588,-4.588,-4.588,-4.588,-4.588,-4.588,-4.588,-4.588,-4.588,-4.588,-4.588,-4.588,-4.588,-4.588,-4.588,-4.588,-4.588,-4.588,-4.588,-4.588,-4.588,-4.588,-4.588,-4.588,-4.588,-4.588,-4.588,-4.588,-4.588,-4.588,-4.588,-4.588,-4.588,-4.588,-4.588,-4.588,-4.588,-4.559,-4.4922,-4.4327,-4.3689,-4.3021,-4.2411,-4.2092,-4.2092,-4.2092,-4.2092,-4.2092,-4.2092,-4.2092,-4.2092,-4.2092,-4.1856,-4.9899,-4.9876,-4.9876,-4.9876,-4.9876,-4.9844,-4.9742,-4.9695,-4.9639,-4.9477,0.0,-4.921,-4.9176,-4.921,-4.9194,-4.9244,0.0,-5.0286,-4.9786,-5.0278,-5.0509,-4.9955,-4.9876,-4.9876,-4.9876,-5.118,-5.2017,-5.2017,-5.3297,-5.4103,-5.4103,-5.4103,-5.4001,-5.3813,-5.3186,-5.2139,-5.0665,-5.0665,-5.0331,-4.9717,-4.9717,-4.9717,-4.9717,-4.9717,-4.9717,-4.9717,0.0,0.0,-4.9717,-4.9717,-4.9717,-4.9717,-4.9717,-4.8899,-4.7782,-4.7782,-4.6969,-4.588,-4.588,-4.588,-4.588,-4.588,-4.588,-4.588,-4.588,-4.588,-4.588,-4.588,-4.588,-4.588,-4.588,-4.588,-4.588,-4.588,-4.588,-4.588,-4.588,-4.588,-4.588,-4.588,-4.588,-4.588,-4.588,-4.588,-4.588,-4.588,-4.588,-4.588,-4.588,-4.588,-4.588,-4.588,-4.588,-4.5851,-4.5764,-4.575,-4.5474,-4.4806,-4.4197,-4.3602,-4.3007,-4.2411,-4.2092,-4.2092,-4.2092,-4.2092,-4.2092,-4.2092,-4.2092,-4.2092,-4.2092,-4.1577,-4.9884,-4.9876,-4.9876,-4.9876,-4.9876,-4.9844,-4.9742,-4.9695,0.0,0.0,-4.9227,-4.9159,-4.907,-4.9136,-4.926,-4.9411,0.0,0.0,0.0,0.0,-5.0034,0.0,0.0,0.0,0.0,0.0,0.0,0.0,0.0,-5.4103,-5.4103,-5.4103,-5.3537,-5.2306,-5.217,-5.1388,-4.9912,-4.9912,-4.9815,-4.9717,-4.9717,-4.9717,-4.9717,-4.9717,-4.9717,-4.9717,-4.9717,0.0,-4.9717,-4.9717,-4.9717,-4.9717,-4.9717,-4.8899,-4.7782,-4.7782,-4.6969,-4.588,-4.588,-4.588,-4.588,-4.588,-4.588,-4.588,-4.588,-4.588,-4.588,-4.588,-4.588,-4.588,-4.588,-4.588,-4.588,-4.588,-4.588,-4.588,-4.588,-4.588,-4.588,-4.588,-4.588,-4.588,-4.588,-4.588,-4.588,-4.588,-4.588,-4.588,-4.588,-4.588,-4.588,-4.588,-4.588,-4.5663,-4.5111,-4.5053,-4.4792,-4.4182,-4.3529,-4.3108,-4.2992,-4.2411,-4.2092,-4.2092,-4.2092,-4.2092,-4.2092,-4.2092,-4.2092,-4.2092,-4.2092,-4.1577,-4.9876,-4.9876,-4.9876,-4.9876,-4.9876,-4.9827,-4.9632,0.0,0.0,0.0,-4.9082,-4.9076,-4.9007,0.0,0.0,0.0,0.0,0.0,0.0,0.0,0.0,0.0,0.0,0.0,0.0,0.0,0.0,0.0,0.0,-5.3724,-5.4087,-5.3742,-5.3038,-5.1926,-5.1527,-5.0793,-4.9717,-4.9717,-4.9717,-4.9717,-4.9717,-4.9717,-4.9717,-4.9717,-4.9717,-4.9717,-4.9717,0.0,-4.9717,-4.9717,-4.9717,-4.9688,-4.9306,-4.8609,-4.7738,-4.7404,-4.6693,-4.588,-4.588,-4.588,-4.588,-4.588,-4.588,-4.588,-4.588,-4.588,-4.588,-4.588,-4.588,-4.588,-4.588,-4.588,-4.588,-4.588,-4.588,-4.588,-4.588,-4.588,-4.588,-4.588,-4.588,-4.588,-4.588,-4.588,-4.588,-4.588,-4.588,-4.588,-4.588,-4.588,-4.588,-4.588,-4.588,-4.5619,-4.4937,-4.4879,-4.4487,-4.3529,-4.3166,-4.2847,-4.2542,-4.2252,-4.2092,-4.2092,-4.2092,-4.2092,-4.2092,-4.2092,-4.2092,-4.2092,-4.2092,-4.1577,-4.9924,-4.9876,-4.9876,-4.9876,-4.9876,-4.9826,-4.9574,-4.9496,0.0,0.0,-4.9001,-4.9001,-4.9001,0.0,0.0,0.0,0.0,0.0,0.0,0.0,0.0,0.0,0.0,0.0,0.0,0.0,0.0,0.0,0.0,0.0,-5.384,-5.3465,-5.2771,-5.1712,-5.1263,-5.0618,-4.9717,-4.9717,-4.9717,-4.9717,-4.9717,-4.9717,-4.9717,-4.9717,-4.9717,-4.9717,-4.9717,0.0,0.0,-4.9717,-4.9717,-4.9611,-4.8972,-4.8333,-4.7709,-4.7071,-4.6432,-4.588,-4.588,-4.588,-4.588,-4.588,-4.588,-4.588,-4.588,-4.588,-4.588,-4.588,-4.588,-4.588,-4.588,-4.588,-4.588,-4.588,-4.588,-4.588,-4.588,-4.588,-4.588,-4.588,-4.588,-4.588,-4.588,-4.588,-4.588,-4.588,-4.588,-4.588,-4.588,-4.588,-4.5822,-4.5692,-4.5677,-4.5401,-4.4748,-4.456,-4.3993,-4.2876,-4.2803,-4.2586,-4.2121,-4.2092,-4.2092,-4.2092,-4.2092,-4.2092,-4.2092,-4.2092,-4.2092,-4.2092,-4.2092,-4.1577,-4.9883,-4.9876,-4.9876,-4.9876,-4.9876,-4.9826,-4.9574,0.0,0.0,-4.907,-4.9001,-4.9001,-4.9001,-4.9021,-4.9056,0.0,0.0,-4.935,0.0,0.0,0.0,0.0,0.0,0.0,0.0,0.0,0.0,0.0,0.0,0.0,-5.3098,-5.3683,-5.3053,-5.0996,-5.1481,-5.1107,-4.9717,-4.9717,-4.9717,-4.9717,-4.9717,-4.9717,-4.9717,-4.9717,-4.9717,-4.9717,-4.9717,0.0,0.0,-4.9717,-4.9717,-4.9611,-4.8972,-4.8333,-4.7709,-4.7071,-4.6432,-4.588,-4.588,-4.588,-4.588,-4.588,-4.588,-4.588,-4.588,-4.588,-4.588,-4.588,-4.588,-4.588,-4.588,-4.588,-4.588,-4.588,-4.588,-4.588,-4.588,-4.588,-4.588,-4.588,-4.588,-4.588,-4.588,-4.588,-4.588,-4.588,-4.588,-4.588,-4.588,-4.588,-4.5648,-4.5039,-4.498,-4.4734,-4.4124,-4.3515,-4.2876,-4.2223,-4.2179,-4.215,-4.2092,-4.2092,-4.2092,-4.2092,-4.2092,-4.2092,-4.2092,-4.2092,-4.2092,-4.2092,-4.2092,-4.1577,-4.9906,-4.9876,-4.9876,-4.9876,-4.9896,-4.9823,-4.9548,0.0,0.0,-4.908,-4.9001,-4.9001,-4.9001,-4.9001,-4.9024,0.0,0.0,0.0,0.0,0.0,0.0,0.0,0.0,0.0,0.0,0.0,0.0,0.0,0.0,0.0,-5.1666,-5.1941,-5.1727,-5.0807,-5.065,-5.0268,-4.9717,-4.9717,-4.9717,-4.9717,-4.9717,-4.9717,-4.9717,-4.9717,-4.9717,-4.9717,-4.9717,0.0,0.0,-4.9717,-4.9451,-4.9045,-4.8406,-4.7767,-4.7129,-4.649,-4.6113,-4.588,-4.588,-4.588,-4.588,-4.588,-4.588,-4.588,-4.588,-4.588,-4.588,-4.588,-4.588,-4.588,-4.588,-4.588,-4.588,-4.588,-4.588,-4.588,-4.588,-4.588,-4.588,-4.588,-4.588,-4.588,-4.588,-4.588,-4.588,-4.588,-4.588,-4.5735,-4.5343,-4.5285,-4.5039,-4.4414,-4.4676,-4.4487,-4.3471,-4.3137,-4.2731,-4.2136,-4.2092,-4.2092,-4.2092,-4.2092,-4.2092,-4.2092,-4.2092,-4.2092,-4.2092,-4.2092,-4.2092,-4.2092,-4.2092,-4.1912,-4.9936,-4.9915,-4.9876,-4.9876,-4.9889,-4.9839,0.0,0.0,0.0,-4.906,-4.9001,-4.9001,-4.9001,-4.9001,-4.9001,0.0,0.0,-4.9157,0.0,0.0,0.0,0.0,0.0,0.0,0.0,0.0,0.0,0.0,0.0,0.0,0.0,-5.0274,-5.0283,-5.0475,-5.0187,-4.9912,-4.9717,-4.9717,-4.9717,-4.9717,-4.9717,-4.9717,-4.9717,-4.9717,-4.9717,-4.9717,0.0,0.0,0.0,-4.9393,-4.9016,-4.8377,-4.7753,-4.723,-4.6705,-4.6113,-4.588,-4.588,-4.588,-4.588,-4.588,-4.588,-4.588,-4.588,-4.588,-4.588,-4.588,-4.588,-4.588,-4.588,-4.588,-4.588,-4.588,-4.588,-4.588,-4.588,-4.588,-4.588,-4.588,-4.588,-4.588,-4.588,-4.588,-4.588,-4.588,-4.588,-4.5721,-4.5416,-4.4937,-4.4734,-4.4385,-4.3761,-4.4066,-4.3964,-4.3065,-4.2832,-4.2542,-4.2121,-4.2092,-4.2092,-4.2092,-4.2092,-4.2092,-4.2092,-4.2092,-4.2092,-4.2092,-4.2092,-4.2092,-4.2092,-4.2092,-4.2092,-4.9933,-4.9889,-4.9876,-4.9876,-4.9889,-4.9839,0.0,0.0,0.0,-4.906,-4.9001,-4.9001,-4.9001,-4.9001,-4.9001,-4.9001,-4.9001,0.0,0.0,0.0,0.0,0.0,0.0,0.0,0.0,0.0,0.0,0.0,0.0,0.0,0.0,-4.9139,-4.903,-4.9703,-5.0427,-5.0427,-4.9717,-4.9717,-4.9717,-4.9717,-4.9717,-4.9717,-4.9717,-4.9717,-4.9717,0.0,0.0,0.0,0.0,-4.8692,-4.8362,-4.7724,-4.7085,-4.6792,-4.6705,-4.6113,-4.588,-4.588,-4.588,-4.588,-4.588,-4.588,-4.588,-4.588,-4.588,-4.588,-4.588,-4.588,-4.588,-4.588,-4.588,-4.588,-4.588,-4.588,-4.588,-4.588,-4.588,-4.588,-4.588,-4.588,-4.588,-4.588,-4.588,-4.588,-4.588,-4.588,-4.5329,-4.4893,-4.4879,-4.4371,-4.3747,-4.3065,-4.3007,-4.3007,-4.2992,-4.244,-4.2107,-4.2092,-4.2092,-4.2092,-4.2092,-4.2092,-4.2092,-4.2092,-4.2092,-4.2092,-4.2092,-4.2092,-4.2092,-4.2092,-4.2092,-4.2092,-4.9963,-4.999,-4.9991,-4.9991,-4.9963,-4.9909,-4.9676,0.0,0.0,-4.9189,-4.9063,-4.9001,-4.9001,-4.9001,-4.9001,-4.9001,-4.9001,0.0,0.0,0.0,0.0,0.0,0.0,0.0,0.0,0.0,0.0,0.0,0.0,0.0,0.0,-4.8213,-4.8566,-4.9688,-4.9912,-4.996,-4.9717,-4.9717,-4.9717,-4.9717,-4.9717,-4.9717,-4.9654,-4.9233,0.0,0.0,0.0,0.0,0.0,-4.8072,-4.7709,-4.7114,-4.6865,-4.6563,-4.6156,-4.5953,-4.588,-4.588,-4.588,-4.588,-4.588,-4.588,-4.588,-4.588,-4.588,-4.588,-4.588,-4.588,-4.588,-4.588,-4.588,-4.588,-4.588,-4.588,-4.588,-4.588,-4.588,-4.588,-4.588,-4.588,-4.588,-4.588,-4.588,-4.588,-4.5721,-4.5271,-4.5024,-4.4574,-4.3703,-4.3427,-4.3065,-4.244,-4.2382,-4.2382,-4.2382,-4.2208,-4.2092,-4.2092,-4.2092,-4.2092,-4.2092,-4.2092,-4.2092,-4.2092,-4.2092,-4.2092,-4.2092,-4.2092,-4.2092,-4.2092,-4.1395,-4.1437,0.0,-4.9991,-5.0003,-5.0003,-4.9991,0.0,0.0,0.0,0.0,0.0,0.0,-4.9001,-4.9001,-4.9001,-4.9001,-4.9001,-4.9001,0.0,0.0,0.0,0.0,0.0,0.0,0.0,0.0,0.0,0.0,0.0,0.0,0.0,0.0,-4.7419,-4.7898,-4.8928,-4.8957,-4.8957,-4.8957,-4.8957,-4.8957,-4.8957,-4.8957,-4.8957,-4.8943,-4.8551,0.0,0.0,0.0,0.0,0.0,-4.7419,-4.7042,-4.6475,-4.6475,-4.6229,-4.588,-4.588,-4.588,-4.588,-4.588,-4.588,-4.588,-4.588,-4.588,-4.588,-4.588,-4.588,-4.588,-4.588,-4.588,-4.588,-4.588,-4.588,-4.588,-4.588,-4.588,-4.588,-4.588,-4.588,-4.588,-4.588,-4.588,-4.588,-4.588,-4.5677,-4.5358,-4.4951,-4.4472,-4.3892,-4.3094,-4.2789,-4.2513,-4.2136,-4.2092,-4.2092,-4.2092,-4.2092,-4.2092,-4.2092,-4.2092,-4.2092,-4.2092,-4.2092,-4.2092,-4.2092,-4.2092,-4.2092,-4.2092,-4.2092,-4.2092,-4.2092,-4.1179,-4.1106,0.0,-5.0005,0.0,0.0,0.0,0.0,0.0,0.0,0.0,0.0,0.0,0.0,-4.9001,-4.9001,-4.9001,-4.9001,-4.9001,0.0,0.0,0.0,0.0,0.0,0.0,0.0,0.0,0.0,0.0,0.0,0.0,0.0,0.0,-4.672,-4.7027,-4.7622,-4.7637,-4.7695,-4.7782,-4.7782,-4.7782,-4.7782,-4.7782,-4.7782,-4.7782,-4.7738,0.0,0.0,0.0,0.0,0.0,-4.672,-4.6417,-4.588,-4.588,-4.588,-4.588,-4.588,-4.588,-4.588,-4.588,-4.588,-4.588,-4.588,-4.588,-4.588,-4.588,-4.588,-4.588,-4.588,-4.588,-4.588,-4.588,-4.588,-4.588,-4.588,-4.588,-4.588,-4.588,-4.588,-4.588,-4.588,-4.588,-4.5866,-4.5822,-4.53,-4.485,-4.4763,-4.3747,-4.2977,-4.2934,-4.244,-4.2092,-4.2092,-4.2092,-4.2092,-4.2092,-4.2092,-4.2092,-4.2092,-4.2092,-4.2092,-4.2092,-4.2092,-4.2092,-4.2092,-4.2092,-4.2092,-4.2092,-4.2049,-4.2034,-4.2005,-4.1256,-4.0937,-4.9995,0.0,-5.0,-5.0,-5.0001,-4.997,0.0,0.0,0.0,0.0,0.0,0.0,0.0,-4.9001,-4.9001,-4.9001,0.0,0.0,0.0,0.0,0.0,0.0,0.0,0.0,0.0,0.0,0.0,0.0,0.0,0.0,0.0,-4.6113,-4.6171,-4.633,-4.633,-4.6795,-4.7767,-4.7782,-4.7782,-4.7782,-4.7782,-4.7782,-4.7767,-4.7274,0.0,0.0,0.0,0.0,-4.6113,-4.6113,-4.6026,-4.588,-4.588,-4.588,-4.588,-4.588,-4.588,-4.588,-4.588,-4.588,-4.588,-4.588,-4.588,-4.588,-4.588,-4.588,-4.588,-4.588,-4.588,-4.588,-4.588,-4.588,-4.588,-4.588,-4.588,-4.588,-4.588,-4.588,-4.588,-4.588,-4.588,-4.5721,-4.5213,-4.498,-4.456,-4.3587,-4.3181,-4.2818,-4.2368,-4.2179,-4.2092,-4.2092,-4.2092,-4.2092,-4.2092,-4.2092,-4.2092,-4.2092,-4.2092,-4.2092,-4.2092,-4.2092,-4.2092,-4.2092,-4.2092,-4.2092,-4.2092,-4.1584,-4.1337,-4.1308,-3.9927,-3.9302,-5.0011,-5.0011,-5.0011,-5.0011,-5.0011,-5.0011,-5.0011,0.0,0.0,0.0,0.0,0.0,0.0,0.0,0.0,0.0,0.0,0.0,0.0,0.0,0.0,0.0,0.0,0.0,0.0,0.0,0.0,0.0,0.0,0.0,0.0,-4.588,-4.588,-4.588,-4.588,-4.6214,-4.6896,-4.6911,-4.6911,-4.6911,-4.6911,-4.6911,-4.6896,-4.6548,-4.6403,0.0,0.0,0.0,-4.588,-4.588,-4.588,-4.588,-4.588,-4.588,-4.588,-4.588,-4.588,-4.588,-4.588,-4.588,-4.588,-4.588,-4.588,-4.588,-4.588,-4.588,-4.588,-4.588,-4.588,-4.588,-4.588,-4.588,-4.588,-4.588,-4.588,-4.588,-4.588,-4.588,-4.5793,-4.5488,-4.543,-4.5227,-4.4589,-4.4211,-4.3776,-4.3094,-4.276,-4.2469,-4.2136,-4.2092,-4.2092,-4.2092,-4.2092,-4.2092,-4.2092,-4.2092,-4.2092,-4.2092,-4.2092,-4.2092,-4.2092,-4.2092,-4.2092,-4.2092,-4.1802,-4.1642,-4.1642,-4.096,-4.0641,-4.0612,-3.9055,-3.8355,-5.0011,-4.9992,-4.9985,-4.9999,-5.0011,-5.0011,-5.0011,0.0,0.0,0.0,0.0,0.0,0.0,-4.8673,0.0,0.0,0.0,0.0,0.0,0.0,0.0,0.0,0.0,0.0,0.0,0.0,0.0,0.0,0.0,0.0,0.0,-4.588,-4.588,-4.588,-4.588,-4.588,-4.588,-4.588,-4.588,-4.588,-4.588,-4.588,-4.588,-4.588,-4.588,0.0,0.0,0.0,-4.588,-4.588,-4.588,-4.588,-4.588,-4.588,-4.588,-4.588,-4.588,-4.588,-4.588,-4.588,-4.588,-4.588,-4.588,-4.588,-4.588,-4.588,-4.588,-4.588,-4.588,-4.588,-4.588,-4.588,-4.588,-4.588,-4.588,-4.588,-4.588,-4.5808,-4.5561,-4.4995,-4.4806,-4.456,-4.395,-4.3369,-4.2963,-4.2876,-4.2426,-4.2092,-4.2092,-4.2092,-4.2092,-4.2092,-4.2092,-4.2092,-4.2092,-4.2092,-4.2092,-4.2092,-4.2092,-4.2049,-4.1947,-4.1947,-4.1903,-4.1802,-4.1236,-4.0945,-4.0945,-4.0278,-3.9958,-3.9944,-3.8574,-3.7868,-5.0011,-5.0009,-5.0011,-5.0002,-5.0011,-5.0011,-5.0011,0.0,0.0,0.0,0.0,0.0,0.0,0.0,0.0,0.0,0.0,0.0,0.0,0.0,0.0,0.0,0.0,0.0,0.0,0.0,0.0,0.0,0.0,0.0,0.0,0.0,-4.588,-4.588,-4.588,-4.588,-4.588,-4.588,-4.588,-4.588,-4.588,-4.588,-4.588,-4.588,-4.588,0.0,0.0,-4.588,-4.588,-4.588,-4.588,-4.588,-4.588,-4.588,-4.588,-4.588,-4.588,-4.588,-4.588,-4.588,-4.588,-4.588,-4.588,-4.588,-4.588,-4.588,-4.588,-4.588,-4.588,-4.588,-4.588,-4.588,-4.588,-4.588,-4.588,-4.588,-4.588,-4.5445,-4.501,-4.4908,-4.4472,-4.3921,-4.3253,-4.3065,-4.2818,-4.231,-4.215,-4.2092,-4.2092,-4.2092,-4.2092,-4.2092,-4.2092,-4.2092,-4.2092,-4.2092,-4.2092,-4.2092,-4.2092,-4.1845,-4.1279,-4.125,-4.0989,-4.0423,-4.0307,-4.0249,-4.0249,-3.9639,-3.9334,-3.932,-3.8538,-3.7749,-5.0011,-5.0,-4.9892,-4.952,-4.9413,-4.9521,-4.9895,-4.9276,0.0,0.0,0.0,0.0,0.0,0.0,0.0,0.0,0.0,0.0,0.0,0.0,0.0,0.0,0.0,0.0,0.0,0.0,0.0,0.0,0.0,0.0,0.0,0.0,-4.588,-4.588,-4.588,-4.588,-4.588,-4.588,-4.588,-4.588,-4.588,-4.588,-4.588,-4.588,-4.588,-4.588,0.0,-4.588,-4.588,-4.588,-4.588,-4.588,-4.588,-4.588,-4.588,-4.588,-4.588,-4.588,-4.588,-4.588,-4.588,-4.588,-4.588,-4.588,-4.588,-4.588,-4.588,-4.588,-4.588,-4.588,-4.588,-4.588,-4.588,-4.588,-4.588,-4.5779,-4.5416,-4.5111,-4.469,-4.3993,-4.3645,-4.3253,-4.2615,-4.2513,-4.2411,-4.2136,-4.2092,-4.2092,-4.2092,-4.2092,-4.2092,-4.2092,-4.2092,-4.2092,-4.2092,-4.1758,-4.1555,-4.1555,-4.1555,-4.125,-4.0583,-4.0554,-4.0408,-4.0104,-3.9784,-3.961,-3.961,-3.8971,-3.8667,-3.8652,-3.7863,-3.7039,-5.0011,-4.9997,-4.9846,-4.9286,0.0,-4.9202,-4.9442,-4.8729,0.0,0.0,0.0,0.0,0.0,0.0,0.0,0.0,0.0,0.0,0.0,0.0,0.0,0.0,0.0,0.0,0.0,0.0,0.0,0.0,0.0,0.0,0.0,0.0,-4.588,-4.588,-4.588,-4.588,-4.588,-4.588,-4.588,-4.588,-4.588,-4.588,-4.588,-4.588,-4.588,-4.588,-4.588,-4.588,-4.588,-4.588,-4.588,-4.588,-4.588,-4.588,-4.588,-4.588,-4.588,-4.588,-4.588,-4.588,-4.588,-4.588,-4.588,-4.588,-4.588,-4.588,-4.588,-4.588,-4.588,-4.588,-4.588,-4.588,-4.5837,-4.5692,-4.5648,-4.5474,-4.4821,-4.456,-4.4153,-4.3181,-4.2876,-4.2629,-4.2179,-4.2092,-4.2092,-4.2092,-4.2092,-4.2092,-4.2092,-4.2092,-4.2092,-4.2092,-4.1961,-4.1802,-4.1642,-4.1149,-4.08,-4.0655,-4.0786,-4.0568,-3.9915,-3.9886,-3.9813,-3.9654,-3.9204,-3.8971,-3.8971,-3.8449,-3.8202,-3.8165,-3.7323,-3.6517,-5.0011,-4.9983,-4.9999,-4.9938,-4.9933,0.0,-4.8346,-4.847,0.0,-4.7965,0.0,0.0,0.0,0.0,0.0,0.0,0.0,0.0,0.0,0.0,0.0,0.0,0.0,0.0,0.0,0.0,0.0,0.0,0.0,0.0,0.0,0.0,0.0,-4.588,-4.588,-4.588,-4.588,-4.588,-4.588,-4.588,-4.588,-4.588,-4.588,-4.588,-4.588,-4.588,-4.588,-4.588,-4.588,-4.588,-4.588,-4.588,-4.588,-4.588,-4.588,-4.588,-4.588,-4.588,-4.588,-4.588,-4.588,-4.588,-4.588,-4.588,-4.588,-4.588,-4.588,-4.588,-4.588,-4.588,-4.588,-4.588,-4.5721,-4.5111,-4.4951,-4.4792,-4.4182,-4.3573,-4.3108,-4.3007,-4.2542,-4.215,-4.2107,-4.2092,-4.2092,-4.2092,-4.2092,-4.2092,-4.2092,-4.2092,-4.2092,-4.2092,-4.1541,-4.0916,-4.0292,-4.0191,-3.9929,-3.9363,-3.9857,-3.99,-3.9291,-3.9262,-3.8971,-3.8347,-3.8289,-3.8275,-3.8275,-3.8217,-3.8202,-3.8165,-3.7323,-3.6858,-5.0022,-4.9675,-4.9274,-4.9061,-4.9154,0.0,0.0,-4.8064,-4.7671,-4.7684,-4.7353,0.0,0.0,0.0,0.0,0.0,0.0,0.0,0.0,0.0,0.0,0.0,0.0,0.0,0.0,0.0,0.0,0.0,0.0,0.0,0.0,0.0,0.0,-4.588,-4.588,-4.588,-4.588,-4.588,-4.588,-4.588,-4.588,-4.588,-4.588,-4.588,-4.588,-4.588,-4.588,-4.588,-4.588,-4.588,-4.588,-4.588,-4.588,-4.588,-4.588,-4.588,-4.588,-4.588,-4.588,-4.588,-4.588,-4.588,-4.588,-4.588,-4.588,-4.588,-4.588,-4.588,-4.559,-4.5358,-4.5779,-4.5576,-4.5198,-4.4937,-4.4603,-4.4153,-4.3515,-4.3166,-4.2876,-4.2513,-4.2252,-4.2092,-4.2092,-4.2092,-4.2092,-4.2092,-4.2092,-4.2092,-4.2092,-4.2092,-4.1932,-4.1512,-4.0873,-4.022,-3.9596,-3.9538,-3.9276,-3.8623,-3.9175,-3.9247,-3.8609,-3.858,-3.8463,-3.8202,-3.8202,-3.8202,-3.8202,-3.8202,-3.7924,-3.7414,-3.7606,-3.6858,-4.9742,-4.9303,-4.8827,-4.8478,0.0,0.0,-4.8073,-4.759,-4.7121,-4.6889,-4.6634,0.0,0.0,0.0,0.0,0.0,0.0,0.0,0.0,0.0,0.0,0.0,0.0,0.0,0.0,0.0,0.0,0.0,0.0,0.0,0.0,0.0,0.0,0.0,-4.588,-4.588,-4.588,-4.588,-4.588,-4.588,-4.588,-4.588,-4.588,-4.588,-4.588,-4.588,-4.588,-4.588,-4.588,-4.588,-4.588,-4.588,-4.588,-4.588,-4.588,-4.588,-4.588,-4.588,-4.588,-4.588,-4.588,-4.588,-4.588,-4.588,-4.588,-4.588,-4.5837,-4.5634,-4.5242,-4.4951,-4.5213,-4.4951,-4.4545,-4.4342,-4.3964,-4.35,-4.2847,-4.2716,-4.2586,-4.2179,-4.2092,-4.2092,-4.2092,-4.2092,-4.2092,-4.2092,-4.2092,-4.202,-4.1802,-4.1787,-4.1453,-4.0597,-4.0089,-3.9567,-3.8942,-3.8884,-3.8696,-3.8231,-3.8638,-3.8681,-3.8217,-3.8202,-3.8202,-3.8202,-3.8202,-3.8202,-3.8202,-3.8202,-3.7886,-3.7323,-3.7644,-3.6688,-4.9124,-4.897,-4.8887,0.0,0.0,0.0,-4.629,-4.6943,-4.7323,-4.5328,0.0,-4.609,-4.6075,0.0,0.0,0.0,0.0,0.0,0.0,0.0,0.0,0.0,0.0,0.0,0.0,0.0,0.0,0.0,0.0,0.0,0.0,0.0,0.0,0.0,-4.588,-4.588,-4.588,-4.588,-4.588,-4.588,-4.588,-4.588,-4.588,-4.588,-4.588,-4.588,-4.588,-4.588,-4.588,-4.588,-4.588,-4.588,-4.588,-4.588,-4.588,-4.588,-4.588,-4.588,-4.588,-4.588,-4.588,-4.588,-4.588,-4.588,-4.588,-4.588,-4.5735,-4.5068,-4.4879,-4.4734,-4.4139,-4.3979,-4.3805,-4.3152,-4.2992,-4.2818,-4.2223,-4.2092,-4.2092,-4.2092,-4.2092,-4.2092,-4.2092,-4.2092,-4.2092,-4.2092,-4.2092,-4.1845,-4.1178,-4.1091,-4.0597,-3.9334,-3.9189,-3.8928,-3.826,-3.8202,-3.8202,-3.8202,-3.8202,-3.8202,-3.8202,-3.8202,-3.8202,-3.8202,-3.8202,-3.8202,-3.8202,-3.8202,-3.8165,-3.815,-3.7285,-3.6399,-4.9138,-4.8431,0.0,-4.8093,0.0,0.0,0.0,-4.6085,0.0,0.0,0.0,0.0,0.0,0.0,0.0,0.0,0.0,0.0,0.0,0.0,0.0,0.0,0.0,0.0,0.0,0.0,0.0,0.0,0.0,0.0,0.0,0.0,0.0,0.0,-4.588,-4.588,-4.588,-4.588,-4.588,-4.588,-4.588,-4.588,-4.588,-4.588,-4.588,-4.588,-4.588,-4.588,-4.588,-4.588,-4.588,-4.588,-4.588,-4.588,-4.588,-4.588,-4.588,-4.588,-4.588,-4.588,-4.588,-4.588,-4.588,-4.5793,-4.5329,-4.5184,-4.5053,-4.4429,-4.3921,-4.3515,-4.334,-4.2977,-4.2716,-4.2934,-4.2673,-4.231,-4.2136,-4.2092,-4.2092,-4.2092,-4.2092,-4.2092,-4.2092,-4.2092,-4.1932,-4.1468,-4.1395,-4.1149,-4.0481,-4.0031,-3.9625,-3.9247,-3.8783,-3.842,-3.8217,-3.8202,-3.8202,-3.8202,-3.8202,-3.8202,-3.8202,-3.8202,-3.8202,-3.8202,-3.8202,-3.8202,-3.8202,-3.7567,-3.6961,-3.6385,-3.6108,-3.5237,-4.864,-4.7923,0.0,0.0,0.0,0.0,0.0,0.0,0.0,0.0,0.0,0.0,0.0,0.0,0.0,0.0,0.0,0.0,0.0,0.0,0.0,0.0,0.0,0.0,0.0,0.0,0.0,0.0,0.0,0.0,0.0,0.0,0.0,0.0,-4.575,-4.588,-4.588,-4.588,-4.588,-4.588,-4.588,-4.588,-4.588,-4.588,-4.588,-4.588,-4.588,-4.588,-4.588,-4.588,-4.588,-4.588,-4.588,-4.588,-4.588,-4.588,-4.588,-4.588,-4.588,-4.588,-4.5837,-4.5576,-4.5488,-4.5358,-4.4734,-4.4531,-4.44,-4.3776,-4.3297,-4.2934,-4.2702,-4.2368,-4.2179,-4.2557,-4.2353,-4.2092,-4.2092,-4.2092,-4.2092,-4.2092,-4.2092,-4.2092,-4.2092,-4.1874,-4.157,-4.1149,-4.067,-4.0191,-3.9784,-3.9189,-3.8797,-3.8797,-3.8449,-3.8202,-3.8202,-3.8202,-3.8202,-3.8202,-3.8202,-3.8202,-3.8202,-3.8202,-3.8202,-3.8202,-3.8202,-3.8037,-3.7682,-3.7491,-3.6961,-3.6108,-3.6464,-3.5909,-4.7712,0.0,0.0,0.0,0.0,0.0,0.0,0.0,0.0,0.0,0.0,0.0,0.0,0.0,0.0,0.0,0.0,0.0,0.0,0.0,0.0,0.0,0.0,0.0,0.0,0.0,0.0,0.0,0.0,0.0,0.0,0.0,0.0,0.0,-4.5401,-4.5721,-4.5721,-4.5721,-4.5721,0.0,-4.5721,-4.5721,-4.5721,-4.5837,-4.588,-4.588,-4.588,-4.588,-4.588,-4.588,-4.588,-4.588,-4.588,-4.588,-4.588,-4.588,-4.5851,-4.5793,-4.5793,-4.5764,-4.5619,-4.501,-4.4806,-4.469,-4.4081,-4.3906,-4.3761,-4.3094,-4.2919,-4.2774,-4.2237,-4.2092,-4.2092,-4.2092,-4.2092,-4.2092,-4.2092,-4.2092,-4.2092,-4.2092,-4.2049,-4.2005,-4.2005,-4.1453,-4.0989,-4.0931,-3.9886,-3.9117,-3.9117,-3.858,-3.8202,-3.8202,-3.8202,-3.8202,-3.8202,-3.8202,-3.8202,-3.8202,-3.8202,-3.8202,-3.8202,-3.8202,-3.8202,-3.8202,-3.8202,-3.781,-3.7014,-3.772,-3.7682,-3.6936,-3.7567,-3.7453,0.0,-4.5955,0.0,0.0,0.0,0.0,0.0,0.0,0.0,0.0,0.0,0.0,0.0,0.0,0.0,0.0,0.0,0.0,0.0,0.0,0.0,0.0,0.0,0.0,0.0,0.0,0.0,0.0,0.0,0.0,0.0,0.0,0.0,-4.4182,-4.4327,-4.44,-4.44,-4.44,-4.44,0.0,-4.44,-4.44,-4.4429,-4.543,-4.588,-4.588,-4.588,-4.588,-4.588,-4.588,-4.588,-4.588,-4.588,-4.588,-4.588,-4.588,-4.5561,-4.5097,-4.5097,-4.4792,-4.4371,-4.4226,-4.4182,-4.4066,-4.3398,-4.321,-4.3079,-4.2469,-4.2281,-4.2266,-4.2121,-4.2092,-4.2092,-4.2092,-4.2092,-4.2092,-4.2092,-4.2092,-4.2092,-4.2092,-4.1671,-4.1308,-4.1308,-4.0757,-4.0147,-3.9683,-3.8928,-3.842,-3.842,-3.8289,-3.8202,-3.8202,-3.8202,-3.8202,-3.8202,-3.8202,-3.8202,-3.8202,-3.8202,-3.8202,-3.8202,-3.8202,-3.8202,-3.8202,-3.8202,-3.8127,-3.7924,-3.7414,-3.7092,-3.6858,-3.5749,-3.5114,0.0,0.0,0.0,0.0,0.0,0.0,0.0,0.0,0.0,0.0,0.0,0.0,0.0,0.0,0.0,0.0,0.0,0.0,0.0,0.0,0.0,0.0,0.0,0.0,0.0,0.0,0.0,0.0,0.0,0.0,0.0,-4.3355,-4.3515,-4.3515,-4.3819,-4.3993,-4.3993,-4.3993,-4.3993,-4.3993,-4.3993,-4.3993,-4.4008,-4.4676,-4.498,-4.498,-4.498,-4.498,-4.498,-4.498,-4.498,-4.498,-4.498,-4.498,-4.498,-4.498,-4.4763,-4.4458,-4.4458,-4.4255,-4.3935,-4.3616,-4.3515,-4.3398,-4.276,-4.2571,-4.2498,-4.2179,-4.2092,-4.2092,-4.2092,-4.2092,-4.2092,-4.2092,-4.2092,-4.2092,-4.2092,-4.2092,-4.2005,-4.1686,-4.1337,-4.1004,-4.067,-4.0089,-3.945,-3.8812,-3.842,-3.8202,-3.8202,-3.8202,-3.8202,-3.8202,-3.8202,-3.8202,-3.8202,-3.8202,-3.8202,-3.8202,-3.8202,-3.8202,-3.8202,-3.8202,-3.8202,-3.8202,-3.781,-3.7362,-3.6947,-3.6517,-3.6082,-3.5709,-3.521,-3.4965,0.0,0.0,0.0,0.0,0.0,0.0,0.0,0.0,0.0,0.0,0.0,0.0,0.0,0.0,0.0,0.0,0.0,0.0,0.0,0.0,0.0,0.0,0.0,0.0,0.0,0.0,0.0,0.0,0.0,0.0,-4.2092,-4.2571,-4.2832,-4.2832,-4.3369,-4.366,-4.366,-4.366,-4.366,-4.366,-4.366,-4.366,-4.366,-4.366,-4.3776,-4.3993,-4.3993,-4.3993,-4.3993,-4.3993,-4.3993,-4.3993,-4.3993,-4.3993,-4.3993,-4.3993,-4.3921,-4.3819,-4.3819,-4.3747,-4.3573,-4.3007,-4.2832,-4.2745,-4.2237,-4.2092,-4.2092,-4.2092,-4.2092,-4.2092,-4.2092,-4.2092,-4.2092,-4.2092,-4.2005,-4.1918,-4.1918,-4.1918,-4.1729,-4.1062,-4.0844,-4.0554,-3.9886,-3.9363,-3.8841,-3.8289,-3.8202,-3.8202,-3.8202,-3.8202,-3.8202,-3.8202,-3.8202,-3.8202,-3.8202,-3.8202,-3.8202,-3.8202,-3.8202,-3.8202,-3.8202,-3.8202,-3.8202,-3.8202,-3.7323,-3.657,-3.5815,-3.5815,-3.54,-3.462,-3.5278,-3.5548,0.0,0.0,0.0,0.0,0.0,0.0,0.0,0.0,0.0,0.0,0.0,0.0,0.0,0.0,0.0,0.0,0.0,0.0,0.0,0.0,0.0,0.0,0.0,0.0,0.0,0.0,0.0,0.0,0.0,0.0,-4.2092,-4.2179,-4.2223,-4.2223,-4.2295,-4.2353,-4.2353,-4.2353,-4.2353,-4.2353,-4.2353,-4.2353,-4.2353,-4.2353,-4.2948,-4.3993,-4.3993,-4.3993,-4.3993,-4.3993,-4.3993,-4.3993,-4.3993,-4.3993,-4.3993,-4.3993,-4.3616,-4.3123,-4.3123,-4.2789,-4.2339,-4.2237,-4.2223,-4.2208,-4.2121,-4.2092,-4.2092,-4.2092,-4.2092,-4.2092,-4.2092,-4.2092,-4.2092,-4.2092,-4.1657,-4.1221,-4.1221,-4.1221,-4.1033,-4.0365,-3.9813,-3.9247,-3.8565,-3.8391,-3.8304,-3.8217,-3.8202,-3.8202,-3.8202,-3.8202,-3.8202,-3.8202,-3.8202,-3.8202,-3.8202,-3.8202,-3.8202,-3.8202,-3.8202,-3.8202,-3.8202,-3.8202,-3.8202,-3.8202,-3.7323,-3.6844,-3.6727,-3.6727,-3.6281,-3.5427,-3.5602,-3.5264,-4.3735,0.0,0.0,0.0,0.0,0.0,0.0,0.0,0.0,0.0,0.0,0.0,0.0,0.0,0.0,0.0,0.0,0.0,0.0,0.0,0.0,0.0,0.0,0.0,0.0,0.0,0.0,0.0,0.0,-4.2092,-4.2092,-4.2092,-4.2092,-4.2092,-4.2092,-4.2092,-4.2092,-4.2092,-4.2092,-4.2092,-4.2092,-4.2092,-4.2092,-4.2092,-4.2397,-4.2934,-4.2934,-4.2934,-4.2934,-4.2934,-4.2934,-4.2934,-4.2934,-4.2934,-4.2934,-4.2934,-4.2745,-4.2498,-4.2498,-4.2324,-4.2092,-4.2092,-4.2092,-4.2092,-4.2092,-4.2092,-4.2092,-4.2092,-4.2092,-4.2092,-4.2092,-4.1816,-4.1541,-4.1541,-4.1018,-4.0437,-4.0104,-4.0292,-4.035,-3.9712,-3.9088,-3.8551,-3.826,-3.8202,-3.8202,-3.8202,-3.8202,-3.8202,-3.8202,-3.8202,-3.8202,-3.8202,-3.8202,-3.8202,-3.8202,-3.8202,-3.8202,-3.8202,-3.8202,-3.8202,-3.8202,-3.8202,-3.8202,-3.8202,-3.7323,-3.6649,-3.6148,-3.5736,-3.5047,-3.4191,-3.4246,-3.4063,0.0,0.0,0.0,0.0,0.0,0.0,0.0,0.0,0.0,0.0,0.0,0.0,0.0,0.0,0.0,0.0,0.0,0.0,0.0,0.0,0.0,0.0,0.0,0.0,0.0,0.0,0.0,0.0,0.0,-4.2092,-4.2092,-4.2092,-4.2092,-4.2092,-4.2092,-4.2092,-4.2092,-4.2092,-4.2092,-4.2092,-4.2092,-4.2092,-4.2092,-4.2092,-4.2092,-4.2092,-4.2092,-4.2092,-4.2092,-4.2092,-4.2092,-4.2092,-4.2092,-4.2092,-4.2092,-4.2092,-4.2092,-4.2092,-4.2092,-4.2092,-4.2092,-4.2092,-4.2092,-4.2092,-4.2092,-4.2092,-4.2092,-4.2092,-4.2092,-4.2049,-4.1889,-4.1468,-4.1062,-4.0887,-4.035,-3.9755,-3.9305,-3.9421,-3.9479,-3.903,-3.8551,-3.8202,-3.8202,-3.8202,-3.8202,-3.8202,-3.8202,-3.8202,-3.8202,-3.8202,-3.8202,-3.8202,-3.8202,-3.8202,-3.8202,-3.8202,-3.8202,-3.8202,-3.8202,-3.8202,-3.8202,-3.8202,-3.8202,-3.8202,-3.7567,-3.6674,-3.5615,-3.4772,-3.3937,-3.3124,-3.3326,-3.3326,0.0,0.0,0.0,0.0,0.0,0.0,0.0,0.0,0.0,0.0,0.0,0.0,0.0,0.0,0.0,0.0,0.0,0.0,0.0,0.0,0.0,0.0,0.0,0.0,0.0,0.0,0.0,0.0,0.0,-4.2092,-4.2092,-4.2092,-4.2092,-4.2092,-4.2092,-4.2092,-4.2092,-4.2092,-4.2092,-4.2092,-4.2092,-4.2092,-4.2092,-4.2092,-4.2092,-4.2092,-4.2092,-4.2092,-4.2092,-4.2092,-4.2092,-4.2092,-4.2092,-4.2092,-4.2092,-4.2092,-4.2092,-4.2092,-4.2092,-4.2092,-4.2092,-4.2092,-4.2092,-4.2092,-4.2092,-4.2092,-4.2092,-4.2092,-4.2092,-4.1947,-4.1323,-4.112,-4.0945,-4.0292,-3.9683,-3.9233,-3.9218,-3.8725,-3.8289,-3.826,-3.8217,-3.8202,-3.8202,-3.8202,-3.8202,-3.8202,-3.8202,-3.8202,-3.8202,-3.8202,-3.8202,-3.8202,-3.8202,-3.8202,-3.8202,-3.8202,-3.8202,-3.8202,-3.8202,-3.8202,-3.8202,-3.8202,-3.8202,-3.8202,-3.8165,-3.7309,-3.5615,-3.4772,-3.3937,-3.3124,-3.3949,-3.3907,0.0,0.0,0.0,0.0,0.0,0.0,0.0,0.0,0.0,0.0,0.0,0.0,0.0,0.0,0.0,0.0,0.0,0.0,0.0,0.0,0.0,0.0,0.0,0.0,0.0,0.0,0.0,0.0,0.0,0.0,-4.2092,-4.1686,-4.1453,-4.1453,-4.1033,-4.0815,-4.0815,-4.0815,-4.0815,-4.0815,-4.125,-4.1453,-4.1468,-4.1903,-4.2092,-4.2092,-4.2092,-4.2092,-4.2092,-4.2092,-4.2092,-4.2092,-4.2092,-4.2092,-4.2092,-4.2092,-4.2092,-4.2092,-4.2092,-4.2092,-4.2092,-4.2092,-4.2092,-4.2092,-4.2092,-4.2092,-4.2005,-4.157,-4.1453,-4.1294,-4.0626,-4.0176,-3.9712,-3.9044,-3.8725,-3.8565,-3.8565,-3.8376,-3.8202,-3.8202,-3.8202,-3.8202,-3.8202,-3.8202,-3.8202,-3.8202,-3.8202,-3.8202,-3.8202,-3.8202,-3.8202,-3.8202,-3.8202,-3.8202,-3.8202,-3.8202,-3.8202,-3.8202,-3.8202,-3.8202,-3.8202,-3.8202,-3.8202,-3.8202,-3.7644,-3.7053,-3.6439,-3.5602,-3.4731,-3.3949,-3.3696,-3.3411,-4.4018,0.0,0.0,0.0,0.0,0.0,0.0,0.0,0.0,0.0,0.0,0.0,0.0,0.0,0.0,0.0,0.0,0.0,0.0,0.0,0.0,0.0,0.0,0.0,0.0,0.0,0.0,0.0,0.0,0.0,-4.1439,-4.1004,-4.0757,-4.0757,-4.0321,-4.0104,-4.0104,-4.0104,-4.0104,-4.0104,-4.0554,-4.0757,-4.0771,-4.1221,-4.1424,-4.1424,-4.1424,-4.1686,-4.2092,-4.2092,-4.2092,-4.2092,-4.2092,-4.2092,-4.2092,-4.2092,-4.2092,-4.2092,-4.2092,-4.2092,-4.2092,-4.2092,-4.1947,-4.1758,-4.1758,-4.1613,-4.1337,-4.0887,-4.0757,-4.0612,-3.9958,-3.9334,-3.8754,-3.8318,-3.8202,-3.8202,-3.8202,-3.8202,-3.8202,-3.8202,-3.8202,-3.8202,-3.8202,-3.8202,-3.8202,-3.8202,-3.8202,-3.8202,-3.8202,-3.8202,-3.8202,-3.8202,-3.8202,-3.8202,-3.8202,-3.8202,-3.8202,-3.8202,-3.8202,-3.8202,-3.8202,-3.8202,-3.8037,-3.7772,-3.7169,-3.6766,-3.6478,-3.5602,-3.4924,-3.4397,-3.3496,-3.3124,0.0,0.0,0.0,0.0,0.0,0.0,0.0,0.0,0.0,0.0,0.0,0.0,0.0,0.0,0.0,0.0,0.0,0.0,0.0,0.0,0.0,0.0,0.0,0.0,0.0,0.0,0.0,0.0,0.0,-4.0786,-4.0133,-4.0075,-4.006,-4.0046,-4.0046,-4.0046,-4.0046,-4.0046,-4.0046,-4.0046,-4.006,-4.0075,-4.0075,-4.0089,-4.0104,-4.0104,-4.0104,-4.0829,-4.2034,-4.2034,-4.2049,-4.2063,-4.2063,-4.2078,-4.2092,-4.2092,-4.2092,-4.2063,-4.2063,-4.2049,-4.2034,-4.2034,-4.1599,-4.1062,-4.1062,-4.0612,-4.0104,-4.0075,-4.0075,-3.9929,-3.9334,-3.8696,-3.8202,-3.8202,-3.8202,-3.8202,-3.8202,-3.8202,-3.8202,-3.8202,-3.8202,-3.8202,-3.8202,-3.8202,-3.8202,-3.8202,-3.8202,-3.8202,-3.8202,-3.8202,-3.8202,-3.8202,-3.8202,-3.8202,-3.8202,-3.8202,-3.8202,-3.8202,-3.8202,-3.8188,-3.8173,-3.8173,-3.7767,-3.688,-3.688,-3.6476,-3.5614,-3.48,-3.4439,-3.4397,-3.3496,-3.3124,-4.4542,0.0,0.0,0.0,0.0,0.0,0.0,0.0,0.0,0.0,0.0,0.0,0.0,0.0,0.0,0.0,0.0,0.0,0.0,0.0,0.0,0.0,0.0,0.0,0.0,0.0,0.0,0.0,-4.0379,-4.0292,-4.0104,-3.9683,-3.9233,-3.8739,-3.8725,-3.8725,-3.8725,-3.8725,-3.8725,-3.8739,-3.9218,-3.945,-3.9465,-3.99,-4.0104,-4.0104,-4.0104,-4.0307,-4.0655,-4.0655,-4.0945,-4.1381,-4.1381,-4.1671,-4.2092,-4.2092,-4.1787,-4.1381,-4.1381,-4.1062,-4.0655,-4.0655,-4.0525,-4.0379,-4.0379,-4.0249,-4.0002,-3.9567,-3.945,-3.9305,-3.8652,-3.8347,-3.8202,-3.8202,-3.8202,-3.8202,-3.8202,-3.8202,-3.8202,-3.8202,-3.8202,-3.8202,-3.8202,-3.8202,-3.8202,-3.8202,-3.8202,-3.8202,-3.8202,-3.8202,-3.8202,-3.8202,-3.8202,-3.8202,-3.8202,-3.8202,-3.8202,-3.8202,-3.8202,-3.8014,-3.7578,-3.7549,-3.7207,-3.6496,-3.6459,-3.61,-3.5324,-3.5301,-3.4965,-3.4397,-3.3496,-3.3124,-4.4542,-4.4497,0.0,0.0,0.0,0.0,0.0,-4.2893,0.0,0.0,0.0,0.0,0.0,0.0,0.0,0.0,0.0,0.0,0.0,0.0,0.0,0.0,0.0,0.0,0.0,0.0,0.0,-3.9741,-3.9726,-3.9596,-3.932,-3.8971,-3.8609,-3.8217,-3.8202,-3.8202,-3.8202,-3.8202,-3.8202,-3.8202,-3.8609,-3.8783,-3.8797,-3.9146,-3.9305,-3.9305,-3.9305,-3.9305,-3.9305,-3.9305,-3.9842,-4.067,-4.067,-4.0916,-4.1265,-4.1265,-4.1018,-4.067,-4.067,-4.0423,-4.0104,-4.0104,-3.9929,-3.9726,-3.9726,-3.9523,-3.9233,-3.8884,-3.8783,-3.8696,-3.8304,-3.8202,-3.8202,-3.8202,-3.8202,-3.8202,-3.8202,-3.8202,-3.8202,-3.8202,-3.8202,-3.8202,-3.8202,-3.8202,-3.8202,-3.8202,-3.8202,-3.8202,-3.8202,-3.8202,-3.8202,-3.8202,-3.8202,-3.8101,-3.7854,-3.7825,-3.7709,-3.7433,-3.7418,-3.7259,-3.691,-3.659,-3.6059,-3.5294,-3.4971,-3.4598,-3.4145,-3.4648,-3.4273,-3.3145,-3.2617,-3.2503,-4.4542,-4.4615,-4.4615,0.0,0.0,0.0,-4.2848,-4.2433,-4.1975,0.0,0.0,0.0,0.0,0.0,0.0,0.0,0.0,0.0,0.0,0.0,0.0,0.0,0.0,0.0,0.0,-3.9886,-3.9668,-3.9131,-3.9088,-3.8826,-3.8231,-3.8202,-3.8202,-3.8202,-3.8202,-3.8202,-3.8202,-3.8202,-3.8202,-3.8202,-3.8202,-3.8202,-3.8202,-3.8202,-3.8202,-3.8202,-3.8202,-3.8202,-3.8202,-3.8202,-3.8913,-4.0002,-4.0002,-4.0046,-4.0104,-4.0104,-4.006,-4.0002,-4.0002,-3.9944,-3.9886,-3.9886,-3.9523,-3.9088,-3.9088,-3.8681,-3.8202,-3.8202,-3.8202,-3.8202,-3.8202,-3.8202,-3.8202,-3.8202,-3.8202,-3.8202,-3.8202,-3.8202,-3.8202,-3.8202,-3.8202,-3.8202,-3.8202,-3.8202,-3.8202,-3.8202,-3.8144,-3.8101,-3.8101,-3.8043,-3.7984,-3.7984,-3.7984,-3.7781,-3.7244,-3.7201,-3.6939,-3.6344,-3.6301,-3.6272,-3.6199,-3.556,-3.4822,-3.3967,-3.319,-3.275,-3.275,-3.3362,-3.2922,-3.1549,-3.1427,-3.165,0.0,0.0,0.0,0.0,0.0,0.0,-4.4214,-4.3909,-4.3594,0.0,0.0,0.0,0.0,0.0,0.0,0.0,0.0,0.0,0.0,0.0,0.0,0.0,0.0,0.0,0.0,-3.8565,-3.8522,-3.8405,-3.8405,-3.8333,-3.8217,-3.8202,-3.8202,-3.8202,-3.8202,-3.8202,-3.8202,-3.8202,-3.8202,-3.8202,-3.8202,-3.8202,-3.8202,-3.8202,-3.8202,-3.8202,-3.8202,-3.8202,-3.8202,-3.8202,-3.8667,-3.9378,-3.9378,-3.9668,-4.0104,-4.0104,-3.9784,-3.9378,-3.9378,-3.903,-3.8565,-3.8565,-3.8492,-3.8405,-3.8405,-3.8304,-3.8202,-3.8202,-3.8202,-3.8202,-3.8202,-3.8202,-3.8202,-3.8202,-3.8202,-3.8202,-3.8202,-3.8202,-3.8202,-3.8202,-3.8202,-3.8202,-3.8202,-3.8202,-3.8202,-3.8202,-3.7796,-3.7491,-3.7491,-3.7012,-3.6678,-3.6678,-3.6678,-3.6635,-3.6519,-3.6504,-3.6446,-3.6315,-3.6301,-3.6083,-3.561,-3.5441,-3.5021,-3.4329,-3.3522,-3.3101,-3.3115,-3.2292,-3.2089,-3.2448,-3.1739,-3.1449,0.0,0.0,0.0,-4.4615,0.0,0.0,0.0,-4.3663,-4.3372,0.0,0.0,0.0,0.0,0.0,0.0,0.0,0.0,0.0,0.0,0.0,0.0,0.0,0.0,0.0,0.0,-3.8366,-3.8366,-3.8366,-3.8366,-3.8315,-3.8202,-3.8202,-3.8202,-3.8202,-3.8202,-3.8202,-3.8202,-3.8202,-3.8202,-3.8202,-3.8202,-3.8202,-3.8202,-3.8202,-3.8202,-3.8202,-3.8202,-3.8202,-3.8202,-3.8202,-3.8405,-3.8696,-3.8696,-3.8884,-3.9146,-3.9146,-3.8957,-3.8696,-3.8696,-3.8478,-3.8202,-3.8202,-3.8202,-3.8202,-3.8202,-3.8202,-3.8202,-3.8202,-3.8202,-3.8202,-3.8202,-3.8202,-3.8202,-3.8202,-3.8202,-3.8202,-3.8202,-3.8202,-3.8115,-3.781,-3.7752,-3.7752,-3.7752,-3.7752,-3.7651,-3.7302,-3.6997,-3.6809,-3.6809,-3.6519,-3.6301,-3.6301,-3.6301,-3.6185,-3.5865,-3.5836,-3.5706,-3.5386,-3.5357,-3.5227,-3.4893,-3.4505,-3.3762,-3.2698,-3.1905,-3.1516,-3.1516,-3.0919,-3.1044,-3.1771,-3.0966,-3.0746,0.0,0.0,0.0,0.0,0.0,-4.4367,0.0,0.0,0.0,0.0,0.0,0.0,0.0,0.0,0.0,0.0,0.0,0.0,0.0,0.0,0.0,0.0,0.0,0.0,0.0,-3.8679,-3.8591,-3.8501,-3.8532,-3.848,-3.8277,-3.8202,-3.8202,-3.824,-3.8202,-3.8144,-3.8028,-3.8028,-3.797,-3.7839,-3.7839,-3.7897,-3.8028,-3.8028,-3.8086,-3.8202,-3.8202,-3.8202,-3.8202,-3.8202,-3.8202,-3.8202,-3.8202,-3.8202,-3.8202,-3.8202,-3.8202,-3.8202,-3.8202,-3.8202,-3.8202,-3.8202,-3.8202,-3.8202,-3.8202,-3.8202,-3.8202,-3.8202,-3.8202,-3.8202,-3.8202,-3.8202,-3.8202,-3.8202,-3.8202,-3.8173,-3.8057,-3.8028,-3.7839,-3.723,-3.7114,-3.7114,-3.7114,-3.7114,-3.6925,-3.6388,-3.6199,-3.6127,-3.6127,-3.6025,-3.5938,-3.5938,-3.5938,-3.5735,-3.5261,-3.5218,-3.5,-3.4443,-3.4414,-3.4414,-3.4414,-3.3776,-3.2861,-3.1586,-3.0822,-3.0432,-3.0432,-3.0152,-3.0241,-3.0683,-3.0075,-3.003,0.0,0.0,0.0,0.0,-4.4615,0.0,0.0,0.0,0.0,0.0,0.0,0.0,0.0,0.0,0.0,0.0,0.0,0.0,0.0,0.0,0.0,0.0,0.0,0.0,0.0,0.0,-3.8832,-3.8509,-3.8624,-3.862,-3.8472,-3.8277,-3.8277,-3.8441,-3.8277,-3.7941,-3.7418,-3.7404,-3.7114,-3.6519,-3.6519,-3.6838,-3.7404,-3.7404,-3.7694,-3.8202,-3.8202,-3.8202,-3.8202,-3.8202,-3.8202,-3.8202,-3.8202,-3.8202,-3.8202,-3.8202,-3.8202,-3.8202,-3.8202,-3.8202,-3.8202,-3.8202,-3.8202,-3.8202,-3.8202,-3.8202,-3.8202,-3.8202,-3.8202,-3.8202,-3.8202,-3.8202,-3.8202,-3.8202,-3.8202,-3.8057,-3.752,-3.7404,-3.7215,-3.6548,-3.6417,-3.6417,-3.6417,-3.6417,-3.6402,-3.6315,-3.5822,-3.5508,-3.5508,-3.498,-3.4632,-3.4632,-3.4632,-3.4603,-3.453,-3.4516,-3.4486,-3.4414,-3.4414,-3.4414,-3.4414,-3.4298,-3.4182,-3.4011,-3.3241,-3.2791,-3.2791,-3.1439,-3.0482,-2.9934,-2.983,-2.9829,0.0,0.0,0.0,0.0,0.0,0.0,-4.4485,0.0,-4.381,0.0,0.0,0.0,0.0,0.0,0.0,0.0,0.0,0.0,0.0,0.0,0.0,0.0,0.0,0.0,0.0,0.0,0.0,0.0,0.0,-3.8742,-3.8509,-3.7994,-3.7754,-3.7923,-3.7375,-3.7019,-3.6895,-3.6772,-3.6591,-3.6301,-3.6301,-3.646,-3.6722,-3.6722,-3.6867,-3.7128,-3.752,-3.768,-3.7709,-3.8057,-3.8202,-3.8202,-3.8202,-3.8202,-3.8202,-3.8202,-3.8202,-3.8202,-3.8202,-3.8202,-3.8202,-3.8202,-3.8202,-3.8202,-3.8202,-3.8202,-3.8202,-3.8202,-3.8202,-3.8202,-3.8202,-3.8202,-3.8115,-3.7767,-3.768,-3.7506,-3.6867,-3.6722,-3.6533,-3.588,-3.5799,-3.5633,-3.527,-3.5517,-3.5633,-3.527,-3.498,-3.482,-3.482,-3.4574,-3.4414,-3.4414,-3.4414,-3.4414,-3.4414,-3.4414,-3.4414,-3.4414,-3.4414,-3.4414,-3.4414,-3.3962,-3.3485,-3.3066,-3.229,-3.1636,-3.122,-3.057,-3.0101,-2.9792,-2.9792,-2.9792,-4.3931,0.0,0.0,0.0,0.0,0.0,0.0,0.0,0.0,0.0,0.0,0.0,0.0,0.0,0.0,0.0,0.0,0.0,0.0,0.0,0.0,0.0,0.0,0.0,0.0,0.0,0.0,0.0,-3.8827,-3.8648,-3.8106,-3.7492,-3.7208,-3.7337,-3.6705,-3.6335,-3.628,-3.6125,-3.5967,-3.5793,-3.5793,-3.588,-3.604,-3.604,-3.6141,-3.633,-3.6823,-3.7041,-3.707,-3.7506,-3.7796,-3.7955,-3.7955,-3.8057,-3.8202,-3.8202,-3.8202,-3.8202,-3.8202,-3.8202,-3.8202,-3.8202,-3.8202,-3.8202,-3.8202,-3.8202,-3.8202,-3.8202,-3.8202,-3.8159,-3.7999,-3.7955,-3.7796,-3.7186,-3.7041,-3.6852,-3.6185,-3.604,-3.5865,-3.5261,-3.5145,-3.4951,-3.4486,-3.4791,-3.4951,-3.4486,-3.4414,-3.4414,-3.4414,-3.4414,-3.4414,-3.4414,-3.4414,-3.4414,-3.4414,-3.4414,-3.4414,-3.4414,-3.4182,-3.4079,-3.4079,-3.3311,-3.2648,-3.211,-3.1291,-3.0658,-3.0101,-2.9895,-2.9792,-2.9792,-2.9792,-2.9792,0.0,0.0,0.0,-4.3429,0.0,0.0,0.0,0.0,-4.2337,0.0,0.0,0.0,0.0,0.0,-4.1001,-4.0299,0.0,0.0,0.0,0.0,0.0,0.0,0.0,0.0,0.0,0.0,0.0,-3.8124,-3.8341,-3.8074,-3.6995,-3.689,-3.684,-3.6904,-3.6699,-3.6237,-3.5436,-3.5436,-3.5082,-3.4472,-3.4472,-3.4791,-3.5436,-3.5436,-3.577,-3.6301,-3.633,-3.6344,-3.6344,-3.6359,-3.6751,-3.7346,-3.7346,-3.7694,-3.8202,-3.8202,-3.8202,-3.8202,-3.8202,-3.8202,-3.8202,-3.8202,-3.8202,-3.8202,-3.8202,-3.8202,-3.8202,-3.8202,-3.8202,-3.8072,-3.7491,-3.7346,-3.7172,-3.6504,-3.6344,-3.617,-3.5566,-3.5436,-3.5232,-3.4559,-3.4443,-3.4443,-3.4414,-3.4428,-3.4428,-3.4414,-3.4414,-3.4414,-3.4414,-3.4414,-3.4414,-3.4414,-3.4414,-3.4414,-3.4414,-3.4414,-3.4414,-3.4414,-3.3673,-3.3248,-3.3248,-3.2541,-3.211,-3.211,-3.1291,-3.0895,-3.0857,-3.0139,-2.9792,-2.9792,-2.9792,-2.9792,0.0,0.0,-4.2424,-4.3142,0.0,0.0,0.0,0.0,0.0,0.0,0.0,0.0,0.0,0.0,-4.04,-4.0146,-4.0096,0.0,0.0,0.0,0.0,0.0,0.0,0.0,0.0,0.0,0.0,-3.8452,-3.7978,-3.7516,0.0,-3.6384,-3.6148,-3.6418,-3.5746,-3.5273,-3.5058,-3.4971,-3.4767,-3.4414,-3.4414,-3.453,-3.4733,-3.4733,-3.4849,-3.5082,-3.5503,-3.5712,-3.5755,-3.6141,-3.6446,-3.6649,-3.6649,-3.6765,-3.7056,-3.7897,-3.8202,-3.8202,-3.8202,-3.8202,-3.8202,-3.8202,-3.8202,-3.8202,-3.8202,-3.7926,-3.7607,-3.7607,-3.7288,-3.6896,-3.6693,-3.6649,-3.6475,-3.5836,-3.5712,-3.5537,-3.4878,-3.4733,-3.4675,-3.4457,-3.4414,-3.4414,-3.4414,-3.4414,-3.4414,-3.4414,-3.4414,-3.4414,-3.4414,-3.4414,-3.4414,-3.4414,-3.4414,-3.4414,-3.4414,-3.4414,-3.4414,-3.4414,-3.4147,-3.3997,-3.3997,-3.3756,-3.3381,-3.2826,-3.2074,-3.1452,-3.0895,-3.0177,-2.9792,-2.9792,-2.9792,-2.9792,-4.1739,-4.1613,0.0,-4.2555,-4.215,0.0,-4.2072,0.0,0.0,0.0,0.0,0.0,0.0,0.0,0.0,-4.0238,-4.0146,-4.0096,0.0,-4.0337,0.0,0.0,0.0,0.0,0.0,0.0,-3.9174,-3.8263,-3.7825,-3.7405,0.0,0.0,-3.5655,-3.5852,-3.5137,-3.4783,-3.485,-3.465,-3.4515,-3.4414,-3.4414,-3.4414,-3.4414,-3.4414,-3.4414,-3.4428,-3.4849,-3.5024,-3.5053,-3.5459,-3.5764,-3.5967,-3.5967,-3.6112,-3.6402,-3.723,-3.7535,-3.7535,-3.7535,-3.7535,-3.7535,-3.7535,-3.7535,-3.7535,-3.7535,-3.7259,-3.6997,-3.7244,-3.6823,-3.6301,-3.6301,-3.6141,-3.5807,-3.5203,-3.5024,-3.4907,-3.4501,-3.4414,-3.4414,-3.4414,-3.4414,-3.4414,-3.4414,-3.4414,-3.4414,-3.4414,-3.4414,-3.4414,-3.4414,-3.4414,-3.4414,-3.4414,-3.4414,-3.4414,-3.4414,-3.4414,-3.4414,-3.4414,-3.4113,-3.3859,-3.3604,-3.3311,-3.2804,-3.2015,-3.1516,-3.1033,-3.052,-3.0037,-2.9792,-2.9792,-2.9792,-2.9792]},{"header":{"parameterUnit":"m.s-1","parameterCategory":1,"la1":30.6,"la2":29.2853,"lo1":-89.7004,"lo2":-87.6739,"dy":0.0162,"dx":0.0183,"nx":112,"ny":82,"refTime":"2023-07-30T06:00:00:Z","depth":0,"parameterNumber":3,"parameterNumberName":"V-component_of_WINDS"},"data":[0.0,0.0,0.0,0.0,0.0,0.0,0.0,0.0,0.0,0.0,0.0,0.0,0.0,0.0,0.0,0.0,0.0,0.0,0.0,0.0,0.0,0.0,0.0,0.0,0.0,0.0,0.0,0.0,0.0,0.0,0.0,0.0,0.0,0.0,0.0,0.0,0.0,0.0,0.0,0.0,0.0,0.0,0.0,0.0,0.0,0.0,0.0,0.0,0.0,0.0,0.0,0.0,0.0,0.0,0.0,0.0,0.0,0.0,0.0,0.0,0.0,0.0,0.0,0.0,0.0,0.0,0.0,0.0,0.0,0.0,0.0,0.0,0.0,0.0,0.0,0.0,0.0,0.0,0.0,0.0,0.0,0.0,0.0,0.0,0.0,0.0,0.0,0.0,0.0,0.0,-3.3198,-3.3383,-3.32,-3.3363,-3.404,-3.2505,-3.1704,-3.2208,0.0,0.0,0.0,0.0,0.0,0.0,0.0,0.0,0.0,0.0,0.0,0.0,0.0,0.0,0.0,0.0,0.0,0.0,0.0,0.0,0.0,0.0,0.0,0.0,0.0,0.0,0.0,0.0,0.0,0.0,0.0,0.0,0.0,0.0,0.0,0.0,0.0,0.0,0.0,0.0,0.0,0.0,0.0,0.0,0.0,0.0,0.0,0.0,0.0,0.0,0.0,0.0,0.0,0.0,0.0,0.0,0.0,0.0,0.0,0.0,0.0,0.0,0.0,0.0,0.0,0.0,0.0,0.0,0.0,0.0,0.0,0.0,0.0,0.0,0.0,0.0,0.0,0.0,0.0,0.0,0.0,0.0,0.0,0.0,0.0,0.0,0.0,0.0,0.0,0.0,0.0,0.0,0.0,0.0,0.0,0.0,0.0,0.0,0.0,0.0,0.0,0.0,0.0,0.0,-3.2781,-3.3845,-3.3949,-3.3949,-3.4086,-3.3829,-3.338,-3.2826,0.0,0.0,0.0,0.0,0.0,0.0,0.0,0.0,0.0,0.0,0.0,0.0,0.0,0.0,0.0,0.0,0.0,0.0,0.0,0.0,0.0,0.0,0.0,0.0,0.0,0.0,0.0,0.0,0.0,0.0,0.0,0.0,0.0,0.0,0.0,0.0,0.0,0.0,0.0,0.0,0.0,0.0,0.0,0.0,0.0,0.0,0.0,0.0,0.0,0.0,0.0,0.0,0.0,0.0,0.0,0.0,0.0,0.0,0.0,0.0,0.0,0.0,0.0,0.0,0.0,0.0,0.0,0.0,0.0,0.0,0.0,0.0,0.0,0.0,0.0,0.0,0.0,0.0,0.0,0.0,0.0,0.0,0.0,0.0,0.0,0.0,0.0,0.0,0.0,0.0,0.0,0.0,0.0,0.0,0.0,0.0,0.0,0.0,0.0,0.0,0.0,0.0,0.0,-3.5381,-3.5487,-3.6111,-3.5777,-3.5672,-3.6111,-3.5132,-3.453,-3.4576,-3.3141,0.0,0.0,0.0,0.0,0.0,0.0,0.0,0.0,0.0,0.0,0.0,0.0,0.0,0.0,0.0,0.0,0.0,0.0,0.0,0.0,0.0,0.0,0.0,0.0,0.0,0.0,0.0,0.0,0.0,0.0,0.0,0.0,0.0,0.0,0.0,0.0,0.0,0.0,0.0,0.0,0.0,0.0,0.0,0.0,0.0,0.0,0.0,0.0,0.0,0.0,0.0,0.0,0.0,0.0,0.0,0.0,0.0,0.0,0.0,0.0,0.0,0.0,0.0,0.0,0.0,0.0,0.0,0.0,0.0,0.0,0.0,0.0,0.0,0.0,0.0,0.0,0.0,0.0,0.0,0.0,0.0,0.0,0.0,0.0,0.0,0.0,0.0,0.0,0.0,0.0,0.0,0.0,0.0,0.0,0.0,0.0,0.0,0.0,0.0,0.0,0.0,0.0,-3.7762,-3.79,-3.79,-3.7353,-3.7214,-3.7854,-3.6447,-3.5705,-3.6121,-3.5314,0.0,0.0,0.0,0.0,0.0,0.0,0.0,0.0,0.0,0.0,0.0,0.0,0.0,0.0,0.0,0.0,0.0,0.0,0.0,0.0,0.0,0.0,0.0,0.0,0.0,0.0,0.0,0.0,0.0,0.0,0.0,0.0,0.0,0.0,0.0,0.0,0.0,0.0,0.0,0.0,0.0,0.0,0.0,0.0,0.0,0.0,0.0,0.0,0.0,0.0,0.0,0.0,0.0,0.0,0.0,0.0,0.0,0.0,0.0,0.0,0.0,0.0,0.0,0.0,0.0,0.0,0.0,0.0,0.0,0.0,0.0,0.0,0.0,0.0,0.0,0.0,0.0,0.0,0.0,0.0,0.0,0.0,0.0,0.0,0.0,0.0,0.0,0.0,0.0,0.0,0.0,0.0,0.0,0.0,0.0,0.0,0.0,0.0,0.0,0.0,0.0,0.0,-3.7459,-3.79,-3.79,-3.7854,-3.7854,-3.79,-3.7769,-3.7407,-3.6705,-3.6747,0.0,0.0,0.0,0.0,0.0,0.0,0.0,0.0,0.0,0.0,0.0,0.0,0.0,0.0,0.0,0.0,0.0,0.0,0.0,0.0,0.0,0.0,0.0,0.0,0.0,0.0,0.0,0.0,0.0,0.0,0.0,0.0,0.0,0.0,0.0,0.0,0.0,0.0,0.0,0.0,0.0,0.0,0.0,0.0,0.0,0.0,0.0,0.0,0.0,0.0,0.0,0.0,0.0,0.0,0.0,0.0,0.0,0.0,0.0,0.0,0.0,0.0,0.0,0.0,0.0,0.0,0.0,0.0,0.0,0.0,0.0,0.0,0.0,0.0,0.0,0.0,0.0,0.0,0.0,0.0,0.0,0.0,0.0,0.0,0.0,0.0,0.0,0.0,0.0,0.0,0.0,0.0,0.0,0.0,0.0,0.0,0.0,0.0,0.0,0.0,0.0,0.0,-3.7911,-3.79,0.0,-3.79,-3.79,-3.79,-3.79,-3.7762,-3.7459,0.0,0.0,0.0,0.0,0.0,0.0,0.0,0.0,0.0,0.0,0.0,0.0,0.0,0.0,0.0,0.0,0.0,0.0,0.0,0.0,0.0,0.0,0.0,0.0,0.0,0.0,0.0,0.0,0.0,0.0,0.0,0.0,0.0,0.0,0.0,0.0,0.0,0.0,0.0,0.0,0.0,0.0,0.0,0.0,0.0,0.0,0.0,0.0,0.0,0.0,0.0,0.0,0.0,0.0,0.0,0.0,0.0,0.0,0.0,0.0,0.0,0.0,0.0,0.0,0.0,0.0,0.0,0.0,0.0,0.0,0.0,0.0,0.0,0.0,0.0,0.0,0.0,0.0,0.0,0.0,0.0,0.0,0.0,0.0,0.0,0.0,0.0,0.0,0.0,0.0,0.0,0.0,0.0,0.0,0.0,0.0,0.0,0.0,0.0,0.0,0.0,0.0,-3.8945,-3.8671,-3.8449,0.0,-3.8279,-3.8161,-3.8161,-3.8004,-3.79,-3.79,0.0,0.0,0.0,0.0,0.0,0.0,0.0,0.0,0.0,0.0,0.0,0.0,0.0,0.0,0.0,0.0,0.0,0.0,0.0,0.0,0.0,0.0,0.0,0.0,0.0,0.0,0.0,0.0,0.0,0.0,0.0,0.0,0.0,0.0,0.0,0.0,0.0,0.0,0.0,0.0,0.0,0.0,0.0,0.0,0.0,0.0,0.0,0.0,0.0,0.0,0.0,0.0,0.0,0.0,0.0,0.0,0.0,0.0,0.0,0.0,0.0,0.0,0.0,0.0,0.0,0.0,0.0,0.0,0.0,0.0,0.0,0.0,0.0,0.0,0.0,0.0,0.0,0.0,0.0,0.0,0.0,0.0,0.0,0.0,0.0,0.0,0.0,0.0,0.0,0.0,0.0,0.0,0.0,0.0,0.0,0.0,0.0,0.0,0.0,0.0,0.0,0.0,-3.9625,-3.9612,-3.9612,-3.9612,-3.9076,-3.8723,-3.871,-3.8214,-3.7913,0.0,0.0,0.0,0.0,0.0,0.0,0.0,0.0,0.0,0.0,0.0,0.0,0.0,0.0,0.0,0.0,0.0,0.0,0.0,0.0,0.0,0.0,0.0,0.0,0.0,0.0,0.0,0.0,0.0,0.0,0.0,0.0,0.0,0.0,0.0,0.0,0.0,0.0,0.0,0.0,0.0,0.0,0.0,0.0,0.0,0.0,0.0,0.0,0.0,0.0,0.0,0.0,0.0,0.0,0.0,0.0,0.0,0.0,0.0,0.0,0.0,0.0,0.0,0.0,0.0,0.0,0.0,0.0,0.0,0.0,0.0,0.0,0.0,0.0,0.0,0.0,0.0,0.0,0.0,0.0,0.0,0.0,0.0,0.0,0.0,0.0,0.0,0.0,0.0,0.0,0.0,0.0,0.0,0.0,0.0,0.0,0.0,0.0,0.0,0.0,0.0,0.0,0.0,-4.0135,-3.9847,-3.9612,-3.9612,-3.9455,-3.9168,-3.8749,-3.8566,-3.8305,-3.7926,0.0,0.0,0.0,0.0,0.0,0.0,0.0,0.0,0.0,0.0,0.0,0.0,0.0,0.0,0.0,0.0,0.0,0.0,0.0,0.0,0.0,0.0,0.0,0.0,0.0,0.0,0.0,0.0,0.0,0.0,0.0,0.0,0.0,0.0,0.0,0.0,0.0,0.0,0.0,0.0,0.0,0.0,0.0,0.0,0.0,0.0,0.0,0.0,0.0,0.0,0.0,0.0,0.0,0.0,0.0,0.0,0.0,0.0,0.0,0.0,0.0,0.0,0.0,0.0,0.0,0.0,0.0,0.0,0.0,0.0,0.0,0.0,0.0,0.0,0.0,0.0,0.0,0.0,0.0,0.0,0.0,0.0,0.0,0.0,0.0,0.0,0.0,0.0,0.0,0.0,0.0,0.0,0.0,0.0,0.0,0.0,0.0,0.0,0.0,0.0,0.0,0.0,-4.0736,-4.0488,-4.0292,-4.0292,-4.0069,-3.9782,-3.9416,-3.8972,-3.8566,-3.824,0.0,0.0,0.0,0.0,0.0,0.0,0.0,0.0,0.0,0.0,0.0,0.0,0.0,0.0,0.0,0.0,0.0,0.0,0.0,0.0,0.0,0.0,0.0,0.0,0.0,0.0,0.0,0.0,0.0,0.0,0.0,0.0,0.0,0.0,0.0,0.0,0.0,0.0,0.0,0.0,0.0,0.0,0.0,0.0,0.0,0.0,0.0,0.0,0.0,0.0,0.0,0.0,0.0,0.0,0.0,0.0,0.0,0.0,0.0,0.0,0.0,0.0,0.0,0.0,0.0,0.0,0.0,0.0,0.0,0.0,0.0,0.0,0.0,0.0,0.0,0.0,0.0,0.0,0.0,0.0,0.0,0.0,0.0,0.0,0.0,0.0,0.0,0.0,0.0,0.0,0.0,0.0,0.0,0.0,0.0,0.0,0.0,0.0,0.0,0.0,0.0,0.0,-4.1311,-4.1311,-4.1311,-4.1311,-4.0827,-4.0474,-4.0422,-3.9468,-3.8828,-3.8723,0.0,0.0,0.0,0.0,0.0,0.0,0.0,0.0,0.0,0.0,0.0,0.0,0.0,0.0,0.0,0.0,0.0,0.0,0.0,0.0,0.0,0.0,0.0,0.0,0.0,0.0,0.0,0.0,0.0,0.0,0.0,0.0,0.0,0.0,0.0,0.0,0.0,0.0,0.0,0.0,0.0,0.0,0.0,0.0,0.0,0.0,0.0,0.0,0.0,0.0,0.0,0.0,0.0,0.0,0.0,0.0,0.0,0.0,0.0,0.0,-2.9876,0.0,0.0,0.0,0.0,0.0,0.0,0.0,0.0,0.0,0.0,0.0,0.0,0.0,0.0,0.0,0.0,0.0,0.0,0.0,0.0,0.0,0.0,0.0,0.0,0.0,0.0,0.0,0.0,0.0,0.0,0.0,0.0,0.0,0.0,0.0,0.0,0.0,0.0,0.0,0.0,0.0,-4.1311,-4.1311,-4.1311,-4.1311,-4.1193,-4.0932,-4.0448,-4.0187,-3.9664,-3.8762,-3.8606,0.0,0.0,0.0,0.0,0.0,0.0,0.0,0.0,0.0,0.0,0.0,0.0,0.0,0.0,0.0,0.0,0.0,0.0,0.0,0.0,0.0,0.0,0.0,0.0,0.0,0.0,0.0,0.0,0.0,0.0,0.0,0.0,0.0,0.0,0.0,0.0,0.0,0.0,0.0,0.0,0.0,0.0,0.0,0.0,0.0,0.0,0.0,0.0,0.0,0.0,0.0,0.0,0.0,0.0,0.0,0.0,0.0,0.0,0.0,0.0,-3.0095,0.0,0.0,0.0,0.0,0.0,0.0,0.0,0.0,0.0,0.0,0.0,0.0,0.0,0.0,0.0,0.0,0.0,0.0,0.0,0.0,0.0,0.0,0.0,0.0,0.0,0.0,0.0,0.0,0.0,0.0,0.0,0.0,0.0,0.0,0.0,0.0,0.0,0.0,0.0,0.0,-4.0501,-4.0501,-4.0501,-4.0501,-4.0501,-4.037,-4.0056,-3.9756,-3.9337,-3.8749,-3.8462,0.0,0.0,0.0,0.0,0.0,0.0,0.0,0.0,0.0,0.0,0.0,0.0,0.0,0.0,0.0,0.0,0.0,0.0,0.0,0.0,0.0,0.0,0.0,0.0,0.0,0.0,0.0,0.0,0.0,0.0,0.0,0.0,0.0,0.0,0.0,0.0,0.0,0.0,0.0,0.0,0.0,0.0,0.0,0.0,0.0,0.0,0.0,0.0,0.0,0.0,0.0,0.0,0.0,-3.1975,-3.2077,-3.1936,-3.2443,-3.2594,-3.2336,-3.1531,-3.1223,-3.1218,-3.0839,0.0,0.0,0.0,0.0,0.0,0.0,0.0,0.0,0.0,0.0,0.0,0.0,0.0,0.0,0.0,0.0,0.0,0.0,0.0,0.0,0.0,0.0,0.0,0.0,-3.9952,-4.0161,0.0,0.0,0.0,0.0,0.0,0.0,0.0,0.0,0.0,0.0,0.0,0.0,-3.9612,-3.9612,-3.9612,-3.9612,-3.9612,-3.9612,-3.9612,-3.9155,-3.8815,-3.8723,-3.8292,-3.8004,0.0,0.0,0.0,0.0,0.0,0.0,0.0,0.0,0.0,0.0,0.0,0.0,0.0,0.0,0.0,0.0,0.0,0.0,0.0,0.0,0.0,0.0,0.0,0.0,0.0,0.0,0.0,0.0,0.0,0.0,0.0,0.0,-2.8142,-2.7913,0.0,0.0,0.0,0.0,0.0,0.0,0.0,0.0,0.0,0.0,0.0,0.0,0.0,-3.1443,-3.1429,-3.179,-3.1975,-3.1975,-3.2505,-3.288,-3.3081,-3.3381,-3.3618,-3.3805,-3.3677,0.0,-3.2292,-3.2425,0.0,0.0,0.0,0.0,0.0,0.0,0.0,0.0,0.0,0.0,0.0,0.0,0.0,0.0,0.0,0.0,0.0,0.0,0.0,0.0,0.0,0.0,-3.6931,-3.9086,-3.9664,-3.9703,0.0,-3.9612,-3.9743,-4.0213,-3.9991,0.0,0.0,0.0,0.0,0.0,0.0,0.0,-3.9612,-3.9612,-3.9612,-3.9612,-3.9612,-3.9612,-3.9612,-3.9534,-3.9272,-3.8736,-3.8645,-3.8397,-3.7926,-3.79,0.0,0.0,0.0,0.0,0.0,0.0,0.0,0.0,0.0,0.0,0.0,0.0,0.0,0.0,0.0,0.0,0.0,0.0,0.0,0.0,0.0,0.0,0.0,0.0,0.0,0.0,0.0,0.0,0.0,-2.7392,-2.8287,-2.7794,-2.8512,-2.8665,0.0,0.0,0.0,0.0,0.0,0.0,0.0,0.0,0.0,-3.1454,-3.2015,-3.228,-3.2313,-3.2757,-3.2908,-3.2757,-3.3242,-3.3962,-3.4788,-3.4618,-3.4949,-3.5627,-3.5513,-3.51,-3.4372,-3.3437,-3.2996,-3.2889,0.0,0.0,0.0,0.0,-3.2817,-3.3067,-3.3051,-3.3049,0.0,-3.364,0.0,0.0,0.0,0.0,0.0,0.0,0.0,0.0,0.0,0.0,-3.7296,-3.9133,-3.9612,-3.9612,-3.9612,-3.9337,-3.9272,0.0,-3.9769,-3.9612,-3.9612,0.0,0.0,0.0,0.0,-3.8645,-3.8645,-3.8645,-3.8645,-3.8645,-3.8645,-3.8645,-3.8645,-3.8645,-3.854,-3.8279,-3.8253,-3.8161,-3.7913,-3.79,-3.79,0.0,0.0,0.0,0.0,0.0,0.0,0.0,0.0,0.0,0.0,0.0,0.0,0.0,0.0,0.0,0.0,0.0,0.0,0.0,0.0,0.0,0.0,0.0,0.0,0.0,0.0,0.0,0.0,-2.8419,-2.8949,-2.8177,-2.9126,-2.9548,0.0,0.0,0.0,0.0,0.0,0.0,-3.0991,-3.1516,-3.1924,-3.2117,-3.2746,-3.3128,-3.3174,-3.3703,-3.3912,-3.3811,-3.4078,-3.4789,-3.5861,-3.5392,-3.5671,-3.6502,-3.6539,-3.6386,-3.6036,-3.4896,-3.4416,-3.4431,-3.453,-3.4926,-3.5381,-3.5005,-3.4943,-3.5038,-3.5024,-3.5121,-3.5294,-3.5713,0.0,-3.5818,-3.5818,0.0,0.0,0.0,0.0,-3.5344,-3.6653,-3.7295,-3.7938,-3.9307,-3.9612,-3.9612,-3.9612,-3.9141,-3.8841,0.0,-3.9272,-3.9168,-3.9168,0.0,0.0,0.0,0.0,-3.79,-3.79,-3.79,-3.79,-3.79,-3.79,-3.79,-3.79,-3.79,-3.79,-3.79,-3.79,-3.79,-3.79,-3.79,-3.79,-3.79,0.0,0.0,0.0,0.0,0.0,0.0,0.0,0.0,0.0,0.0,0.0,0.0,0.0,0.0,0.0,0.0,0.0,0.0,0.0,0.0,0.0,0.0,0.0,0.0,0.0,0.0,0.0,0.0,0.0,-3.0037,-3.0845,0.0,0.0,0.0,0.0,-3.1084,-3.1403,-3.1578,-3.1578,-3.2066,-3.237,-3.237,-3.339,-3.3958,-3.3958,-3.4475,-3.4872,-3.5097,-3.4895,-3.5051,-3.5596,-3.5333,-3.5369,-3.5718,-3.6473,-3.664,-3.6452,-3.717,-3.7195,-3.6783,-3.7033,-3.7133,-3.7183,-3.7158,-3.7456,-3.7913,-3.7888,-3.8206,-3.8556,-3.8617,-3.8617,-3.8617,-3.8617,-3.8291,0.0,0.0,-3.7888,-3.8048,-3.8538,-3.8697,-3.8868,-3.9442,-3.9612,-3.9612,-3.9612,-3.9141,-3.8723,0.0,-3.8344,-3.7991,-3.7991,0.0,-3.7952,-3.7952,-3.7926,-3.79,-3.79,-3.79,-3.79,-3.79,-3.79,-3.79,-3.79,-3.79,-3.79,-3.79,-3.79,-3.79,-3.79,-3.79,-3.79,-3.79,-3.79,0.0,0.0,0.0,0.0,0.0,0.0,0.0,0.0,0.0,0.0,0.0,0.0,0.0,0.0,0.0,0.0,0.0,0.0,0.0,0.0,0.0,0.0,0.0,0.0,0.0,0.0,0.0,0.0,-3.0826,-3.1545,0.0,-3.0877,-3.1094,-3.1362,-3.1465,-3.1863,-3.2352,-3.2869,-3.3209,-3.3663,-3.4188,-3.4561,-3.4676,-3.4521,-3.4861,-3.5005,-3.4941,-3.5159,-3.5812,-3.6919,-3.6992,-3.7409,-3.8226,-3.8866,-3.9019,-3.8853,-3.9675,-3.918,-3.7866,-3.7965,-3.8322,-3.88,-3.88,-3.8897,-3.9055,-3.9055,-3.9188,-3.9332,-3.9332,-3.9332,-3.9236,-3.892,-3.8677,-3.8494,-3.8199,-3.8347,-3.8592,-3.8738,-3.9043,-3.9358,-3.9551,-3.9612,-3.9612,-3.9612,-3.9442,-3.9285,-3.9285,-3.854,-3.79,-3.79,-3.79,-3.79,-3.79,-3.79,-3.79,-3.79,-3.79,-3.79,-3.79,-3.79,-3.79,-3.79,-3.79,-3.79,-3.79,-3.79,-3.79,-3.79,-3.79,-3.79,-3.79,-3.79,-3.79,0.0,0.0,0.0,0.0,0.0,0.0,0.0,0.0,0.0,0.0,0.0,0.0,0.0,0.0,0.0,0.0,0.0,0.0,0.0,0.0,0.0,0.0,0.0,0.0,0.0,0.0,-3.1187,-3.1187,-3.1902,-3.2207,-3.1648,-3.1914,-3.2229,-3.2383,-3.2886,-3.343,-3.3965,-3.4154,-3.4521,-3.5074,-3.5323,-3.5364,-3.5207,-3.5526,-3.566,-3.5566,-3.573,-3.6325,-3.7304,-3.7688,-3.8056,-3.857,-3.9801,-4.0083,-3.975,-4.0846,-4.0556,-3.94,-3.94,-3.9708,-4.0187,-4.0187,-4.0187,-4.0187,-4.0368,-4.0465,-4.0465,-4.0658,-4.061,-4.0368,-4.0037,-3.9806,-3.9561,-3.9265,-3.9413,-3.9659,-3.9659,-3.9917,-4.0187,-4.0187,-4.0187,-4.0187,-4.0187,-4.0017,-3.9873,-3.9873,-3.9115,-3.8475,-3.8475,-3.8475,-3.8475,-3.8475,-3.8475,-3.841,-3.82,-3.8174,-3.8109,-3.7926,-3.79,-3.79,-3.79,-3.79,-3.79,-3.79,-3.79,-3.79,-3.79,-3.79,-3.79,-3.79,-3.79,-3.79,-3.79,0.0,0.0,0.0,0.0,0.0,0.0,0.0,0.0,0.0,0.0,0.0,0.0,0.0,0.0,0.0,0.0,0.0,0.0,0.0,0.0,0.0,0.0,0.0,-2.9576,-3.0981,-3.1812,-3.1351,-3.1975,-3.2443,-3.2454,-3.2925,-3.3474,-3.3976,-3.4509,-3.4808,-3.4819,-3.4819,-3.4831,-3.4842,-3.563,-3.5991,-3.5991,-3.6468,-3.6808,-3.7078,-3.6538,-3.6429,-3.67,-3.7257,-3.7096,-3.6538,-3.9013,-3.9647,-3.9,-4.063,-4.1311,-4.1311,-4.1311,-4.1311,-4.1311,-4.1311,-4.1311,-4.1361,-4.1881,-4.2079,-4.2177,-4.2679,-4.2484,-4.2079,-4.2079,-4.1696,-4.1311,-4.1311,-4.1311,-4.1311,-4.1311,-4.1311,-4.1311,-4.1311,-4.1311,-4.1311,-4.1311,-4.0853,-4.0448,-4.0448,-4.0017,-3.9651,-3.9625,-3.9612,-3.9612,-3.9612,-3.9612,0.0,-3.8815,-3.8723,-3.8514,-3.8018,-3.7939,-3.7926,-3.7926,-3.7926,-3.7926,-3.79,-3.79,-3.79,-3.79,-3.79,-3.79,-3.79,-3.79,-3.79,-3.79,0.0,0.0,0.0,0.0,0.0,0.0,0.0,0.0,0.0,0.0,0.0,0.0,0.0,0.0,0.0,0.0,0.0,0.0,0.0,0.0,0.0,0.0,-3.1289,-3.1289,-3.171,-3.2301,-3.3118,-3.343,-3.3731,-3.4119,-3.429,-3.4434,-3.4578,-3.4716,-3.5062,-3.5642,-3.5665,-3.5827,-3.6175,-3.6379,-3.6503,-3.6503,-3.6414,-3.6646,-3.7078,-3.6538,-3.6429,-3.6754,-3.7897,-3.8319,-3.8214,-4.016,-4.0846,-4.063,-4.111,-4.1311,-4.1311,-4.1311,-4.1311,-4.1311,-4.1311,-4.1311,-4.1311,-4.1461,-4.1511,-4.1547,-4.171,-4.166,-4.1511,-4.1511,-4.1411,-4.1311,-4.1311,-4.1311,-4.1311,-4.1311,-4.1311,-4.1311,-4.1311,-4.1311,-4.1311,-4.1311,-4.1193,-4.1076,-4.1076,-4.0945,-4.0579,-3.9756,-3.9612,-3.9612,-3.9612,-3.9612,0.0,-3.9377,-3.8985,-3.8815,-3.9102,-3.8749,-3.8488,-3.8488,-3.8488,-3.8318,-3.7926,-3.79,-3.79,-3.79,-3.79,-3.79,-3.79,-3.79,-3.79,0.0,0.0,0.0,0.0,0.0,0.0,0.0,0.0,0.0,0.0,0.0,0.0,0.0,0.0,0.0,0.0,0.0,0.0,0.0,0.0,0.0,0.0,-3.1478,-3.2556,-3.3077,-3.2982,-3.3181,-3.4217,-3.4337,-3.4463,-3.4773,-3.498,-3.5106,-3.5106,-3.5301,-3.5649,-3.611,-3.6121,-3.6248,-3.6526,-3.6646,-3.67,-3.67,-3.6646,-3.6916,-3.7453,-3.7173,-3.7227,-3.7643,-3.8804,-3.9169,0.0,-4.058,-4.111,-4.0795,-4.1161,-4.1311,0.0,0.0,0.0,0.0,0.0,-4.1311,-4.1311,-4.1311,-4.1311,-4.1311,-4.1311,-4.1311,-4.1311,-4.1311,-4.1311,-4.1311,-4.1311,-4.1311,-4.1311,-4.1311,-4.1311,-4.1311,-4.1311,-4.1311,-4.1311,-4.1311,-4.1311,-4.1311,-4.1311,-4.1311,0.0,-4.0435,-4.0331,-4.0331,-4.0331,-4.0331,-4.0226,-3.9978,-3.9638,-3.9468,-3.9599,-3.9076,-3.871,-3.871,-3.8501,0.0,0.0,0.0,-3.79,-3.79,-3.79,0.0,0.0,0.0,-3.79,-3.79,0.0,0.0,0.0,-3.722,-3.7059,0.0,0.0,0.0,0.0,0.0,0.0,0.0,0.0,0.0,0.0,0.0,0.0,0.0,0.0,0.0,0.0,-3.2361,-3.3481,-3.4703,-3.4475,-3.4349,-3.4819,-3.4877,-3.49,-3.4957,-3.5347,-3.56,-3.56,-3.6013,-3.632,-3.632,0.0,0.0,0.0,0.0,-3.67,-3.67,-3.6916,-3.7346,-3.8039,-3.7974,-3.8279,-3.8896,-3.9698,-3.9698,-3.9,-4.063,-4.0896,-4.0275,-4.101,-4.1311,-4.1311,-4.1311,-4.1311,-4.1311,-4.1311,-4.1311,-4.1311,-4.1311,0.0,0.0,-4.1311,-4.1311,-4.1311,-4.1311,-4.1311,-4.1311,-4.1311,-4.1311,-4.1311,-4.1311,-4.1311,-4.1311,-4.1311,-4.1311,-4.1311,-4.1311,-4.1311,-4.1311,-4.1311,-4.1311,-4.1311,-4.1311,-4.1311,-4.1311,-4.1311,-4.1311,-4.1128,-4.0592,-4.0461,-4.0252,-3.9847,0.0,0.0,-3.8815,-3.837,-3.8044,-3.7913,-3.79,-3.7926,-3.7991,-3.7939,-3.7926,-3.7991,-3.7926,-3.79,-3.79,-3.79,-3.79,-3.79,-3.79,-3.8007,0.0,0.0,0.0,0.0,0.0,0.0,0.0,0.0,0.0,0.0,0.0,0.0,0.0,0.0,0.0,-3.1444,-3.313,-3.4651,-3.526,-3.529,-3.5267,-3.537,-3.5382,-3.5543,-3.5944,-3.6071,-3.6128,-3.6128,-3.622,-3.632,-3.632,-3.6495,-3.6538,-3.632,-3.6538,-3.67,-3.67,-3.6538,-3.7066,-3.8303,0.0,0.0,-3.9117,-3.9801,-4.0019,-3.9917,-4.0896,-4.1211,-4.106,-4.1261,-4.1311,-4.1311,-4.1311,-4.1311,-4.1311,-4.1311,-4.1311,-4.1311,-4.1311,-4.1311,-4.1311,-4.1311,-4.1311,-4.1311,-4.1311,-4.1311,0.0,-4.1311,-4.1311,-4.1311,-4.1311,-4.1311,-4.1311,-4.1311,-4.1311,-4.1311,-4.1311,-4.1311,-4.1311,-4.1311,-4.1311,-4.1311,-4.1311,-4.1311,-4.1311,-4.1311,-4.1311,-4.1272,-4.1154,-4.071,-4.0566,-4.0945,-4.0448,-3.9913,-3.9468,-3.9337,-3.888,-3.7965,-3.79,-3.8096,-3.854,-3.8135,-3.8109,-3.8553,-3.8122,-3.79,-3.79,-3.79,-3.79,-3.79,-3.79,-3.7926,0.0,0.0,0.0,0.0,0.0,0.0,0.0,0.0,0.0,0.0,0.0,-3.0325,0.0,0.0,-3.2595,-3.2888,-3.4165,-3.5336,-3.583,-3.5898,-3.5898,-3.5898,-3.5898,-3.599,-3.6243,-3.632,-3.632,-3.632,-3.632,-3.632,-3.632,-3.6429,-3.6429,-3.632,-3.6683,-3.6876,-3.6876,-3.7118,-3.7742,-3.8779,-3.9013,-3.9603,-4.0475,-4.122,-4.1531,-4.157,-4.1707,-4.1742,-4.1716,-4.1428,-4.1311,-4.1311,-4.1311,-4.1311,-4.1311,-4.1311,-4.1311,-4.1311,-4.1311,-4.1311,-4.1311,-4.1311,-4.1311,-4.1311,-4.1311,-4.1311,-4.1311,-4.1311,-4.1311,-4.1311,-4.1311,-4.1311,-4.1311,-4.1311,-4.1311,-4.1311,-4.1311,-4.1311,-4.1311,-4.1311,-4.1311,-4.1311,-4.1311,-4.1311,-4.1311,-4.1311,-4.1311,-4.1311,-4.1311,-4.105,-4.0984,-4.1285,-4.0775,-4.02,-3.9651,-3.9089,-3.8514,-3.7939,-3.8161,-3.8436,-3.8697,-3.8449,-3.8436,-3.8697,-3.8174,-3.79,-3.79,-3.79,-3.79,-3.79,-3.79,-3.79,0.0,0.0,0.0,0.0,0.0,0.0,0.0,0.0,-3.0994,-3.1933,-3.2233,-3.2297,-3.2297,-3.3018,-3.3806,-3.4247,-3.5052,-3.5807,-3.6263,-3.632,-3.632,-3.632,-3.632,-3.632,-3.632,-3.632,-3.632,-3.632,-3.632,-3.632,-3.632,-3.6369,-3.6415,-3.6415,-3.692,-3.7184,-3.7184,-3.7811,-3.8459,-3.9118,-4.0196,-4.1076,-4.1732,-4.2591,-4.3023,-4.2997,-4.2526,-4.2382,-4.2291,-4.1716,-4.1481,-4.1468,-4.1363,-4.1311,-4.1311,-4.1311,-4.1311,-4.1311,-4.1311,-4.1311,-4.1311,-4.1311,-4.1311,-4.1311,-4.1311,-4.1311,-4.1311,-4.1311,-4.1311,-4.1311,-4.1311,-4.1311,-4.1311,-4.1311,-4.1311,-4.1311,-4.1311,-4.1311,-4.1311,-4.1311,-4.1311,-4.1311,-4.1311,-4.1311,-4.1311,-4.1311,-4.1311,-4.1311,-4.1311,-4.1311,-4.1311,-4.1311,-4.088,-4.0331,-3.9664,-3.8566,-3.79,-3.79,-3.8318,-3.8658,-3.888,-3.8671,-3.8658,-3.888,-3.824,-3.79,-3.79,-3.79,-3.79,-3.79,-3.79,-3.7992,-2.7236,-2.8103,-2.9627,-2.9769,-3.0959,-3.1944,0.0,0.0,-3.1997,-3.1668,-3.1987,-3.2297,-3.2297,-3.3345,-3.4247,-3.4303,-3.5389,-3.6208,-3.632,-3.632,-3.632,-3.632,-3.632,-3.632,-3.632,-3.632,-3.632,-3.632,-3.632,-3.632,-3.632,-3.6702,-3.6899,-3.6899,-3.7437,-3.7701,-3.7701,-3.7815,-3.829,-3.9118,-4.0032,-4.0902,-4.1732,-4.2591,-4.3023,-4.3023,-4.2958,-4.2931,-4.2879,-4.2304,-4.212,-4.2081,-4.152,-4.1311,-4.1311,-4.1311,-4.1311,-4.1311,-4.1311,-4.1311,-4.1311,-4.1311,-4.1311,-4.1311,-4.1311,-4.1311,-4.1311,-4.1311,-4.1311,-4.1311,-4.1311,-4.1311,-4.1311,-4.1311,-4.1311,-4.1311,-4.1311,-4.1311,-4.1311,-4.1311,-4.1311,-4.1311,-4.1311,-4.1311,-4.1311,-4.1311,-4.1311,-4.1311,-4.1311,-4.1311,-4.1311,-4.1311,-4.1259,-4.0775,-3.9703,-3.8566,-3.79,-3.79,-3.7965,-3.8449,-3.9468,-3.854,-3.8475,-3.9494,-3.8449,-3.79,-3.79,-3.79,-3.79,-3.79,-3.79,-3.8304,-3.0819,0.0,0.0,0.0,-3.2987,-3.341,-3.3202,-3.3311,-3.3648,-3.42,-3.4443,-3.4653,-3.4653,-3.5093,-3.5457,0.0,-3.5911,-3.632,-3.632,-3.632,-3.632,-3.632,-3.632,-3.632,-3.632,-3.632,-3.6392,-3.6691,-3.6714,-3.684,-3.7138,-3.7356,-3.7471,-3.7471,-3.7976,-3.8252,-3.8252,-3.8527,-3.8839,-3.9232,-4.0676,-4.1515,-4.1915,-4.3347,-4.3833,-4.352,-4.352,-4.3323,-4.2997,-4.2762,-4.2461,-4.2185,-4.1899,-4.1611,-4.1311,-4.1311,-4.1311,-4.1311,-4.1311,-4.1311,-4.1311,-4.1311,-4.1311,-4.1311,-4.1311,-4.1311,-4.1311,-4.1311,-4.1311,-4.1311,-4.1311,-4.1311,-4.1311,-4.1311,-4.1311,-4.1311,-4.1311,-4.1311,-4.1311,-4.1311,-4.1311,-4.1311,-4.1311,-4.1311,-4.1311,-4.1311,-4.1311,-4.1311,-4.1311,-4.1311,-4.1311,-4.1311,-4.0997,-4.0474,-3.9677,-3.8841,-3.824,-3.7926,-3.82,-3.8593,-3.9076,-3.8632,-3.8593,-3.9076,-3.8305,-3.79,-3.79,-3.79,-3.79,-3.79,-3.79,-3.8652,-3.212,0.0,0.0,-3.3802,-3.4523,-3.4807,-3.4672,-3.4751,-3.507,-3.5905,-3.6174,-3.632,-3.632,-3.632,-3.632,-3.632,-3.632,-3.632,-3.632,-3.632,-3.632,-3.632,-3.632,-3.632,-3.632,-3.6392,-3.6633,-3.6945,-3.7161,-3.7402,-3.777,-3.793,-3.8011,-3.8011,-3.8516,-3.878,-3.878,-3.9136,-3.9414,-3.9708,-4.1284,-4.2137,-4.2419,-4.4,-4.45,-4.4108,-4.4108,-4.3872,-4.348,-4.3323,-4.301,-4.2656,-4.2342,-4.1912,-4.1533,-4.1376,-4.1311,-4.1311,-4.1311,-4.1311,-4.1311,-4.1311,-4.1311,-4.1311,-4.1311,-4.1311,-4.1311,-4.1311,-4.1311,-4.1311,-4.1311,-4.1311,-4.1311,-4.1311,-4.1311,-4.1311,-4.1311,-4.1311,-4.1311,-4.1311,-4.1311,-4.1311,-4.1311,-4.1311,-4.1311,-4.1311,-4.1311,-4.1311,-4.1311,-4.1311,-4.1311,-4.1311,-4.0775,-4.0252,-3.986,-3.9141,-3.854,-3.8161,-3.8357,-3.8553,-3.8697,-3.8566,-3.8553,-3.871,-3.8174,-3.79,-3.79,-3.79,-3.79,-3.79,-3.79,-3.8742,0.0,0.0,-3.222,-3.3563,-3.5095,-3.6117,-3.5569,-3.5845,-3.6105,-3.5634,-3.5933,-3.632,-3.632,-3.632,-3.632,-3.632,-3.632,-3.632,-3.632,-3.632,-3.632,-3.632,-3.632,-3.632,0.0,-3.6725,-3.6968,-3.6979,-3.7483,-3.777,-3.7793,-3.8275,-3.8562,-3.8562,-3.9033,-3.9285,-3.9285,-3.9297,-3.9767,-4.0675,-4.157,-4.2476,-4.3394,-4.4287,-4.4668,-4.4709,-4.4709,-4.4696,-4.463,-4.4081,-4.3833,-4.3768,-4.2643,-4.2211,-4.212,-4.152,-4.1311,-4.1311,-4.1311,-4.1311,-4.1311,-4.1311,-4.1311,-4.1311,-4.1311,-4.1311,-4.1311,-4.1311,-4.1311,-4.1311,-4.1311,-4.1311,-4.1311,-4.1311,-4.1311,-4.1311,-4.1311,-4.1311,-4.1311,-4.1311,-4.1311,-4.1311,-4.1311,-4.1311,-4.1311,-4.1311,-4.1311,-4.1311,-4.1311,-4.1311,-4.1311,-4.1311,-4.0775,-4.0409,-4.0396,-3.9364,-3.8697,-3.8684,-3.8214,-3.8161,-3.8697,-3.8214,-3.8174,-3.8697,-3.8174,-3.79,-3.79,-3.79,-3.79,-3.79,-3.79,-3.8395,-3.0176,0.0,-3.3606,-3.5106,-3.5911,-3.622,-3.6048,-3.6151,-3.622,-3.6048,-3.5443,-3.4939,-3.4939,-3.4939,-3.4939,-3.4939,-3.5722,-3.632,-3.632,-3.632,-3.632,-3.632,-3.632,0.0,0.0,0.0,0.0,-3.7506,-3.8022,-3.8459,-3.878,-3.8964,-3.9055,-3.9055,-3.9216,-3.9308,-3.9308,-3.9308,-3.9767,-4.0745,-4.2206,-4.3381,-4.4287,-4.4559,-4.4668,-4.4668,-4.4668,-4.4668,-4.4709,-4.4526,-4.4212,-4.3833,-4.3507,-4.2892,-4.2198,-4.1951,-4.1638,-4.1311,-4.1311,-4.1311,-4.1311,-4.1311,-4.1311,-4.1311,-4.1311,-4.1311,-4.1311,-4.1311,-4.1311,-4.1311,-4.1311,-4.1311,-4.1311,-4.1311,-4.1311,-4.1311,-4.1311,-4.1311,-4.1311,-4.1311,-4.1311,-4.1311,-4.1311,-4.1311,-4.1311,-4.1311,-4.1311,-4.1311,-4.1311,-4.1311,-4.1311,-4.1311,-4.1141,-4.0853,-4.0448,-4.0069,-3.952,-3.8762,-3.854,-3.8357,-3.8187,-3.8004,-3.7991,-3.8174,-3.7991,-3.79,-3.79,-3.79,-3.79,-3.79,-3.79,-3.8349,-3.1743,-3.3171,-3.4414,-3.5922,-3.632,-3.632,-3.632,-3.632,-3.632,-3.632,-3.5258,-3.4314,-3.4314,-3.3899,-3.3562,-3.3562,-3.4458,-3.5218,-3.5557,-3.5704,-3.5927,-3.6266,-3.632,-3.632,0.0,0.0,0.0,-3.7758,-3.8447,-3.8975,-3.9285,-3.9308,-3.9308,-3.9308,-3.9308,-3.9308,-3.9308,-3.965,-4.0443,-4.1696,-4.3159,-4.4177,-4.4668,-4.4668,-4.4668,-4.4668,-4.4668,-4.4668,-4.4668,-4.4668,-4.4513,-4.416,-4.3951,-4.3297,-4.2448,-4.229,-4.1808,-4.1311,-4.1311,-4.1311,-4.1311,-4.1311,-4.1311,-4.1311,-4.1311,-4.1311,-4.1311,-4.1311,-4.1311,-4.1311,-4.1311,-4.1311,-4.1311,-4.1311,-4.1311,-4.1311,-4.1311,-4.1311,-4.1311,-4.1311,-4.1311,-4.1311,-4.1311,-4.1311,-4.1311,-4.1311,-4.1311,-4.1311,-4.1311,-4.1311,-4.1311,-4.1311,-4.1311,-4.1154,-4.0762,-4.054,-4.0109,-3.9364,-3.8932,-3.8553,-3.8214,-3.8004,-3.79,-3.79,-3.79,-3.79,-3.79,-3.79,-3.79,-3.79,-3.79,-3.8349,-3.3095,-3.4151,-3.473,-3.5988,-3.632,-3.632,-3.632,-3.632,-3.6266,-3.6231,-3.5104,-3.4161,0.0,0.0,-3.2297,-3.2297,-3.2757,-3.3397,-3.4293,-3.4736,-3.53,0.0,0.0,0.0,0.0,0.0,0.0,-3.7793,0.0,-3.9308,-3.9308,-3.9308,-3.9308,-3.9308,-3.9356,-3.9356,-3.9356,-4.0339,-4.1696,-4.3394,-4.4274,-4.4668,-4.4668,-4.4668,-4.4668,-4.4668,-4.4668,-4.4668,-4.4668,-4.4668,-4.4668,-4.467,-4.4134,-4.3546,-4.2958,-4.2409,-4.1834,-4.1311,-4.1311,-4.1311,-4.1311,-4.1311,-4.1311,-4.1311,-4.1311,-4.1311,-4.1311,-4.1311,-4.1311,-4.1311,-4.1311,-4.1311,-4.1311,-4.1311,-4.1311,-4.1311,-4.1311,-4.1311,-4.1311,-4.1311,-4.1311,-4.1311,-4.1311,-4.1311,-4.1311,-4.1311,-4.1311,-4.1311,-4.1311,-4.1311,-4.1311,-4.1311,-4.1311,-4.1311,-4.1311,-4.0788,-4.0448,-4.0409,-3.9377,-3.8736,-3.871,-3.8187,-3.79,-3.79,-3.79,-3.79,-3.79,-3.79,-3.79,-3.79,-3.79,-3.8349,-3.3661,-3.4842,-3.5888,-3.6231,-3.632,-3.632,-3.632,-3.632,-3.5999,-3.5016,-3.3725,-3.2523,0.0,0.0,0.0,-3.2297,-3.4075,0.0,-3.5745,-3.5902,0.0,-3.6266,0.0,-3.632,-3.632,-3.7184,0.0,0.0,-3.8723,-3.9308,-3.9308,-3.9308,-3.9308,-3.9308,-3.9989,-4.0339,-4.0339,-4.1923,-4.2936,-4.3394,-4.4274,-4.4668,-4.4668,-4.4668,-4.4668,-4.4668,-4.4668,-4.4668,-4.4668,-4.4668,-4.4668,-4.4709,-4.4565,-4.3899,-4.2997,-4.2866,-4.2173,-4.1311,-4.1311,-4.1311,-4.1311,-4.1311,-4.1311,-4.1311,-4.1311,-4.1311,-4.1311,-4.1311,-4.1311,-4.1311,-4.1311,-4.1311,-4.1311,-4.1311,-4.1311,-4.1311,-4.1311,-4.1311,-4.1311,-4.1311,-4.1311,-4.1311,-4.1311,-4.1311,-4.1311,-4.1311,-4.1311,-4.1311,-4.1311,-4.1311,-4.1311,-4.1311,-4.1311,-4.1311,-4.1311,-4.1167,-4.0893,-4.0448,-3.9756,-3.9181,-3.8723,-3.8187,-3.79,-3.79,-3.79,-3.79,-3.79,-3.79,-3.79,-3.79,-3.79,-3.8024,-3.4776,-3.5602,-3.632,-3.632,-3.632,-3.6154,-3.5545,-3.5434,-3.5016,-3.3714,-3.2362,0.0,-3.0453,0.0,0.0,0.0,0.0,0.0,-3.538,-3.5561,-3.5817,0.0,-3.632,0.0,-3.632,-3.7184,-3.7793,0.0,-3.8723,-3.9308,-3.9308,-3.9308,-3.9308,-3.9308,-4.0223,-4.1079,-4.1866,-4.288,-4.3615,-4.4,-4.445,-4.4668,-4.4668,-4.4668,-4.4668,-4.4668,0.0,-4.4668,-4.4668,-4.4668,-4.4668,-4.4668,-4.4668,-4.4029,-4.3023,-4.3023,-4.2291,-4.1311,-4.1311,-4.1311,-4.1311,-4.1311,-4.1311,-4.1311,-4.1311,-4.1311,-4.1311,-4.1311,-4.1311,-4.1311,-4.1311,-4.1311,-4.1311,-4.1311,-4.1311,-4.1311,-4.1311,-4.1311,-4.1311,-4.1311,-4.1311,-4.1311,-4.1311,-4.1311,-4.1311,-4.1311,-4.1311,-4.1311,-4.1311,-4.1311,-4.1311,-4.1311,-4.1311,-4.1311,-4.1311,-4.1311,-4.105,-4.0448,-3.9913,-3.9337,-3.8736,-3.8187,-3.79,-3.79,-3.79,-3.79,-3.79,-3.79,-3.79,-3.79,-3.79,-3.8103,-3.5922,-3.632,-3.632,-3.632,-3.632,-3.5965,-3.4588,-3.4314,-3.3877,-3.2362,0.0,-3.023,-3.0061,-3.0156,-3.0368,-3.0547,0.0,-3.3442,-3.4457,-3.4879,-3.5367,-3.6211,-3.632,-3.632,-3.632,-3.7184,-3.7793,-3.7793,-3.8723,-3.9308,-3.9308,-3.9308,-3.9414,-3.9638,-4.0443,-4.1753,-4.356,-4.356,-4.3945,-4.4668,-4.4668,-4.4668,-4.4668,-4.4668,-4.4668,-4.4668,0.0,0.0,-4.4668,-4.4668,-4.4668,-4.4668,-4.4668,-4.4029,-4.3023,-4.3023,-4.2291,-4.1311,-4.1311,-4.1311,-4.1311,-4.1311,-4.1311,-4.1311,-4.1311,-4.1311,-4.1311,-4.1311,-4.1311,-4.1311,-4.1311,-4.1311,-4.1311,-4.1311,-4.1311,-4.1311,-4.1311,-4.1311,-4.1311,-4.1311,-4.1311,-4.1311,-4.1311,-4.1311,-4.1311,-4.1311,-4.1311,-4.1311,-4.1311,-4.1311,-4.1311,-4.1311,-4.1311,-4.1285,-4.1206,-4.1193,-4.0945,-4.0344,-3.9795,-3.9259,-3.8723,-3.8187,-3.79,-3.79,-3.79,-3.79,-3.79,-3.79,-3.79,-3.79,-3.79,-3.8349,-3.6243,-3.632,-3.632,-3.632,-3.632,-3.5965,-3.4588,-3.4314,0.0,0.0,-3.0463,-2.9977,-2.8832,-2.9524,-3.0632,-3.1782,0.0,0.0,0.0,0.0,-3.6102,0.0,0.0,0.0,0.0,0.0,0.0,0.0,0.0,-3.9308,-3.9308,-3.9308,-3.9978,-4.1513,-4.1684,-4.2644,-4.445,-4.445,-4.4559,-4.4668,-4.4668,-4.4668,-4.4668,-4.4668,-4.4668,-4.4668,-4.4668,0.0,-4.4668,-4.4668,-4.4668,-4.4668,-4.4668,-4.4029,-4.3023,-4.3023,-4.2291,-4.1311,-4.1311,-4.1311,-4.1311,-4.1311,-4.1311,-4.1311,-4.1311,-4.1311,-4.1311,-4.1311,-4.1311,-4.1311,-4.1311,-4.1311,-4.1311,-4.1311,-4.1311,-4.1311,-4.1311,-4.1311,-4.1311,-4.1311,-4.1311,-4.1311,-4.1311,-4.1311,-4.1311,-4.1311,-4.1311,-4.1311,-4.1311,-4.1311,-4.1311,-4.1311,-4.1311,-4.1115,-4.0618,-4.0566,-4.0331,-3.9782,-3.9194,-3.8815,-3.871,-3.8187,-3.79,-3.79,-3.79,-3.79,-3.79,-3.79,-3.79,-3.79,-3.79,-3.8349,-3.632,-3.632,-3.632,-3.632,-3.632,-3.5788,-3.3714,0.0,0.0,0.0,-2.9273,-2.9053,-2.8437,0.0,0.0,0.0,0.0,0.0,0.0,0.0,0.0,0.0,0.0,0.0,0.0,0.0,0.0,0.0,0.0,-3.9033,-3.9297,-3.9767,-4.0605,-4.1955,-4.2476,-4.3381,-4.4668,-4.4668,-4.4668,-4.4668,-4.4668,-4.4668,-4.4668,-4.4668,-4.4668,-4.4668,-4.4668,0.0,-4.4668,-4.4668,-4.4668,-4.4642,-4.4395,-4.3768,-4.2984,-4.2683,-4.2043,-4.1311,-4.1311,-4.1311,-4.1311,-4.1311,-4.1311,-4.1311,-4.1311,-4.1311,-4.1311,-4.1311,-4.1311,-4.1311,-4.1311,-4.1311,-4.1311,-4.1311,-4.1311,-4.1311,-4.1311,-4.1311,-4.1311,-4.1311,-4.1311,-4.1311,-4.1311,-4.1311,-4.1311,-4.1311,-4.1311,-4.1311,-4.1311,-4.1311,-4.1311,-4.1311,-4.1311,-4.1076,-4.0461,-4.0409,-4.0056,-3.9194,-3.8867,-3.8579,-3.8305,-3.8044,-3.79,-3.79,-3.79,-3.79,-3.79,-3.79,-3.79,-3.79,-3.79,-3.8349,-3.6188,-3.632,-3.632,-3.632,-3.632,-3.5622,-3.289,-3.2297,0.0,0.0,-2.8291,-2.8291,-2.8291,0.0,0.0,0.0,0.0,0.0,0.0,0.0,0.0,0.0,0.0,0.0,0.0,0.0,0.0,0.0,0.0,0.0,-3.9568,-4.0106,-4.0952,-4.225,-4.2824,-4.3615,-4.4668,-4.4668,-4.4668,-4.4668,-4.4668,-4.4668,-4.4668,-4.4668,-4.4668,-4.4668,-4.4668,0.0,0.0,-4.4668,-4.4668,-4.467,-4.4095,-4.352,-4.2958,-4.2383,-4.1808,-4.1311,-4.1311,-4.1311,-4.1311,-4.1311,-4.1311,-4.1311,-4.1311,-4.1311,-4.1311,-4.1311,-4.1311,-4.1311,-4.1311,-4.1311,-4.1311,-4.1311,-4.1311,-4.1311,-4.1311,-4.1311,-4.1311,-4.1311,-4.1311,-4.1311,-4.1311,-4.1311,-4.1311,-4.1311,-4.1311,-4.1311,-4.1311,-4.1311,-4.1259,-4.1141,-4.1128,-4.088,-4.0292,-4.0122,-3.9612,-3.8606,-3.854,-3.8344,-3.7926,-3.79,-3.79,-3.79,-3.79,-3.79,-3.79,-3.79,-3.79,-3.79,-3.79,-3.8349,-3.5911,-3.632,-3.632,-3.632,-3.632,-3.5622,-3.289,0.0,0.0,-2.8832,-2.8291,-2.8291,-2.8291,-2.8374,-2.8896,0.0,0.0,-3.1515,0.0,0.0,0.0,0.0,0.0,0.0,0.0,0.0,0.0,0.0,0.0,0.0,-4.0559,-3.9814,-4.0617,-4.3172,-4.2532,-4.2979,-4.4668,-4.4668,-4.4668,-4.4668,-4.4668,-4.4668,-4.4668,-4.4668,-4.4668,-4.4668,-4.4668,0.0,0.0,-4.4668,-4.4668,-4.467,-4.4095,-4.352,-4.2958,-4.2383,-4.1808,-4.1311,-4.1311,-4.1311,-4.1311,-4.1311,-4.1311,-4.1311,-4.1311,-4.1311,-4.1311,-4.1311,-4.1311,-4.1311,-4.1311,-4.1311,-4.1311,-4.1311,-4.1311,-4.1311,-4.1311,-4.1311,-4.1311,-4.1311,-4.1311,-4.1311,-4.1311,-4.1311,-4.1311,-4.1311,-4.1311,-4.1311,-4.1311,-4.1311,-4.1102,-4.0553,-4.0501,-4.0278,-3.973,-3.9181,-3.8606,-3.8018,-3.7978,-3.7952,-3.79,-3.79,-3.79,-3.79,-3.79,-3.79,-3.79,-3.79,-3.79,-3.79,-3.79,-3.8349,-3.5845,-3.632,-3.632,-3.632,-3.5591,-3.4403,-3.2717,0.0,0.0,-2.8623,-2.8291,-2.8291,-2.8291,-2.8291,-2.8447,0.0,0.0,0.0,0.0,0.0,0.0,0.0,0.0,0.0,0.0,0.0,0.0,0.0,0.0,0.0,-4.2307,-4.1968,-4.2263,-4.3394,-4.3547,-4.3987,-4.4668,-4.4668,-4.4668,-4.4668,-4.4668,-4.4668,-4.4668,-4.4668,-4.4668,-4.4668,-4.4668,0.0,0.0,-4.4668,-4.4526,-4.416,-4.3585,-4.301,-4.2435,-4.186,-4.152,-4.1311,-4.1311,-4.1311,-4.1311,-4.1311,-4.1311,-4.1311,-4.1311,-4.1311,-4.1311,-4.1311,-4.1311,-4.1311,-4.1311,-4.1311,-4.1311,-4.1311,-4.1311,-4.1311,-4.1311,-4.1311,-4.1311,-4.1311,-4.1311,-4.1311,-4.1311,-4.1311,-4.1311,-4.1311,-4.1311,-4.118,-4.0827,-4.0775,-4.0553,-3.9991,-4.0226,-4.0056,-3.9141,-3.8841,-3.8475,-3.7939,-3.79,-3.79,-3.79,-3.79,-3.79,-3.79,-3.79,-3.79,-3.79,-3.79,-3.79,-3.79,-3.79,-3.807,-3.5128,-3.5934,-3.632,-3.632,-3.5095,-3.3617,0.0,0.0,0.0,-2.854,-2.8291,-2.8291,-2.8291,-2.8291,-2.8291,0.0,0.0,-2.9829,0.0,0.0,0.0,0.0,0.0,0.0,0.0,0.0,0.0,0.0,0.0,0.0,0.0,-4.3415,-4.3614,-4.378,-4.411,-4.445,-4.4668,-4.4668,-4.4668,-4.4668,-4.4668,-4.4668,-4.4668,-4.4668,-4.4668,-4.4668,0.0,0.0,0.0,-4.4474,-4.4134,-4.3559,-4.2997,-4.2526,-4.2146,-4.152,-4.1311,-4.1311,-4.1311,-4.1311,-4.1311,-4.1311,-4.1311,-4.1311,-4.1311,-4.1311,-4.1311,-4.1311,-4.1311,-4.1311,-4.1311,-4.1311,-4.1311,-4.1311,-4.1311,-4.1311,-4.1311,-4.1311,-4.1311,-4.1311,-4.1311,-4.1311,-4.1311,-4.1311,-4.1311,-4.1311,-4.1167,-4.0893,-4.0461,-4.0278,-3.9965,-3.9403,-3.9677,-3.9586,-3.8776,-3.8566,-3.8305,-3.7926,-3.79,-3.79,-3.79,-3.79,-3.79,-3.79,-3.79,-3.79,-3.79,-3.79,-3.79,-3.79,-3.79,-3.79,-3.3443,-3.5095,-3.632,-3.632,-3.5095,-3.3617,0.0,0.0,0.0,-2.854,-2.8291,-2.8291,-2.8291,-2.8291,-2.8291,-2.8291,-2.8291,0.0,0.0,0.0,0.0,0.0,0.0,0.0,0.0,0.0,0.0,0.0,0.0,0.0,0.0,-4.3379,-4.4147,-4.4655,-4.3835,-4.3835,-4.4668,-4.4668,-4.4668,-4.4668,-4.4668,-4.4668,-4.4668,-4.4668,-4.4668,0.0,0.0,0.0,0.0,-4.3939,-4.3546,-4.2971,-4.2396,-4.2224,-4.2146,-4.152,-4.1311,-4.1311,-4.1311,-4.1311,-4.1311,-4.1311,-4.1311,-4.1311,-4.1311,-4.1311,-4.1311,-4.1311,-4.1311,-4.1311,-4.1311,-4.1311,-4.1311,-4.1311,-4.1311,-4.1311,-4.1311,-4.1311,-4.1311,-4.1311,-4.1311,-4.1311,-4.1311,-4.1311,-4.1311,-4.1311,-4.0814,-4.0422,-4.0409,-3.9952,-3.939,-3.8776,-3.8723,-3.8723,-3.871,-3.8214,-3.7913,-3.79,-3.79,-3.79,-3.79,-3.79,-3.79,-3.79,-3.79,-3.79,-3.79,-3.79,-3.79,-3.79,-3.79,-3.79,-3.1753,-3.2541,-3.2932,-3.2932,-3.1753,-3.051,-3.0367,0.0,0.0,-2.8043,-2.8184,-2.8291,-2.8291,-2.8291,-2.8291,-2.8291,-2.8291,0.0,0.0,0.0,0.0,0.0,0.0,0.0,0.0,0.0,0.0,0.0,0.0,0.0,0.0,-4.3127,-4.3729,-4.4642,-4.445,-4.4396,-4.4668,-4.4668,-4.4668,-4.4668,-4.4668,-4.4668,-4.4709,-4.433,0.0,0.0,0.0,0.0,0.0,-4.3284,-4.2958,-4.2422,-4.229,-4.1925,-4.1559,-4.1376,-4.1311,-4.1311,-4.1311,-4.1311,-4.1311,-4.1311,-4.1311,-4.1311,-4.1311,-4.1311,-4.1311,-4.1311,-4.1311,-4.1311,-4.1311,-4.1311,-4.1311,-4.1311,-4.1311,-4.1311,-4.1311,-4.1311,-4.1311,-4.1311,-4.1311,-4.1311,-4.1311,-4.1311,-4.1167,-4.0762,-4.054,-4.0135,-3.9351,-3.9102,-3.8776,-3.8214,-3.8161,-3.8161,-3.8161,-3.8004,-3.79,-3.79,-3.79,-3.79,-3.79,-3.79,-3.79,-3.79,-3.79,-3.79,-3.79,-3.79,-3.79,-3.79,-3.8517,-3.8472,0.0,-3.0936,-3.1397,-3.1397,-3.0186,0.0,0.0,0.0,0.0,0.0,0.0,-2.8291,-2.8291,-2.8291,-2.8291,-2.8291,-2.8291,0.0,0.0,0.0,0.0,0.0,0.0,0.0,0.0,0.0,0.0,0.0,0.0,0.0,0.0,-4.2696,-4.3127,-4.4055,-4.4081,-4.4081,-4.4081,-4.4081,-4.4081,-4.4081,-4.4081,-4.4081,-4.4068,-4.3716,0.0,0.0,0.0,0.0,0.0,-4.2696,-4.2356,-4.1847,-4.1847,-4.1625,-4.1311,-4.1311,-4.1311,-4.1311,-4.1311,-4.1311,-4.1311,-4.1311,-4.1311,-4.1311,-4.1311,-4.1311,-4.1311,-4.1311,-4.1311,-4.1311,-4.1311,-4.1311,-4.1311,-4.1311,-4.1311,-4.1311,-4.1311,-4.1311,-4.1311,-4.1311,-4.1311,-4.1311,-4.1311,-4.1128,-4.084,-4.0474,-4.0043,-3.952,-3.8802,-3.8527,-3.8279,-3.7939,-3.79,-3.79,-3.79,-3.79,-3.79,-3.79,-3.79,-3.79,-3.79,-3.79,-3.79,-3.79,-3.79,-3.79,-3.79,-3.79,-3.79,-3.79,-3.8233,-3.8081,0.0,-2.9898,0.0,0.0,0.0,0.0,0.0,0.0,0.0,0.0,0.0,0.0,-2.8291,-2.8291,-2.8291,-2.8291,-2.8291,0.0,0.0,0.0,0.0,0.0,0.0,0.0,0.0,0.0,0.0,0.0,0.0,0.0,0.0,-4.2159,-4.2343,-4.2879,-4.2892,-4.2944,-4.3023,-4.3023,-4.3023,-4.3023,-4.3023,-4.3023,-4.3023,-4.2984,0.0,0.0,0.0,0.0,0.0,-4.2159,-4.1794,-4.1311,-4.1311,-4.1311,-4.1311,-4.1311,-4.1311,-4.1311,-4.1311,-4.1311,-4.1311,-4.1311,-4.1311,-4.1311,-4.1311,-4.1311,-4.1311,-4.1311,-4.1311,-4.1311,-4.1311,-4.1311,-4.1311,-4.1311,-4.1311,-4.1311,-4.1311,-4.1311,-4.1311,-4.1311,-4.1311,-4.1298,-4.1259,-4.0788,-4.0383,-4.0305,-3.939,-3.8697,-3.8658,-3.8214,-3.79,-3.79,-3.79,-3.79,-3.79,-3.79,-3.79,-3.79,-3.79,-3.79,-3.79,-3.79,-3.79,-3.79,-3.79,-3.79,-3.79,-3.7861,-3.7848,-3.7821,-3.731,-3.7022,-2.7075,0.0,-2.7716,-2.7716,-2.7431,-2.7202,0.0,0.0,0.0,0.0,0.0,0.0,0.0,-2.8291,-2.8291,-2.8291,0.0,0.0,0.0,0.0,0.0,0.0,0.0,0.0,0.0,0.0,0.0,0.0,0.0,0.0,0.0,-4.152,-4.1572,-4.1716,-4.1716,-4.2134,-4.301,-4.3023,-4.3023,-4.3023,-4.3023,-4.3023,-4.301,-4.2565,0.0,0.0,0.0,0.0,-4.152,-4.152,-4.1442,-4.1311,-4.1311,-4.1311,-4.1311,-4.1311,-4.1311,-4.1311,-4.1311,-4.1311,-4.1311,-4.1311,-4.1311,-4.1311,-4.1311,-4.1311,-4.1311,-4.1311,-4.1311,-4.1311,-4.1311,-4.1311,-4.1311,-4.1311,-4.1311,-4.1311,-4.1311,-4.1311,-4.1311,-4.1311,-4.1311,-4.1167,-4.071,-4.0501,-4.0122,-3.9246,-3.888,-3.8553,-3.8148,-3.7978,-3.79,-3.79,-3.79,-3.79,-3.79,-3.79,-3.79,-3.79,-3.79,-3.79,-3.79,-3.79,-3.79,-3.79,-3.79,-3.79,-3.79,-3.7442,-3.722,-3.7194,-3.7314,-3.7378,-2.6591,-2.6591,-2.6591,-2.6591,-2.6591,-2.6591,-2.6591,0.0,0.0,0.0,0.0,0.0,0.0,0.0,0.0,0.0,0.0,0.0,0.0,0.0,0.0,0.0,0.0,0.0,0.0,0.0,0.0,0.0,0.0,0.0,0.0,-4.1311,-4.1311,-4.1311,-4.1311,-4.1611,-4.2226,-4.2239,-4.2239,-4.2239,-4.2239,-4.2239,-4.2226,-4.1912,-4.1781,0.0,0.0,0.0,-4.1311,-4.1311,-4.1311,-4.1311,-4.1311,-4.1311,-4.1311,-4.1311,-4.1311,-4.1311,-4.1311,-4.1311,-4.1311,-4.1311,-4.1311,-4.1311,-4.1311,-4.1311,-4.1311,-4.1311,-4.1311,-4.1311,-4.1311,-4.1311,-4.1311,-4.1311,-4.1311,-4.1311,-4.1311,-4.1311,-4.1232,-4.0958,-4.0906,-4.0723,-4.0148,-3.9808,-3.9416,-3.8802,-3.8501,-3.824,-3.7939,-3.79,-3.79,-3.79,-3.79,-3.79,-3.79,-3.79,-3.79,-3.79,-3.79,-3.79,-3.79,-3.79,-3.79,-3.79,-3.7639,-3.7495,-3.7495,-3.6881,-3.6593,-3.6567,-3.69,-3.7039,-2.6591,-2.6792,-2.6928,-2.6655,-2.6591,-2.6591,-2.6591,0.0,0.0,0.0,0.0,0.0,0.0,-2.8814,0.0,0.0,0.0,0.0,0.0,0.0,0.0,0.0,0.0,0.0,0.0,0.0,0.0,0.0,0.0,0.0,0.0,-4.1311,-4.1311,-4.1311,-4.1311,-4.1311,-4.1311,-4.1311,-4.1311,-4.1311,-4.1311,-4.1311,-4.1311,-4.1311,-4.1311,0.0,0.0,0.0,-4.1311,-4.1311,-4.1311,-4.1311,-4.1311,-4.1311,-4.1311,-4.1311,-4.1311,-4.1311,-4.1311,-4.1311,-4.1311,-4.1311,-4.1311,-4.1311,-4.1311,-4.1311,-4.1311,-4.1311,-4.1311,-4.1311,-4.1311,-4.1311,-4.1311,-4.1311,-4.1311,-4.1311,-4.1311,-4.1246,-4.1023,-4.0514,-4.0344,-4.0122,-3.9573,-3.905,-3.8684,-3.8606,-3.82,-3.79,-3.79,-3.79,-3.79,-3.79,-3.79,-3.79,-3.79,-3.79,-3.79,-3.79,-3.79,-3.7861,-3.7769,-3.7769,-3.773,-3.7639,-3.7129,-3.6867,-3.6867,-3.6266,-3.5979,-3.5966,-3.6129,-3.625,-2.6591,-2.7578,-2.8295,-2.6938,-2.6591,-2.6591,-2.6591,0.0,0.0,0.0,0.0,0.0,0.0,0.0,0.0,0.0,0.0,0.0,0.0,0.0,0.0,0.0,0.0,0.0,0.0,0.0,0.0,0.0,0.0,0.0,0.0,0.0,-4.1311,-4.1311,-4.1311,-4.1311,-4.1311,-4.1311,-4.1311,-4.1311,-4.1311,-4.1311,-4.1311,-4.1311,-4.1311,0.0,0.0,-4.1311,-4.1311,-4.1311,-4.1311,-4.1311,-4.1311,-4.1311,-4.1311,-4.1311,-4.1311,-4.1311,-4.1311,-4.1311,-4.1311,-4.1311,-4.1311,-4.1311,-4.1311,-4.1311,-4.1311,-4.1311,-4.1311,-4.1311,-4.1311,-4.1311,-4.1311,-4.1311,-4.1311,-4.1311,-4.1311,-4.0919,-4.0527,-4.0435,-4.0043,-3.9547,-3.8945,-3.8776,-3.8553,-3.8096,-3.7952,-3.79,-3.79,-3.79,-3.79,-3.79,-3.79,-3.79,-3.79,-3.79,-3.79,-3.79,-3.79,-3.7678,-3.7168,-3.7142,-3.6907,-3.6397,-3.6292,-3.624,-3.624,-3.5691,-3.5417,-3.5404,-3.4929,-3.5124,-2.6591,-2.7148,-2.7869,-2.8447,-2.9252,-2.9755,-2.9317,-3.0123,0.0,0.0,0.0,0.0,0.0,0.0,0.0,0.0,0.0,0.0,0.0,0.0,0.0,0.0,0.0,0.0,0.0,0.0,0.0,0.0,0.0,0.0,0.0,0.0,-4.1311,-4.1311,-4.1311,-4.1311,-4.1311,-4.1311,-4.1311,-4.1311,-4.1311,-4.1311,-4.1311,-4.1311,-4.1311,-4.1311,0.0,-4.1311,-4.1311,-4.1311,-4.1311,-4.1311,-4.1311,-4.1311,-4.1311,-4.1311,-4.1311,-4.1311,-4.1311,-4.1311,-4.1311,-4.1311,-4.1311,-4.1311,-4.1311,-4.1311,-4.1311,-4.1311,-4.1311,-4.1311,-4.1311,-4.1311,-4.1311,-4.1311,-4.1311,-4.1219,-4.0893,-4.0618,-4.0239,-3.9612,-3.9298,-3.8945,-3.837,-3.8279,-3.8187,-3.7939,-3.79,-3.79,-3.79,-3.79,-3.79,-3.79,-3.79,-3.79,-3.79,-3.7599,-3.7416,-3.7416,-3.7416,-3.7142,-3.6541,-3.6515,-3.6384,-3.6109,-3.5822,-3.5665,-3.5665,-3.509,-3.4816,-3.4803,-3.5001,-3.5534,-2.6591,-2.6865,-2.763,-2.9541,0.0,-3.1421,-3.1878,-3.2714,0.0,0.0,0.0,0.0,0.0,0.0,0.0,0.0,0.0,0.0,0.0,0.0,0.0,0.0,0.0,0.0,0.0,0.0,0.0,0.0,0.0,0.0,0.0,0.0,-4.1311,-4.1311,-4.1311,-4.1311,-4.1311,-4.1311,-4.1311,-4.1311,-4.1311,-4.1311,-4.1311,-4.1311,-4.1311,-4.1311,-4.1311,-4.1311,-4.1311,-4.1311,-4.1311,-4.1311,-4.1311,-4.1311,-4.1311,-4.1311,-4.1311,-4.1311,-4.1311,-4.1311,-4.1311,-4.1311,-4.1311,-4.1311,-4.1311,-4.1311,-4.1311,-4.1311,-4.1311,-4.1311,-4.1311,-4.1311,-4.1272,-4.1141,-4.1102,-4.0945,-4.0357,-4.0122,-3.9756,-3.888,-3.8606,-3.8383,-3.7978,-3.79,-3.79,-3.79,-3.79,-3.79,-3.79,-3.79,-3.79,-3.79,-3.7782,-3.7639,-3.7495,-3.705,-3.6737,-3.6606,-3.6724,-3.6528,-3.594,-3.5913,-3.5848,-3.5704,-3.5299,-3.509,-3.509,-3.462,-3.4397,-3.4439,-3.5264,-3.6042,-2.6591,-2.7706,-2.8867,-2.905,-2.8036,0.0,-3.2687,-3.2081,0.0,-3.3586,0.0,0.0,0.0,0.0,0.0,0.0,0.0,0.0,0.0,0.0,0.0,0.0,0.0,0.0,0.0,0.0,0.0,0.0,0.0,0.0,0.0,0.0,0.0,-4.1311,-4.1311,-4.1311,-4.1311,-4.1311,-4.1311,-4.1311,-4.1311,-4.1311,-4.1311,-4.1311,-4.1311,-4.1311,-4.1311,-4.1311,-4.1311,-4.1311,-4.1311,-4.1311,-4.1311,-4.1311,-4.1311,-4.1311,-4.1311,-4.1311,-4.1311,-4.1311,-4.1311,-4.1311,-4.1311,-4.1311,-4.1311,-4.1311,-4.1311,-4.1311,-4.1311,-4.1311,-4.1311,-4.1311,-4.1167,-4.0618,-4.0474,-4.0331,-3.9782,-3.9233,-3.8815,-3.8723,-3.8305,-3.7952,-3.7913,-3.79,-3.79,-3.79,-3.79,-3.79,-3.79,-3.79,-3.79,-3.79,-3.7403,-3.6841,-3.6279,-3.6188,-3.5953,-3.5443,-3.5887,-3.5926,-3.5378,-3.5351,-3.509,-3.4528,-3.4476,-3.4463,-3.4463,-3.441,-3.4397,-3.4439,-3.5264,-3.5749,-2.6527,-2.8176,-2.99,-3.0212,-2.9608,0.0,0.0,-3.476,-3.5034,-3.577,-3.6335,0.0,0.0,0.0,0.0,0.0,0.0,0.0,0.0,0.0,0.0,0.0,0.0,0.0,0.0,0.0,0.0,0.0,0.0,0.0,0.0,0.0,0.0,-4.1311,-4.1311,-4.1311,-4.1311,-4.1311,-4.1311,-4.1311,-4.1311,-4.1311,-4.1311,-4.1311,-4.1311,-4.1311,-4.1311,-4.1311,-4.1311,-4.1311,-4.1311,-4.1311,-4.1311,-4.1311,-4.1311,-4.1311,-4.1311,-4.1311,-4.1311,-4.1311,-4.1311,-4.1311,-4.1311,-4.1311,-4.1311,-4.1311,-4.1311,-4.1311,-4.105,-4.084,-4.1219,-4.1036,-4.0697,-4.0461,-4.0161,-3.9756,-3.9181,-3.8867,-3.8606,-3.8279,-3.8044,-3.79,-3.79,-3.79,-3.79,-3.79,-3.79,-3.79,-3.79,-3.79,-3.7756,-3.7377,-3.6802,-3.6214,-3.5652,-3.56,-3.5365,-3.4776,-3.5273,-3.5338,-3.4763,-3.4737,-3.4633,-3.4397,-3.4397,-3.4397,-3.4397,-3.4397,-3.4675,-3.5196,-3.4991,-3.5749,-2.7008,-2.8393,-2.9921,-3.0884,0.0,0.0,-3.4847,-3.6025,-3.6732,-3.7717,-3.8186,0.0,0.0,0.0,0.0,0.0,0.0,0.0,0.0,0.0,0.0,0.0,0.0,0.0,0.0,0.0,0.0,0.0,0.0,0.0,0.0,0.0,0.0,0.0,-4.1311,-4.1311,-4.1311,-4.1311,-4.1311,-4.1311,-4.1311,-4.1311,-4.1311,-4.1311,-4.1311,-4.1311,-4.1311,-4.1311,-4.1311,-4.1311,-4.1311,-4.1311,-4.1311,-4.1311,-4.1311,-4.1311,-4.1311,-4.1311,-4.1311,-4.1311,-4.1311,-4.1311,-4.1311,-4.1311,-4.1311,-4.1311,-4.1272,-4.1089,-4.0736,-4.0474,-4.071,-4.0474,-4.0109,-3.9926,-3.9586,-3.9168,-3.8579,-3.8462,-3.8344,-3.7978,-3.79,-3.79,-3.79,-3.79,-3.79,-3.79,-3.79,-3.7835,-3.7639,-3.7625,-3.7325,-3.6554,-3.6096,-3.5626,-3.5064,-3.5012,-3.4842,-3.4424,-3.4789,-3.4829,-3.441,-3.4397,-3.4397,-3.4397,-3.4397,-3.4397,-3.4397,-3.4397,-3.4716,-3.5264,-3.495,-3.5896,-2.8077,-2.8344,-2.8797,0.0,0.0,0.0,-3.5923,-3.5294,-3.5177,-3.949,0.0,-3.8932,-3.8919,0.0,0.0,0.0,0.0,0.0,0.0,0.0,0.0,0.0,0.0,0.0,0.0,0.0,0.0,0.0,0.0,0.0,0.0,0.0,0.0,0.0,-4.1311,-4.1311,-4.1311,-4.1311,-4.1311,-4.1311,-4.1311,-4.1311,-4.1311,-4.1311,-4.1311,-4.1311,-4.1311,-4.1311,-4.1311,-4.1311,-4.1311,-4.1311,-4.1311,-4.1311,-4.1311,-4.1311,-4.1311,-4.1311,-4.1311,-4.1311,-4.1311,-4.1311,-4.1311,-4.1311,-4.1311,-4.1311,-4.118,-4.0579,-4.0409,-4.0278,-3.9743,-3.9599,-3.9442,-3.8854,-3.871,-3.8553,-3.8018,-3.79,-3.79,-3.79,-3.79,-3.79,-3.79,-3.79,-3.79,-3.79,-3.79,-3.7678,-3.7077,-3.6998,-3.6554,-3.5417,-3.5286,-3.5051,-3.445,-3.4397,-3.4397,-3.4397,-3.4397,-3.4397,-3.4397,-3.4397,-3.4397,-3.4397,-3.4397,-3.4397,-3.4397,-3.4397,-3.4439,-3.4426,-3.5305,-3.6162,-2.8014,-3.0558,0.0,-3.1907,0.0,0.0,0.0,-3.6658,0.0,0.0,0.0,0.0,0.0,0.0,0.0,0.0,0.0,0.0,0.0,0.0,0.0,0.0,0.0,0.0,0.0,0.0,0.0,0.0,0.0,0.0,0.0,0.0,0.0,0.0,-4.1311,-4.1311,-4.1311,-4.1311,-4.1311,-4.1311,-4.1311,-4.1311,-4.1311,-4.1311,-4.1311,-4.1311,-4.1311,-4.1311,-4.1311,-4.1311,-4.1311,-4.1311,-4.1311,-4.1311,-4.1311,-4.1311,-4.1311,-4.1311,-4.1311,-4.1311,-4.1311,-4.1311,-4.1311,-4.1232,-4.0814,-4.0684,-4.0566,-4.0004,-3.9547,-3.9181,-3.9024,-3.8697,-3.8462,-3.8658,-3.8423,-3.8096,-3.7939,-3.79,-3.79,-3.79,-3.79,-3.79,-3.79,-3.79,-3.7756,-3.7338,-3.7273,-3.705,-3.6449,-3.6044,-3.5678,-3.5338,-3.492,-3.4593,-3.441,-3.4397,-3.4397,-3.4397,-3.4397,-3.4397,-3.4397,-3.4397,-3.4397,-3.4397,-3.4397,-3.4397,-3.4397,-3.5032,-3.5615,-3.6148,-3.6425,-3.7295,-2.9515,-3.2021,0.0,0.0,0.0,0.0,0.0,0.0,0.0,0.0,0.0,0.0,0.0,0.0,0.0,0.0,0.0,0.0,0.0,0.0,0.0,0.0,0.0,0.0,0.0,0.0,0.0,0.0,0.0,0.0,0.0,0.0,0.0,0.0,-4.1193,-4.1311,-4.1311,-4.1311,-4.1311,-4.1311,-4.1311,-4.1311,-4.1311,-4.1311,-4.1311,-4.1311,-4.1311,-4.1311,-4.1311,-4.1311,-4.1311,-4.1311,-4.1311,-4.1311,-4.1311,-4.1311,-4.1311,-4.1311,-4.1311,-4.1311,-4.1272,-4.1036,-4.0958,-4.084,-4.0278,-4.0095,-3.9978,-3.9416,-3.8985,-3.8658,-3.8449,-3.8148,-3.7978,-3.8318,-3.8135,-3.79,-3.79,-3.79,-3.79,-3.79,-3.79,-3.79,-3.79,-3.7704,-3.7429,-3.705,-3.6619,-3.6188,-3.5822,-3.5286,-3.4933,-3.4933,-3.462,-3.4397,-3.4397,-3.4397,-3.4397,-3.4397,-3.4397,-3.4397,-3.4397,-3.4397,-3.4397,-3.4397,-3.4397,-3.4551,-3.4909,-3.5114,-3.5615,-3.6425,-3.6068,-3.6621,-3.188,0.0,0.0,0.0,0.0,0.0,0.0,0.0,0.0,0.0,0.0,0.0,0.0,0.0,0.0,0.0,0.0,0.0,0.0,0.0,0.0,0.0,0.0,0.0,0.0,0.0,0.0,0.0,0.0,0.0,0.0,0.0,0.0,0.0,-4.088,-4.1167,-4.1167,-4.1167,-4.1167,0.0,-4.1167,-4.1167,-4.1167,-4.1272,-4.1311,-4.1311,-4.1311,-4.1311,-4.1311,-4.1311,-4.1311,-4.1311,-4.1311,-4.1311,-4.1311,-4.1311,-4.1285,-4.1232,-4.1232,-4.1206,-4.1076,-4.0527,-4.0344,-4.0239,-3.969,-3.9534,-3.9403,-3.8802,-3.8645,-3.8514,-3.8031,-3.79,-3.79,-3.79,-3.79,-3.79,-3.79,-3.79,-3.79,-3.79,-3.7861,-3.7821,-3.7821,-3.7325,-3.6907,-3.6854,-3.5913,-3.5221,-3.5221,-3.4737,-3.4397,-3.4397,-3.4397,-3.4397,-3.4397,-3.4397,-3.4397,-3.4397,-3.4397,-3.4397,-3.4397,-3.4397,-3.4397,-3.4397,-3.4397,-3.4799,-3.5588,-3.4868,-3.4909,-3.5669,-3.5032,-3.5155,0.0,-3.4005,0.0,0.0,0.0,0.0,0.0,0.0,0.0,0.0,0.0,0.0,0.0,0.0,0.0,0.0,0.0,0.0,0.0,0.0,0.0,0.0,0.0,0.0,0.0,0.0,0.0,0.0,0.0,0.0,0.0,0.0,0.0,-3.9782,-3.9913,-3.9978,-3.9978,-3.9978,-3.9978,0.0,-3.9978,-3.9978,-4.0004,-4.0906,-4.1311,-4.1311,-4.1311,-4.1311,-4.1311,-4.1311,-4.1311,-4.1311,-4.1311,-4.1311,-4.1311,-4.1311,-4.1023,-4.0605,-4.0605,-4.0331,-3.9952,-3.9821,-3.9782,-3.9677,-3.9076,-3.8906,-3.8789,-3.824,-3.807,-3.8057,-3.7926,-3.79,-3.79,-3.79,-3.79,-3.79,-3.79,-3.79,-3.79,-3.79,-3.7521,-3.7194,-3.7194,-3.6698,-3.6149,-3.573,-3.5051,-3.4593,-3.4593,-3.4476,-3.4397,-3.4397,-3.4397,-3.4397,-3.4397,-3.4397,-3.4397,-3.4397,-3.4397,-3.4397,-3.4397,-3.4397,-3.4397,-3.4397,-3.4397,-3.4481,-3.4675,-3.5196,-3.5507,-3.5749,-3.6858,-3.7491,0.0,0.0,0.0,0.0,0.0,0.0,0.0,0.0,0.0,0.0,0.0,0.0,0.0,0.0,0.0,0.0,0.0,0.0,0.0,0.0,0.0,0.0,0.0,0.0,0.0,0.0,0.0,0.0,0.0,0.0,0.0,-3.9037,-3.9181,-3.9181,-3.9455,-3.9612,-3.9612,-3.9612,-3.9612,-3.9612,-3.9612,-3.9612,-3.9625,-4.0226,-4.0501,-4.0501,-4.0501,-4.0501,-4.0501,-4.0501,-4.0501,-4.0501,-4.0501,-4.0501,-4.0501,-4.0501,-4.0305,-4.003,-4.003,-3.9847,-3.956,-3.9272,-3.9181,-3.9076,-3.8501,-3.8331,-3.8266,-3.7978,-3.79,-3.79,-3.79,-3.79,-3.79,-3.79,-3.79,-3.79,-3.79,-3.79,-3.7821,-3.7534,-3.722,-3.692,-3.6619,-3.6096,-3.5521,-3.4946,-3.4593,-3.4397,-3.4397,-3.4397,-3.4397,-3.4397,-3.4397,-3.4397,-3.4397,-3.4397,-3.4397,-3.4397,-3.4397,-3.4397,-3.4397,-3.4397,-3.4397,-3.4397,-3.4799,-3.5223,-3.5602,-3.6042,-3.6478,-3.6897,-3.7347,-3.7577,0.0,0.0,0.0,0.0,0.0,0.0,0.0,0.0,0.0,0.0,0.0,0.0,0.0,0.0,0.0,0.0,0.0,0.0,0.0,0.0,0.0,0.0,0.0,0.0,0.0,0.0,0.0,0.0,0.0,0.0,-3.79,-3.8331,-3.8566,-3.8566,-3.905,-3.9311,-3.9311,-3.9311,-3.9311,-3.9311,-3.9311,-3.9311,-3.9311,-3.9311,-3.9416,-3.9612,-3.9612,-3.9612,-3.9612,-3.9612,-3.9612,-3.9612,-3.9612,-3.9612,-3.9612,-3.9612,-3.9547,-3.9455,-3.9455,-3.939,-3.9233,-3.8723,-3.8566,-3.8488,-3.8031,-3.79,-3.79,-3.79,-3.79,-3.79,-3.79,-3.79,-3.79,-3.79,-3.7821,-3.7743,-3.7743,-3.7743,-3.7573,-3.6972,-3.6776,-3.6515,-3.5913,-3.5443,-3.4972,-3.4476,-3.4397,-3.4397,-3.4397,-3.4397,-3.4397,-3.4397,-3.4397,-3.4397,-3.4397,-3.4397,-3.4397,-3.4397,-3.4397,-3.4397,-3.4397,-3.4397,-3.4397,-3.4397,-3.5264,-3.6016,-3.6685,-3.6685,-3.7141,-3.7947,-3.7256,-3.6972,0.0,0.0,0.0,0.0,0.0,0.0,0.0,0.0,0.0,0.0,0.0,0.0,0.0,0.0,0.0,0.0,0.0,0.0,0.0,0.0,0.0,0.0,0.0,0.0,0.0,0.0,0.0,0.0,0.0,0.0,-3.79,-3.7978,-3.8018,-3.8018,-3.8083,-3.8135,-3.8135,-3.8135,-3.8135,-3.8135,-3.8135,-3.8135,-3.8135,-3.8135,-3.8671,-3.9612,-3.9612,-3.9612,-3.9612,-3.9612,-3.9612,-3.9612,-3.9612,-3.9612,-3.9612,-3.9612,-3.9272,-3.8828,-3.8828,-3.8527,-3.8122,-3.8031,-3.8018,-3.8004,-3.7926,-3.79,-3.79,-3.79,-3.79,-3.79,-3.79,-3.79,-3.79,-3.79,-3.7508,-3.7116,-3.7116,-3.7116,-3.6946,-3.6345,-3.5848,-3.5338,-3.4724,-3.4567,-3.4489,-3.441,-3.4397,-3.4397,-3.4397,-3.4397,-3.4397,-3.4397,-3.4397,-3.4397,-3.4397,-3.4397,-3.4397,-3.4397,-3.4397,-3.4397,-3.4397,-3.4397,-3.4397,-3.4397,-3.5264,-3.5736,-3.5856,-3.5856,-3.6281,-3.7088,-3.6947,-3.7323,-3.0909,0.0,0.0,0.0,0.0,0.0,0.0,0.0,0.0,0.0,0.0,0.0,0.0,0.0,0.0,0.0,0.0,0.0,0.0,0.0,0.0,0.0,0.0,0.0,0.0,0.0,0.0,0.0,0.0,-3.79,-3.79,-3.79,-3.79,-3.79,-3.79,-3.79,-3.79,-3.79,-3.79,-3.79,-3.79,-3.79,-3.79,-3.79,-3.8174,-3.8658,-3.8658,-3.8658,-3.8658,-3.8658,-3.8658,-3.8658,-3.8658,-3.8658,-3.8658,-3.8658,-3.8488,-3.8266,-3.8266,-3.8109,-3.79,-3.79,-3.79,-3.79,-3.79,-3.79,-3.79,-3.79,-3.79,-3.79,-3.79,-3.7652,-3.7403,-3.7403,-3.6933,-3.641,-3.6109,-3.6279,-3.6332,-3.5757,-3.5195,-3.4711,-3.445,-3.4397,-3.4397,-3.4397,-3.4397,-3.4397,-3.4397,-3.4397,-3.4397,-3.4397,-3.4397,-3.4397,-3.4397,-3.4397,-3.4397,-3.4397,-3.4397,-3.4397,-3.4397,-3.4397,-3.4397,-3.4397,-3.5264,-3.5936,-3.6385,-3.6844,-3.7501,-3.8308,-3.8285,-3.8501,0.0,0.0,0.0,0.0,0.0,0.0,0.0,0.0,0.0,0.0,0.0,0.0,0.0,0.0,0.0,0.0,0.0,0.0,0.0,0.0,0.0,0.0,0.0,0.0,0.0,0.0,0.0,0.0,0.0,-3.79,-3.79,-3.79,-3.79,-3.79,-3.79,-3.79,-3.79,-3.79,-3.79,-3.79,-3.79,-3.79,-3.79,-3.79,-3.79,-3.79,-3.79,-3.79,-3.79,-3.79,-3.79,-3.79,-3.79,-3.79,-3.79,-3.79,-3.79,-3.79,-3.79,-3.79,-3.79,-3.79,-3.79,-3.79,-3.79,-3.79,-3.79,-3.79,-3.79,-3.7861,-3.7717,-3.7338,-3.6972,-3.6815,-3.6332,-3.5796,-3.5391,-3.5495,-3.5547,-3.5142,-3.4711,-3.4397,-3.4397,-3.4397,-3.4397,-3.4397,-3.4397,-3.4397,-3.4397,-3.4397,-3.4397,-3.4397,-3.4397,-3.4397,-3.4397,-3.4397,-3.4397,-3.4397,-3.4397,-3.4397,-3.4397,-3.4397,-3.4397,-3.4397,-3.5032,-3.5883,-3.688,-3.7782,-3.8612,-3.9388,-3.9192,-3.9192,0.0,0.0,0.0,0.0,0.0,0.0,0.0,0.0,0.0,0.0,0.0,0.0,0.0,0.0,0.0,0.0,0.0,0.0,0.0,0.0,0.0,0.0,0.0,0.0,0.0,0.0,0.0,0.0,0.0,-3.79,-3.79,-3.79,-3.79,-3.79,-3.79,-3.79,-3.79,-3.79,-3.79,-3.79,-3.79,-3.79,-3.79,-3.79,-3.79,-3.79,-3.79,-3.79,-3.79,-3.79,-3.79,-3.79,-3.79,-3.79,-3.79,-3.79,-3.79,-3.79,-3.79,-3.79,-3.79,-3.79,-3.79,-3.79,-3.79,-3.79,-3.79,-3.79,-3.79,-3.7769,-3.7207,-3.7024,-3.6867,-3.6279,-3.573,-3.5325,-3.5312,-3.4868,-3.4476,-3.445,-3.441,-3.4397,-3.4397,-3.4397,-3.4397,-3.4397,-3.4397,-3.4397,-3.4397,-3.4397,-3.4397,-3.4397,-3.4397,-3.4397,-3.4397,-3.4397,-3.4397,-3.4397,-3.4397,-3.4397,-3.4397,-3.4397,-3.4397,-3.4397,-3.4439,-3.5251,-3.688,-3.7782,-3.8612,-3.9388,-3.8627,-3.8664,0.0,0.0,0.0,0.0,0.0,0.0,0.0,0.0,0.0,0.0,0.0,0.0,0.0,0.0,0.0,0.0,0.0,0.0,0.0,0.0,0.0,0.0,0.0,0.0,0.0,0.0,0.0,0.0,0.0,0.0,-3.79,-3.7534,-3.7325,-3.7325,-3.6946,-3.675,-3.675,-3.675,-3.675,-3.675,-3.7142,-3.7325,-3.7338,-3.773,-3.79,-3.79,-3.79,-3.79,-3.79,-3.79,-3.79,-3.79,-3.79,-3.79,-3.79,-3.79,-3.79,-3.79,-3.79,-3.79,-3.79,-3.79,-3.79,-3.79,-3.79,-3.79,-3.7821,-3.7429,-3.7325,-3.7181,-3.658,-3.6175,-3.5757,-3.5155,-3.4868,-3.4724,-3.4724,-3.4554,-3.4397,-3.4397,-3.4397,-3.4397,-3.4397,-3.4397,-3.4397,-3.4397,-3.4397,-3.4397,-3.4397,-3.4397,-3.4397,-3.4397,-3.4397,-3.4397,-3.4397,-3.4397,-3.4397,-3.4397,-3.4397,-3.4397,-3.4397,-3.4397,-3.4397,-3.4397,-3.495,-3.5548,-3.6122,-3.6947,-3.782,-3.8627,-3.8848,-3.9119,-2.7706,0.0,0.0,0.0,0.0,0.0,0.0,0.0,0.0,0.0,0.0,0.0,0.0,0.0,0.0,0.0,0.0,0.0,0.0,0.0,0.0,0.0,0.0,0.0,0.0,0.0,0.0,0.0,0.0,0.0,-3.7312,-3.692,-3.6698,-3.6698,-3.6305,-3.6109,-3.6109,-3.6109,-3.6109,-3.6109,-3.6515,-3.6698,-3.6711,-3.7116,-3.7299,-3.7299,-3.7299,-3.7534,-3.79,-3.79,-3.79,-3.79,-3.79,-3.79,-3.79,-3.79,-3.79,-3.79,-3.79,-3.79,-3.79,-3.79,-3.7769,-3.7599,-3.7599,-3.7469,-3.722,-3.6815,-3.6698,-3.6567,-3.5979,-3.5417,-3.4894,-3.4502,-3.4397,-3.4397,-3.4397,-3.4397,-3.4397,-3.4397,-3.4397,-3.4397,-3.4397,-3.4397,-3.4397,-3.4397,-3.4397,-3.4397,-3.4397,-3.4397,-3.4397,-3.4397,-3.4397,-3.4397,-3.4397,-3.4397,-3.4397,-3.4397,-3.4397,-3.4397,-3.4397,-3.4397,-3.4551,-3.484,-3.5426,-3.5816,-3.6082,-3.6947,-3.7615,-3.8202,-3.9046,-3.9388,0.0,0.0,0.0,0.0,0.0,0.0,0.0,0.0,0.0,0.0,0.0,0.0,0.0,0.0,0.0,0.0,0.0,0.0,0.0,0.0,0.0,0.0,0.0,0.0,0.0,0.0,0.0,0.0,0.0,-3.6724,-3.6136,-3.6083,-3.607,-3.6057,-3.6057,-3.6057,-3.6057,-3.6057,-3.6057,-3.6057,-3.607,-3.6083,-3.6083,-3.6096,-3.6109,-3.6109,-3.6109,-3.6763,-3.7848,-3.7848,-3.7861,-3.7874,-3.7874,-3.7887,-3.79,-3.79,-3.79,-3.7874,-3.7874,-3.7861,-3.7848,-3.7848,-3.7456,-3.6972,-3.6972,-3.6567,-3.6109,-3.6083,-3.6083,-3.5953,-3.5417,-3.4842,-3.4397,-3.4397,-3.4397,-3.4397,-3.4397,-3.4397,-3.4397,-3.4397,-3.4397,-3.4397,-3.4397,-3.4397,-3.4397,-3.4397,-3.4397,-3.4397,-3.4397,-3.4397,-3.4397,-3.4397,-3.4397,-3.4397,-3.4397,-3.4397,-3.4397,-3.4397,-3.4397,-3.4384,-3.4371,-3.4371,-3.4759,-3.5615,-3.5615,-3.6001,-3.6799,-3.7729,-3.8165,-3.8202,-3.9046,-3.9388,-2.5781,0.0,0.0,0.0,0.0,0.0,0.0,0.0,0.0,0.0,0.0,0.0,0.0,0.0,0.0,0.0,0.0,0.0,0.0,0.0,0.0,0.0,0.0,0.0,0.0,0.0,0.0,0.0,-3.6358,-3.6279,-3.6109,-3.573,-3.5325,-3.4881,-3.4868,-3.4868,-3.4868,-3.4868,-3.4868,-3.4881,-3.5312,-3.5521,-3.5534,-3.5926,-3.6109,-3.6109,-3.6109,-3.6292,-3.6606,-3.6606,-3.6867,-3.726,-3.726,-3.7521,-3.79,-3.79,-3.7625,-3.726,-3.726,-3.6972,-3.6606,-3.6606,-3.6488,-3.6358,-3.6358,-3.624,-3.6018,-3.5626,-3.5521,-3.5391,-3.4803,-3.4528,-3.4397,-3.4397,-3.4397,-3.4397,-3.4397,-3.4397,-3.4397,-3.4397,-3.4397,-3.4397,-3.4397,-3.4397,-3.4397,-3.4397,-3.4397,-3.4397,-3.4397,-3.4397,-3.4397,-3.4397,-3.4397,-3.4397,-3.4397,-3.4397,-3.4397,-3.4397,-3.4397,-3.4228,-3.3835,-3.3809,-3.3722,-3.3516,-3.3556,-3.3885,-3.4637,-3.6396,-3.7577,-3.8202,-3.9046,-3.9388,-2.5781,-2.582,0.0,0.0,0.0,0.0,0.0,-3.0878,0.0,0.0,0.0,0.0,0.0,0.0,0.0,0.0,0.0,0.0,0.0,0.0,0.0,0.0,0.0,0.0,0.0,0.0,0.0,-3.5783,-3.577,-3.5652,-3.5404,-3.509,-3.4763,-3.441,-3.4397,-3.4397,-3.4397,-3.4397,-3.4397,-3.4397,-3.4763,-3.492,-3.4933,-3.5247,-3.5391,-3.5391,-3.5391,-3.5391,-3.5391,-3.5391,-3.5874,-3.6619,-3.6619,-3.6841,-3.7155,-3.7155,-3.6933,-3.6619,-3.6619,-3.6397,-3.6109,-3.6109,-3.5953,-3.577,-3.577,-3.5587,-3.5325,-3.5012,-3.492,-3.4842,-3.4489,-3.4397,-3.4397,-3.4397,-3.4397,-3.4397,-3.4397,-3.4397,-3.4397,-3.4397,-3.4397,-3.4397,-3.4397,-3.4397,-3.4397,-3.4397,-3.4397,-3.4397,-3.4397,-3.4397,-3.4397,-3.4397,-3.4397,-3.4306,-3.4084,-3.4058,-3.3953,-3.3705,-3.3692,-3.3548,-3.3234,-3.3529,-3.37,-3.3713,-3.3993,-3.4372,-3.4822,-3.5723,-3.6753,-3.7878,-3.8359,-3.8736,-2.5781,-2.5693,-2.5693,0.0,0.0,0.0,-2.9655,-3.0548,-3.163,0.0,0.0,0.0,0.0,0.0,0.0,0.0,0.0,0.0,0.0,0.0,0.0,0.0,0.0,0.0,0.0,-3.5913,-3.5717,-3.5234,-3.5195,-3.4959,-3.4424,-3.4397,-3.4397,-3.4397,-3.4397,-3.4397,-3.4397,-3.4397,-3.4397,-3.4397,-3.4397,-3.4397,-3.4397,-3.4397,-3.4397,-3.4397,-3.4397,-3.4397,-3.4397,-3.4397,-3.5038,-3.6018,-3.6018,-3.6057,-3.6109,-3.6109,-3.607,-3.6018,-3.6018,-3.5966,-3.5913,-3.5913,-3.5587,-3.5195,-3.5195,-3.4829,-3.4397,-3.4397,-3.4397,-3.4397,-3.4397,-3.4397,-3.4397,-3.4397,-3.4397,-3.4397,-3.4397,-3.4397,-3.4397,-3.4397,-3.4397,-3.4397,-3.4397,-3.4397,-3.4397,-3.4397,-3.4345,-3.4306,-3.4306,-3.4254,-3.4201,-3.4201,-3.4201,-3.4018,-3.3535,-3.3496,-3.326,-3.2725,-3.2685,-3.2659,-3.2594,-3.3233,-3.3922,-3.4641,-3.5359,-3.5741,-3.5741,-3.5465,-3.6007,-3.7267,-3.737,-3.7719,0.0,0.0,0.0,0.0,0.0,0.0,-2.6567,-2.7106,-2.7973,0.0,0.0,0.0,0.0,0.0,0.0,0.0,0.0,0.0,0.0,0.0,0.0,0.0,0.0,0.0,0.0,-3.4724,-3.4685,-3.458,-3.458,-3.4515,-3.441,-3.4397,-3.4397,-3.4397,-3.4397,-3.4397,-3.4397,-3.4397,-3.4397,-3.4397,-3.4397,-3.4397,-3.4397,-3.4397,-3.4397,-3.4397,-3.4397,-3.4397,-3.4397,-3.4397,-3.4816,-3.5456,-3.5456,-3.5717,-3.6109,-3.6109,-3.5822,-3.5456,-3.5456,-3.5142,-3.4724,-3.4724,-3.4659,-3.458,-3.458,-3.4489,-3.4397,-3.4397,-3.4397,-3.4397,-3.4397,-3.4397,-3.4397,-3.4397,-3.4397,-3.4397,-3.4397,-3.4397,-3.4397,-3.4397,-3.4397,-3.4397,-3.4397,-3.4397,-3.4397,-3.4397,-3.4031,-3.3757,-3.3757,-3.3326,-3.3025,-3.3025,-3.3025,-3.2986,-3.2881,-3.2868,-3.2816,-3.2698,-3.2685,-3.2489,-3.1993,-3.2122,-3.209,-3.1803,-3.2513,-3.2885,-3.2899,-3.5629,-3.6752,-3.6435,-3.708,-3.7479,0.0,0.0,0.0,-2.5693,0.0,0.0,0.0,-2.702,-2.7631,0.0,0.0,0.0,0.0,0.0,0.0,0.0,0.0,0.0,0.0,0.0,0.0,0.0,0.0,0.0,0.0,-3.4243,-3.4243,-3.4243,-3.4243,-3.4272,-3.4397,-3.4397,-3.4397,-3.4397,-3.4397,-3.4397,-3.4397,-3.4397,-3.4397,-3.4397,-3.4397,-3.4397,-3.4397,-3.4397,-3.4397,-3.4397,-3.4397,-3.4397,-3.4397,-3.4397,-3.458,-3.4842,-3.4842,-3.5012,-3.5247,-3.5247,-3.5077,-3.4842,-3.4842,-3.4646,-3.4397,-3.4397,-3.4397,-3.4397,-3.4397,-3.4397,-3.4397,-3.4397,-3.4397,-3.4397,-3.4397,-3.4397,-3.4397,-3.4397,-3.4397,-3.4397,-3.4397,-3.4397,-3.4319,-3.4045,-3.3992,-3.3992,-3.3992,-3.3992,-3.3901,-3.3587,-3.3313,-3.3143,-3.3143,-3.2881,-3.2685,-3.2685,-3.2685,-3.2581,-3.2293,-3.2267,-3.215,-3.1862,-3.1836,-3.1718,-3.1418,-3.1757,-3.2179,-3.2627,-3.3402,-3.3796,-3.3796,-3.5569,-3.6029,-3.5285,-3.6096,-3.6641,0.0,0.0,0.0,0.0,0.0,-2.6004,0.0,0.0,0.0,0.0,0.0,0.0,0.0,0.0,0.0,0.0,0.0,0.0,0.0,0.0,0.0,0.0,0.0,0.0,0.0,-3.3623,-3.3694,-3.4063,-3.3791,-3.3821,-3.4314,-3.4397,-3.4397,-3.4356,-3.4397,-3.4345,-3.4241,-3.4241,-3.4188,-3.4071,-3.4071,-3.4123,-3.4241,-3.4241,-3.4293,-3.4397,-3.4397,-3.4397,-3.4397,-3.4397,-3.4397,-3.4397,-3.4397,-3.4397,-3.4397,-3.4397,-3.4397,-3.4397,-3.4397,-3.4397,-3.4397,-3.4397,-3.4397,-3.4397,-3.4397,-3.4397,-3.4397,-3.4397,-3.4397,-3.4397,-3.4397,-3.4397,-3.4397,-3.4397,-3.4397,-3.4371,-3.4267,-3.4241,-3.4071,-3.3522,-3.3417,-3.3417,-3.3417,-3.3417,-3.3247,-3.2764,-3.2594,-3.2529,-3.2529,-3.2437,-3.2359,-3.2359,-3.2359,-3.2176,-3.168,-3.1641,-3.1445,-3.1013,-3.0986,-3.0986,-3.0986,-3.1566,-3.2434,-3.365,-3.4457,-3.4854,-3.4854,-3.5148,-3.5019,-3.4528,-3.5213,-3.5789,0.0,0.0,0.0,0.0,-2.5693,0.0,0.0,0.0,0.0,0.0,0.0,0.0,0.0,0.0,0.0,0.0,0.0,0.0,0.0,0.0,0.0,0.0,0.0,0.0,0.0,0.0,-3.2297,-3.3995,-3.2697,-3.255,-3.4037,-3.4314,-3.4314,-3.416,-3.4314,-3.4162,-3.3692,-3.3679,-3.3417,-3.2881,-3.2881,-3.3169,-3.3679,-3.3679,-3.394,-3.4397,-3.4397,-3.4397,-3.4397,-3.4397,-3.4397,-3.4397,-3.4397,-3.4397,-3.4397,-3.4397,-3.4397,-3.4397,-3.4397,-3.4397,-3.4397,-3.4397,-3.4397,-3.4397,-3.4397,-3.4397,-3.4397,-3.4397,-3.4397,-3.4397,-3.4397,-3.4397,-3.4397,-3.4397,-3.4397,-3.4267,-3.3783,-3.3679,-3.3509,-3.2908,-3.279,-3.279,-3.279,-3.279,-3.2777,-3.2698,-3.2254,-3.1902,-3.1902,-3.1496,-3.1182,-3.1182,-3.1182,-3.1156,-3.1091,-3.1078,-3.1052,-3.0986,-3.0986,-3.0986,-3.0986,-3.1086,-3.1185,-3.1371,-3.2101,-3.2506,-3.2506,-3.3788,-3.4758,-3.5359,-3.5472,-3.5549,0.0,0.0,0.0,0.0,0.0,0.0,-2.5878,0.0,-2.5485,0.0,0.0,0.0,0.0,0.0,0.0,0.0,0.0,0.0,0.0,0.0,0.0,0.0,0.0,0.0,0.0,0.0,0.0,0.0,0.0,-3.2222,-3.3995,-3.3986,-3.3845,-3.3625,-3.3506,-3.3259,-3.293,-3.3037,-3.2947,-3.2685,-3.2685,-3.2829,-3.3064,-3.3064,-3.3195,-3.343,-3.3783,-3.3927,-3.3953,-3.4267,-3.4397,-3.4397,-3.4397,-3.4397,-3.4397,-3.4397,-3.4397,-3.4397,-3.4397,-3.4397,-3.4397,-3.4397,-3.4397,-3.4397,-3.4397,-3.4397,-3.4397,-3.4397,-3.4397,-3.4397,-3.4397,-3.4397,-3.4319,-3.4005,-3.3927,-3.377,-3.3195,-3.3064,-3.2894,-3.2306,-3.2163,-3.2084,-3.1757,-3.198,-3.2084,-3.1757,-3.1496,-3.1352,-3.1352,-3.113,-3.0986,-3.0986,-3.0986,-3.0986,-3.0986,-3.0986,-3.0986,-3.0986,-3.0986,-3.0986,-3.0986,-3.1394,-3.1846,-3.2282,-3.3003,-3.363,-3.407,-3.4706,-3.5166,-3.5504,-3.5504,-3.5504,-2.6658,0.0,0.0,0.0,0.0,0.0,0.0,0.0,0.0,0.0,0.0,0.0,0.0,0.0,0.0,0.0,0.0,0.0,0.0,0.0,0.0,0.0,0.0,0.0,0.0,0.0,0.0,0.0,-3.1162,-3.1227,-3.3418,-3.3316,-3.3136,-3.2961,-3.2761,-3.2501,-3.224,-3.2384,-3.2385,-3.2228,-3.2228,-3.2306,-3.245,-3.245,-3.2542,-3.2712,-3.3156,-3.3352,-3.3378,-3.377,-3.4031,-3.4175,-3.4175,-3.4267,-3.4397,-3.4397,-3.4397,-3.4397,-3.4397,-3.4397,-3.4397,-3.4397,-3.4397,-3.4397,-3.4397,-3.4397,-3.4397,-3.4397,-3.4397,-3.4358,-3.4214,-3.4175,-3.4031,-3.3483,-3.3352,-3.3182,-3.2581,-3.245,-3.2293,-3.168,-3.1575,-3.147,-3.1052,-3.1326,-3.147,-3.1052,-3.0986,-3.0986,-3.0986,-3.0986,-3.0986,-3.0986,-3.0986,-3.0986,-3.0986,-3.0986,-3.0986,-3.0986,-3.1185,-3.1296,-3.1296,-3.2028,-3.2648,-3.3178,-3.3925,-3.4576,-3.5166,-3.5392,-3.5504,-3.5504,-3.5504,-3.5504,0.0,0.0,0.0,-2.5518,0.0,0.0,0.0,0.0,-2.4443,0.0,0.0,0.0,0.0,0.0,-2.3672,-2.3208,0.0,0.0,0.0,0.0,0.0,0.0,0.0,0.0,0.0,0.0,0.0,-3.0257,-2.8761,-2.9018,-3.2017,-3.2138,-3.2166,-3.2151,-3.2326,-3.2201,-3.1836,-3.1836,-3.1588,-3.1039,-3.1039,-3.1326,-3.1836,-3.1836,-3.2137,-3.2685,-3.2712,-3.2725,-3.2725,-3.2738,-3.3091,-3.3626,-3.3626,-3.394,-3.4397,-3.4397,-3.4397,-3.4397,-3.4397,-3.4397,-3.4397,-3.4397,-3.4397,-3.4397,-3.4397,-3.4397,-3.4397,-3.4397,-3.4397,-3.428,-3.3757,-3.3626,-3.347,-3.2868,-3.2725,-3.2568,-3.1954,-3.1836,-3.1654,-3.1117,-3.1013,-3.1013,-3.0986,-3.0999,-3.0999,-3.0986,-3.0986,-3.0986,-3.0986,-3.0986,-3.0986,-3.0986,-3.0986,-3.0986,-3.0986,-3.0986,-3.0986,-3.0986,-3.1676,-3.2037,-3.2037,-3.2755,-3.3178,-3.3178,-3.3925,-3.4312,-3.4346,-3.5133,-3.5504,-3.5504,-3.5504,-3.5504,0.0,0.0,-2.8683,-2.7155,0.0,0.0,0.0,0.0,0.0,0.0,0.0,0.0,0.0,0.0,-2.3266,-2.312,-2.3091,0.0,0.0,0.0,0.0,0.0,0.0,0.0,0.0,0.0,0.0,-2.984,-2.9207,-2.9641,0.0,-3.1768,-3.1562,-3.1311,-3.128,-3.1138,-3.088,-3.1008,-3.1031,-3.0986,-3.0986,-3.1091,-3.1274,-3.1274,-3.1378,-3.1588,-3.1967,-3.2084,-3.2124,-3.2542,-3.2816,-3.2999,-3.2999,-3.3104,-3.3365,-3.4123,-3.4397,-3.4397,-3.4397,-3.4397,-3.4397,-3.4397,-3.4397,-3.4397,-3.4397,-3.4149,-3.3862,-3.3862,-3.3574,-3.3221,-3.3038,-3.2999,-3.2842,-3.2267,-3.2084,-3.1928,-3.1405,-3.1274,-3.1222,-3.1026,-3.0986,-3.0986,-3.0986,-3.0986,-3.0986,-3.0986,-3.0986,-3.0986,-3.0986,-3.0986,-3.0986,-3.0986,-3.0986,-3.0986,-3.0986,-3.0986,-3.0986,-3.0986,-3.1222,-3.1357,-3.1357,-3.1616,-3.1955,-3.247,-3.3213,-3.3802,-3.4312,-3.51,-3.5504,-3.5504,-3.5504,-3.5504,-2.9772,-2.9545,0.0,-2.7241,-2.653,0.0,-2.4782,0.0,0.0,0.0,0.0,0.0,0.0,0.0,0.0,-2.2882,-2.3003,-2.3091,0.0,-2.2706,0.0,0.0,0.0,0.0,0.0,0.0,-2.6237,-2.8572,-2.831,-2.8767,0.0,0.0,-3.079,-3.062,-3.0612,-3.0571,-3.0495,-3.0723,-3.0874,-3.0986,-3.0986,-3.0986,-3.0986,-3.0986,-3.0986,-3.0999,-3.1378,-3.1535,-3.1561,-3.1927,-3.2202,-3.2385,-3.2385,-3.2515,-3.2777,-3.3522,-3.3796,-3.3796,-3.3796,-3.3796,-3.3796,-3.3796,-3.3796,-3.3796,-3.3796,-3.3548,-3.3313,-3.3535,-3.3156,-3.2685,-3.2685,-3.2542,-3.2241,-3.1628,-3.1535,-3.1431,-3.1065,-3.0986,-3.0986,-3.0986,-3.0986,-3.0986,-3.0986,-3.0986,-3.0986,-3.0986,-3.0986,-3.0986,-3.0986,-3.0986,-3.0986,-3.0986,-3.0986,-3.0986,-3.0986,-3.0986,-3.0986,-3.0986,-3.1259,-3.1505,-3.175,-3.2028,-3.2519,-3.3297,-3.3796,-3.424,-3.4725,-3.5246,-3.5504,-3.5504,-3.5504,-3.5504]}]]